<?xml version='1.0' encoding='UTF-8'?><gpx version="1.1" creator="JPX - https://github.com/jenetics/jpx" xmlns="http://www.topografix.com/GPX/1/1"><trk><trkseg><trkpt lat="46.14033083335248" lon="9.379253011051903"><ele>210.0</ele><time>2026-05-03T12:18:38.001Z</time></trkpt><trkpt lat="46.14030936382391" lon="9.379446152932347"><ele>210.0</ele><time>2026-05-03T12:18:40Z</time></trkpt><trkpt lat="46.14031730033128" lon="9.37959010440682"><ele>210.0</ele><time>2026-05-03T12:18:41Z</time></trkpt><trkpt lat="46.14034794271239" lon="9.37977599848286"><ele>210.0</ele><time>2026-05-03T12:18:42Z</time></trkpt><trkpt lat="46.140408532978526" lon="9.379998239260578"><ele>210.66666666666669</ele><time>2026-05-03T12:18:43Z</time></trkpt><trkpt lat="46.14046422743522" lon="9.380226413926035"><ele>211.33333333333334</ele><time>2026-05-03T12:18:44Z</time></trkpt><trkpt lat="46.140522577636425" lon="9.380483743431768"><ele>212.0</ele><time>2026-05-03T12:18:45Z</time></trkpt><trkpt lat="46.14057953178281" lon="9.380750800851086"><ele>213.0</ele><time>2026-05-03T12:18:46Z</time></trkpt><trkpt lat="46.140628895593274" lon="9.380980884176758"><ele>214.0</ele><time>2026-05-03T12:18:47Z</time></trkpt><trkpt lat="46.140671601352935" lon="9.381178026697379"><ele>215.0</ele><time>2026-05-03T12:18:48Z</time></trkpt><trkpt lat="46.140714081973286" lon="9.381371746230094"><ele>214.25</ele><time>2026-05-03T12:18:49Z</time></trkpt><trkpt lat="46.140754857750544" lon="9.381551375697596"><ele>213.5</ele><time>2026-05-03T12:18:50Z</time></trkpt><trkpt lat="46.140801532337306" lon="9.381737933902206"><ele>212.75</ele><time>2026-05-03T12:18:51Z</time></trkpt><trkpt lat="46.14085291053287" lon="9.381952992718542"><ele>212.0</ele><time>2026-05-03T12:18:52Z</time></trkpt><trkpt lat="46.14090017280983" lon="9.382190845016183"><ele>212.0</ele><time>2026-05-03T12:18:53Z</time></trkpt><trkpt lat="46.14094453312818" lon="9.382409775231253"><ele>212.0</ele><time>2026-05-03T12:18:54Z</time></trkpt><trkpt lat="46.14098730156339" lon="9.382600257892861"><ele>212.0</ele><time>2026-05-03T12:18:55Z</time></trkpt><trkpt lat="46.1410251515637" lon="9.3827646025885"><ele>212.0</ele><time>2026-05-03T12:18:56Z</time></trkpt><trkpt lat="46.1410558050962" lon="9.382902199723981"><ele>212.0</ele><time>2026-05-03T12:18:57Z</time></trkpt><trkpt lat="46.14108277297295" lon="9.383013744570562"><ele>212.0</ele><time>2026-05-03T12:18:58Z</time></trkpt><trkpt lat="46.14110867017296" lon="9.383100093788979"><ele>212.0</ele><time>2026-05-03T12:18:59Z</time></trkpt><trkpt lat="46.141199686923834" lon="9.383167550015637"><ele>212.0</ele><time>2026-05-03T12:19:01Z</time></trkpt><trkpt lat="46.14134323142017" lon="9.383114390528554"><ele>212.0</ele><time>2026-05-03T12:19:03Z</time></trkpt><trkpt lat="46.14143436609021" lon="9.383088614174184"><ele>212.2</ele><time>2026-05-03T12:19:04Z</time></trkpt><trkpt lat="46.1415348227895" lon="9.383089014298001"><ele>212.39999999999998</ele><time>2026-05-03T12:19:05Z</time></trkpt><trkpt lat="46.141634234355315" lon="9.383118927072829"><ele>212.60000000000002</ele><time>2026-05-03T12:19:06Z</time></trkpt><trkpt lat="46.14171565213128" lon="9.383182274030737"><ele>212.8</ele><time>2026-05-03T12:19:07Z</time></trkpt><trkpt lat="46.14178986237745" lon="9.383263841182995"><ele>213.0</ele><time>2026-05-03T12:19:08Z</time></trkpt><trkpt lat="46.14184529996789" lon="9.383379357523374"><ele>212.2</ele><time>2026-05-03T12:19:09Z</time></trkpt><trkpt lat="46.14187647576423" lon="9.383499808365269"><ele>211.4</ele><time>2026-05-03T12:19:10Z</time></trkpt><trkpt lat="46.14188546221984" lon="9.383634891599286"><ele>210.6</ele><time>2026-05-03T12:19:11Z</time></trkpt><trkpt lat="46.14187014124354" lon="9.383782876892962"><ele>209.79999999999998</ele><time>2026-05-03T12:19:12Z</time></trkpt><trkpt lat="46.14183425478052" lon="9.383936881478549"><ele>209.0</ele><time>2026-05-03T12:19:13Z</time></trkpt><trkpt lat="46.141786008820155" lon="9.384060377056139"><ele>209.0</ele><time>2026-05-03T12:19:14Z</time></trkpt><trkpt lat="46.14170269752482" lon="9.384140098751093"><ele>209.0</ele><time>2026-05-03T12:19:15Z</time></trkpt><trkpt lat="46.14161235627541" lon="9.38421907461246"><ele>209.0</ele><time>2026-05-03T12:19:16Z</time></trkpt><trkpt lat="46.14149671589389" lon="9.38423003104282"><ele>209.0</ele><time>2026-05-03T12:19:17Z</time></trkpt><trkpt lat="46.14139278764144" lon="9.384286645047336"><ele>209.0</ele><time>2026-05-03T12:19:18Z</time></trkpt><trkpt lat="46.14131280657173" lon="9.384305693010454"><ele>209.66666666666669</ele><time>2026-05-03T12:19:19Z</time></trkpt><trkpt lat="46.14124724749904" lon="9.384322641080574"><ele>210.33333333333334</ele><time>2026-05-03T12:19:20Z</time></trkpt><trkpt lat="46.14118475799636" lon="9.384344195410996"><ele>211.0</ele><time>2026-05-03T12:19:21Z</time></trkpt><trkpt lat="46.14105777669215" lon="9.384395703365323"><ele>211.66666666666669</ele><time>2026-05-03T12:19:23Z</time></trkpt><trkpt lat="46.140987518480244" lon="9.384404249120859"><ele>212.33333333333334</ele><time>2026-05-03T12:19:24Z</time></trkpt><trkpt lat="46.14092126736883" lon="9.384427490984644"><ele>213.0</ele><time>2026-05-03T12:19:25Z</time></trkpt><trkpt lat="46.14085381322597" lon="9.384451812058508"><ele>212.99999999999997</ele><time>2026-05-03T12:19:26Z</time></trkpt><trkpt lat="46.14078862534134" lon="9.38447531608669"><ele>213.0</ele><time>2026-05-03T12:19:27Z</time></trkpt><trkpt lat="46.14072391500945" lon="9.384522751699926"><ele>213.0</ele><time>2026-05-03T12:19:28Z</time></trkpt><trkpt lat="46.140651436616785" lon="9.384534262149783"><ele>213.0</ele><time>2026-05-03T12:19:29Z</time></trkpt><trkpt lat="46.14057642295142" lon="9.384556139836338"><ele>213.0</ele><time>2026-05-03T12:19:30Z</time></trkpt><trkpt lat="46.14051130352653" lon="9.384577869480971"><ele>212.99999999999997</ele><time>2026-05-03T12:19:31Z</time></trkpt><trkpt lat="46.14044413519245" lon="9.384600646787419"><ele>213.0</ele><time>2026-05-03T12:19:32Z</time></trkpt><trkpt lat="46.14032969920662" lon="9.384640622640367"><ele>213.83333333333334</ele><time>2026-05-03T12:19:34Z</time></trkpt><trkpt lat="46.140226762562826" lon="9.384671998853639"><ele>214.66666666666669</ele><time>2026-05-03T12:19:36Z</time></trkpt><trkpt lat="46.140141196399576" lon="9.384674399399172"><ele>215.5</ele><time>2026-05-03T12:19:38Z</time></trkpt><trkpt lat="46.140118856539516" lon="9.384529183162837"><ele>216.33333333333334</ele><time>2026-05-03T12:19:39Z</time></trkpt><trkpt lat="46.1400895685664" lon="9.384427371330515"><ele>217.16666666666669</ele><time>2026-05-03T12:19:40Z</time></trkpt><trkpt lat="46.140061955533845" lon="9.384324840118676"><ele>218.0</ele><time>2026-05-03T12:19:41Z</time></trkpt><trkpt lat="46.140003552473196" lon="9.384172917027179"><ele>218.00000000000003</ele><time>2026-05-03T12:19:43Z</time></trkpt><trkpt lat="46.13996208758259" lon="9.38409567223202"><ele>218.0</ele><time>2026-05-03T12:19:44Z</time></trkpt><trkpt lat="46.13990728886236" lon="9.38404454743096"><ele>218.0</ele><time>2026-05-03T12:19:45Z</time></trkpt><trkpt lat="46.13980385983486" lon="9.384005364780071"><ele>218.0</ele><time>2026-05-03T12:19:47Z</time></trkpt><trkpt lat="46.139727413655436" lon="9.383997885300204"><ele>218.00000000000003</ele><time>2026-05-03T12:19:50Z</time></trkpt><trkpt lat="46.13966360763271" lon="9.383994826761846"><ele>218.0</ele><time>2026-05-03T12:19:53Z</time></trkpt><trkpt lat="46.13956049475804" lon="9.383917449512431"><ele>218.4</ele><time>2026-05-03T12:19:55Z</time></trkpt><trkpt lat="46.13956145587682" lon="9.383806184643994"><ele>218.8</ele><time>2026-05-03T12:19:56Z</time></trkpt><trkpt lat="46.1395436286324" lon="9.383677650947563"><ele>219.2</ele><time>2026-05-03T12:19:57Z</time></trkpt><trkpt lat="46.13953842871159" lon="9.383522740457133"><ele>219.6</ele><time>2026-05-03T12:19:58Z</time></trkpt><trkpt lat="46.13952861242316" lon="9.38334297393811"><ele>220.0</ele><time>2026-05-03T12:19:59Z</time></trkpt><trkpt lat="46.139518810672186" lon="9.383184671750676"><ele>220.0</ele><time>2026-05-03T12:20:00Z</time></trkpt><trkpt lat="46.139508764576135" lon="9.383025922609505"><ele>220.0</ele><time>2026-05-03T12:20:01Z</time></trkpt><trkpt lat="46.13950024378864" lon="9.382865475444172"><ele>220.0</ele><time>2026-05-03T12:20:02Z</time></trkpt><trkpt lat="46.139490886684825" lon="9.382704761697566"><ele>220.0</ele><time>2026-05-03T12:20:03Z</time></trkpt><trkpt lat="46.139482730366794" lon="9.382542546270983"><ele>220.0</ele><time>2026-05-03T12:20:04Z</time></trkpt><trkpt lat="46.13947188981919" lon="9.382378938037572"><ele>219.75</ele><time>2026-05-03T12:20:05Z</time></trkpt><trkpt lat="46.139459699192386" lon="9.382214860654926"><ele>219.5</ele><time>2026-05-03T12:20:06Z</time></trkpt><trkpt lat="46.139448251515" lon="9.382050987954564"><ele>219.25</ele><time>2026-05-03T12:20:07Z</time></trkpt><trkpt lat="46.13943574296931" lon="9.381886242758453"><ele>219.0</ele><time>2026-05-03T12:20:08Z</time></trkpt><trkpt lat="46.13942013849203" lon="9.381723383126529"><ele>218.75</ele><time>2026-05-03T12:20:09Z</time></trkpt><trkpt lat="46.139408579482854" lon="9.381557969113405"><ele>218.5</ele><time>2026-05-03T12:20:10Z</time></trkpt><trkpt lat="46.139398181099054" lon="9.381391435490544"><ele>218.25</ele><time>2026-05-03T12:20:11Z</time></trkpt><trkpt lat="46.13938535653466" lon="9.38119737527088"><ele>218.0</ele><time>2026-05-03T12:20:12.001Z</time></trkpt><trkpt lat="46.13937311559265" lon="9.380969018475035"><ele>217.5</ele><time>2026-05-03T12:20:13.001Z</time></trkpt><trkpt lat="46.139358443050135" lon="9.380757574548866"><ele>217.0</ele><time>2026-05-03T12:20:14.001Z</time></trkpt><trkpt lat="46.13934371046351" lon="9.380569208596325"><ele>216.5</ele><time>2026-05-03T12:20:15.001Z</time></trkpt><trkpt lat="46.13932809865551" lon="9.380391191848773"><ele>216.0</ele><time>2026-05-03T12:20:16.001Z</time></trkpt><trkpt lat="46.13931377846009" lon="9.38021733561186"><ele>215.25</ele><time>2026-05-03T12:20:17.001Z</time></trkpt><trkpt lat="46.13930003985346" lon="9.380040978534762"><ele>214.5</ele><time>2026-05-03T12:20:18.001Z</time></trkpt><trkpt lat="46.139283835931074" lon="9.379866424518818"><ele>213.75</ele><time>2026-05-03T12:20:19.001Z</time></trkpt><trkpt lat="46.13926318350916" lon="9.379695606860832"><ele>213.0</ele><time>2026-05-03T12:20:20.001Z</time></trkpt><trkpt lat="46.13923799481403" lon="9.379538805971626"><ele>212.60000000000002</ele><time>2026-05-03T12:20:21.001Z</time></trkpt><trkpt lat="46.13920974642512" lon="9.379390498319015"><ele>212.20000000000002</ele><time>2026-05-03T12:20:22.001Z</time></trkpt><trkpt lat="46.13917972996373" lon="9.379254517393615"><ele>211.8</ele><time>2026-05-03T12:20:23.001Z</time></trkpt><trkpt lat="46.13914975978134" lon="9.379133083521685"><ele>211.4</ele><time>2026-05-03T12:20:24.001Z</time></trkpt><trkpt lat="46.139121043610196" lon="9.379013940237947"><ele>211.0</ele><time>2026-05-03T12:20:25.001Z</time></trkpt><trkpt lat="46.139090720905635" lon="9.37889782644702"><ele>210.83333333333331</ele><time>2026-05-03T12:20:26.001Z</time></trkpt><trkpt lat="46.13905853600673" lon="9.37878816086661"><ele>210.66666666666666</ele><time>2026-05-03T12:20:27.001Z</time></trkpt><trkpt lat="46.13902440329164" lon="9.378684079973862"><ele>210.5</ele><time>2026-05-03T12:20:28.001Z</time></trkpt><trkpt lat="46.13899030762297" lon="9.378578259667178"><ele>210.33333333333331</ele><time>2026-05-03T12:20:29.001Z</time></trkpt><trkpt lat="46.13895460135986" lon="9.378474965183269"><ele>210.16666666666666</ele><time>2026-05-03T12:20:30.001Z</time></trkpt><trkpt lat="46.13891627887955" lon="9.378371524000231"><ele>210.0</ele><time>2026-05-03T12:20:31.001Z</time></trkpt><trkpt lat="46.13887764672405" lon="9.378277424816785"><ele>210.16666666666666</ele><time>2026-05-03T12:20:32.001Z</time></trkpt><trkpt lat="46.13883908004478" lon="9.378184741886221"><ele>210.33333333333331</ele><time>2026-05-03T12:20:33.001Z</time></trkpt><trkpt lat="46.13879995221283" lon="9.378089648298687"><ele>210.5</ele><time>2026-05-03T12:20:34.001Z</time></trkpt><trkpt lat="46.1387572622151" lon="9.377993777149289"><ele>210.66666666666666</ele><time>2026-05-03T12:20:35.001Z</time></trkpt><trkpt lat="46.138710876734244" lon="9.377894385260538"><ele>210.83333333333331</ele><time>2026-05-03T12:20:36.001Z</time></trkpt><trkpt lat="46.138681111770154" lon="9.377785545486566"><ele>211.0</ele><time>2026-05-03T12:20:37.001Z</time></trkpt><trkpt lat="46.13863525990394" lon="9.377682052173563"><ele>211.0</ele><time>2026-05-03T12:20:38.001Z</time></trkpt><trkpt lat="46.13858783175086" lon="9.377574683521738"><ele>211.0</ele><time>2026-05-03T12:20:39.001Z</time></trkpt><trkpt lat="46.13853931314024" lon="9.377464844056227"><ele>211.0</ele><time>2026-05-03T12:20:40.001Z</time></trkpt><trkpt lat="46.13848847217164" lon="9.377351735641112"><ele>211.0</ele><time>2026-05-03T12:20:41.001Z</time></trkpt><trkpt lat="46.13843654260009" lon="9.377235147898576"><ele>211.0</ele><time>2026-05-03T12:20:42.001Z</time></trkpt><trkpt lat="46.13838181349708" lon="9.377112153871092"><ele>210.8</ele><time>2026-05-03T12:20:43.001Z</time></trkpt><trkpt lat="46.1383253161409" lon="9.376985186057139"><ele>210.60000000000002</ele><time>2026-05-03T12:20:44.001Z</time></trkpt><trkpt lat="46.13827015430637" lon="9.376861218370076"><ele>210.4</ele><time>2026-05-03T12:20:44.999Z</time></trkpt><trkpt lat="46.13821616224947" lon="9.376740676834263"><ele>210.2</ele><time>2026-05-03T12:20:45.999Z</time></trkpt><trkpt lat="46.13814436065577" lon="9.37664249524229"><ele>210.0</ele><time>2026-05-03T12:20:46.999Z</time></trkpt><trkpt lat="46.1380952106114" lon="9.376532339896889"><ele>210.33333333333334</ele><time>2026-05-03T12:20:47.999Z</time></trkpt><trkpt lat="46.13805150658204" lon="9.376431306256343"><ele>210.66666666666669</ele><time>2026-05-03T12:20:48.999Z</time></trkpt><trkpt lat="46.13801121733287" lon="9.376340866081351"><ele>211.0</ele><time>2026-05-03T12:20:49.999Z</time></trkpt><trkpt lat="46.137954955780046" lon="9.376210139966059"><ele>211.33333333333334</ele><time>2026-05-03T12:20:51.999Z</time></trkpt><trkpt lat="46.13791393195876" lon="9.376114195809139"><ele>211.66666666666669</ele><time>2026-05-03T12:20:53.999Z</time></trkpt><trkpt lat="46.13787468897989" lon="9.376022167036384"><ele>212.0</ele><time>2026-05-03T12:20:55.999Z</time></trkpt><trkpt lat="46.13784200630857" lon="9.375944217299855"><ele>212.00000000000003</ele><time>2026-05-03T12:20:58.999Z</time></trkpt><trkpt lat="46.137814260236254" lon="9.375862033269044"><ele>212.0</ele><time>2026-05-03T12:21:04.999Z</time></trkpt><trkpt lat="46.137766023598296" lon="9.375763547568342"><ele>212.0</ele><time>2026-05-03T12:21:08.999Z</time></trkpt><trkpt lat="46.137722150006425" lon="9.375663882248574"><ele>212.0</ele><time>2026-05-03T12:21:10.999Z</time></trkpt><trkpt lat="46.13767853282001" lon="9.375522269110512"><ele>212.00000000000003</ele><time>2026-05-03T12:21:12.999Z</time></trkpt><trkpt lat="46.13762586080889" lon="9.37540135164707"><ele>212.0</ele><time>2026-05-03T12:21:14.999Z</time></trkpt><trkpt lat="46.13756701445989" lon="9.375270002435439"><ele>211.83333333333334</ele><time>2026-05-03T12:21:16.999Z</time></trkpt><trkpt lat="46.13750340020884" lon="9.375125886566106"><ele>211.66666666666669</ele><time>2026-05-03T12:21:19Z</time></trkpt><trkpt lat="46.13743631144315" lon="9.37497567973847"><ele>211.5</ele><time>2026-05-03T12:21:21Z</time></trkpt><trkpt lat="46.13740059669754" lon="9.374895436579727"><ele>211.33333333333331</ele><time>2026-05-03T12:21:22Z</time></trkpt><trkpt lat="46.137364045572355" lon="9.37481331430749"><ele>211.16666666666666</ele><time>2026-05-03T12:21:23Z</time></trkpt><trkpt lat="46.137312711499455" lon="9.374739365207377"><ele>211.0</ele><time>2026-05-03T12:21:24Z</time></trkpt><trkpt lat="46.13727370310264" lon="9.374649408356916"><ele>211.49999999999997</ele><time>2026-05-03T12:21:25Z</time></trkpt><trkpt lat="46.137247581092865" lon="9.374550854545117"><ele>212.0</ele><time>2026-05-03T12:21:26Z</time></trkpt><trkpt lat="46.137199759395656" lon="9.374476134916806"><ele>212.5</ele><time>2026-05-03T12:21:27Z</time></trkpt><trkpt lat="46.137160487501845" lon="9.374382244413903"><ele>213.0</ele><time>2026-05-03T12:21:28Z</time></trkpt><trkpt lat="46.13711623424569" lon="9.374286165864415"><ele>213.49999999999997</ele><time>2026-05-03T12:21:29Z</time></trkpt><trkpt lat="46.13707165244076" lon="9.37418841702746"><ele>214.0</ele><time>2026-05-03T12:21:30Z</time></trkpt><trkpt lat="46.13702802170412" lon="9.37408813365973"><ele>213.99999999999997</ele><time>2026-05-03T12:21:31Z</time></trkpt><trkpt lat="46.13698423393185" lon="9.373990496502584"><ele>214.0</ele><time>2026-05-03T12:21:32Z</time></trkpt><trkpt lat="46.136939186813855" lon="9.373887659412075"><ele>214.0</ele><time>2026-05-03T12:21:33Z</time></trkpt><trkpt lat="46.136891580790994" lon="9.373786402347585"><ele>214.0</ele><time>2026-05-03T12:21:34Z</time></trkpt><trkpt lat="46.136844591335574" lon="9.373685034167694"><ele>213.99999999999997</ele><time>2026-05-03T12:21:35Z</time></trkpt><trkpt lat="46.13679553969414" lon="9.373583377622337"><ele>214.0</ele><time>2026-05-03T12:21:36Z</time></trkpt><trkpt lat="46.13674580018929" lon="9.37348636834604"><ele>213.83333333333331</ele><time>2026-05-03T12:21:37Z</time></trkpt><trkpt lat="46.136693894140194" lon="9.373390057162926"><ele>213.66666666666666</ele><time>2026-05-03T12:21:38Z</time></trkpt><trkpt lat="46.13664217312858" lon="9.373292642247684"><ele>213.5</ele><time>2026-05-03T12:21:39Z</time></trkpt><trkpt lat="46.136590125514005" lon="9.373196188510004"><ele>213.33333333333331</ele><time>2026-05-03T12:21:40Z</time></trkpt><trkpt lat="46.13654019837557" lon="9.37310458471803"><ele>213.16666666666666</ele><time>2026-05-03T12:21:41Z</time></trkpt><trkpt lat="46.13649215911595" lon="9.373014772858424"><ele>213.0</ele><time>2026-05-03T12:21:42Z</time></trkpt><trkpt lat="46.136443312280434" lon="9.3729219225081"><ele>213.0</ele><time>2026-05-03T12:21:43Z</time></trkpt><trkpt lat="46.136392137172564" lon="9.37282232136845"><ele>213.0</ele><time>2026-05-03T12:21:44Z</time></trkpt><trkpt lat="46.136336540364525" lon="9.372717075361223"><ele>213.0</ele><time>2026-05-03T12:21:45Z</time></trkpt><trkpt lat="46.13627171101872" lon="9.372590895780466"><ele>213.0</ele><time>2026-05-03T12:21:46Z</time></trkpt><trkpt lat="46.136225117368674" lon="9.372457831176114"><ele>213.0</ele><time>2026-05-03T12:21:47Z</time></trkpt><trkpt lat="46.136164676333586" lon="9.372351995328838"><ele>213.0</ele><time>2026-05-03T12:21:48Z</time></trkpt><trkpt lat="46.13612116020541" lon="9.372237782352817"><ele>213.0</ele><time>2026-05-03T12:21:49Z</time></trkpt><trkpt lat="46.13607074931804" lon="9.372125053870471"><ele>213.0</ele><time>2026-05-03T12:21:50Z</time></trkpt><trkpt lat="46.13601926541501" lon="9.372006211075899"><ele>213.0</ele><time>2026-05-03T12:21:51Z</time></trkpt><trkpt lat="46.135966950915304" lon="9.371885424591364"><ele>213.0</ele><time>2026-05-03T12:21:52Z</time></trkpt><trkpt lat="46.13591680194625" lon="9.371769657728105"><ele>212.83333333333334</ele><time>2026-05-03T12:21:53Z</time></trkpt><trkpt lat="46.135869438906425" lon="9.371657852363342"><ele>212.66666666666669</ele><time>2026-05-03T12:21:54Z</time></trkpt><trkpt lat="46.13582151099042" lon="9.371550322714308"><ele>212.5</ele><time>2026-05-03T12:21:55Z</time></trkpt><trkpt lat="46.13576761966737" lon="9.371439527359744"><ele>212.33333333333334</ele><time>2026-05-03T12:21:56Z</time></trkpt><trkpt lat="46.135717900107295" lon="9.37133263138686"><ele>212.16666666666669</ele><time>2026-05-03T12:21:57Z</time></trkpt><trkpt lat="46.135676527534685" lon="9.371223055180389"><ele>212.0</ele><time>2026-05-03T12:21:58Z</time></trkpt><trkpt lat="46.13564345190945" lon="9.37113795502148"><ele>212.50000000000003</ele><time>2026-05-03T12:21:59Z</time></trkpt><trkpt lat="46.13560458199972" lon="9.37105004156747"><ele>213.0</ele><time>2026-05-03T12:22:00Z</time></trkpt><trkpt lat="46.1355649409224" lon="9.370955910863003"><ele>213.5</ele><time>2026-05-03T12:22:01Z</time></trkpt><trkpt lat="46.13552704612844" lon="9.370848666960653"><ele>214.0</ele><time>2026-05-03T12:22:02Z</time></trkpt><trkpt lat="46.13548163569277" lon="9.370746377351699"><ele>214.50000000000003</ele><time>2026-05-03T12:22:03Z</time></trkpt><trkpt lat="46.135421616699034" lon="9.370643325452058"><ele>215.0</ele><time>2026-05-03T12:22:04Z</time></trkpt><trkpt lat="46.13535708016712" lon="9.37053254257022"><ele>214.5</ele><time>2026-05-03T12:22:05Z</time></trkpt><trkpt lat="46.135296964339545" lon="9.370398023754245"><ele>214.0</ele><time>2026-05-03T12:22:06Z</time></trkpt><trkpt lat="46.135230916544344" lon="9.37025519352578"><ele>213.5</ele><time>2026-05-03T12:22:07Z</time></trkpt><trkpt lat="46.13515861581483" lon="9.370103373654528"><ele>213.0</ele><time>2026-05-03T12:22:08Z</time></trkpt><trkpt lat="46.13508566486032" lon="9.369942048652737"><ele>213.0</ele><time>2026-05-03T12:22:09Z</time></trkpt><trkpt lat="46.13501389546725" lon="9.36978769312402"><ele>213.0</ele><time>2026-05-03T12:22:10Z</time></trkpt><trkpt lat="46.13494249139232" lon="9.369638164219282"><ele>213.0</ele><time>2026-05-03T12:22:11Z</time></trkpt><trkpt lat="46.13486421578163" lon="9.369488258685422"><ele>213.0</ele><time>2026-05-03T12:22:12Z</time></trkpt><trkpt lat="46.134798420920596" lon="9.369322957474882"><ele>212.75</ele><time>2026-05-03T12:22:13Z</time></trkpt><trkpt lat="46.134705077643474" lon="9.369185239173932"><ele>212.5</ele><time>2026-05-03T12:22:14Z</time></trkpt><trkpt lat="46.13463192991099" lon="9.36905040140112"><ele>212.25</ele><time>2026-05-03T12:22:15Z</time></trkpt><trkpt lat="46.134556221523034" lon="9.368922693909507"><ele>212.0</ele><time>2026-05-03T12:22:16Z</time></trkpt><trkpt lat="46.134479594109685" lon="9.368798709450116"><ele>212.0</ele><time>2026-05-03T12:22:17Z</time></trkpt><trkpt lat="46.13439909757406" lon="9.368668728088288"><ele>212.0</ele><time>2026-05-03T12:22:18Z</time></trkpt><trkpt lat="46.134315946862216" lon="9.368539439876283"><ele>212.0</ele><time>2026-05-03T12:22:19Z</time></trkpt><trkpt lat="46.134245353111545" lon="9.36839077383278"><ele>212.0</ele><time>2026-05-03T12:22:20Z</time></trkpt><trkpt lat="46.13415114791435" lon="9.368272729447854"><ele>212.0</ele><time>2026-05-03T12:22:21Z</time></trkpt><trkpt lat="46.134068461643245" lon="9.368137276391275"><ele>212.0</ele><time>2026-05-03T12:22:22Z</time></trkpt><trkpt lat="46.133987391243494" lon="9.368002228151923"><ele>212.0</ele><time>2026-05-03T12:22:23Z</time></trkpt><trkpt lat="46.13390645689715" lon="9.367870696383275"><ele>212.0</ele><time>2026-05-03T12:22:24Z</time></trkpt><trkpt lat="46.13382687650891" lon="9.367742071475774"><ele>213.25</ele><time>2026-05-03T12:22:25Z</time></trkpt><trkpt lat="46.1337457362133" lon="9.36761532325585"><ele>214.5</ele><time>2026-05-03T12:22:26Z</time></trkpt><trkpt lat="46.13366615300073" lon="9.3674917357258"><ele>215.75</ele><time>2026-05-03T12:22:27Z</time></trkpt><trkpt lat="46.13358717630802" lon="9.367368541630725"><ele>217.0</ele><time>2026-05-03T12:22:28Z</time></trkpt><trkpt lat="46.13351205149968" lon="9.367244759534183"><ele>217.25</ele><time>2026-05-03T12:22:29Z</time></trkpt><trkpt lat="46.133436859905565" lon="9.367124047730897"><ele>217.5</ele><time>2026-05-03T12:22:30Z</time></trkpt><trkpt lat="46.1333613892887" lon="9.367007009079915"><ele>217.75</ele><time>2026-05-03T12:22:31Z</time></trkpt><trkpt lat="46.1332850487944" lon="9.366887675843161"><ele>218.0</ele><time>2026-05-03T12:22:32Z</time></trkpt><trkpt lat="46.13321035140188" lon="9.366762949263887"><ele>218.0</ele><time>2026-05-03T12:22:33Z</time></trkpt><trkpt lat="46.13313793011803" lon="9.366629200713646"><ele>218.0</ele><time>2026-05-03T12:22:34Z</time></trkpt><trkpt lat="46.13306768187825" lon="9.366487877818175"><ele>218.0</ele><time>2026-05-03T12:22:35Z</time></trkpt><trkpt lat="46.133001044736965" lon="9.36633951518632"><ele>218.0</ele><time>2026-05-03T12:22:36Z</time></trkpt><trkpt lat="46.13293912416037" lon="9.3661894098687"><ele>217.5</ele><time>2026-05-03T12:22:37Z</time></trkpt><trkpt lat="46.13288081185611" lon="9.366040648877007"><ele>217.0</ele><time>2026-05-03T12:22:38Z</time></trkpt><trkpt lat="46.13282568070961" lon="9.365887262889427"><ele>216.5</ele><time>2026-05-03T12:22:39Z</time></trkpt><trkpt lat="46.13277388809944" lon="9.365736187914901"><ele>216.0</ele><time>2026-05-03T12:22:40.001Z</time></trkpt><trkpt lat="46.132722535748165" lon="9.36559137917626"><ele>215.83333333333334</ele><time>2026-05-03T12:22:41.001Z</time></trkpt><trkpt lat="46.13267692317315" lon="9.365458164178467"><ele>215.66666666666669</ele><time>2026-05-03T12:22:42.001Z</time></trkpt><trkpt lat="46.1326347834505" lon="9.365337567197482"><ele>215.5</ele><time>2026-05-03T12:22:43.001Z</time></trkpt><trkpt lat="46.13259606678109" lon="9.365226526736278"><ele>215.33333333333334</ele><time>2026-05-03T12:22:44.001Z</time></trkpt><trkpt lat="46.1325611499404" lon="9.365123843689934"><ele>215.16666666666669</ele><time>2026-05-03T12:22:45.001Z</time></trkpt><trkpt lat="46.13252998155027" lon="9.365026141434312"><ele>215.0</ele><time>2026-05-03T12:22:46.001Z</time></trkpt><trkpt lat="46.13250588938855" lon="9.364936506769926"><ele>215.00000000000003</ele><time>2026-05-03T12:22:47.001Z</time></trkpt><trkpt lat="46.132470536468695" lon="9.364761316076633"><ele>215.0</ele><time>2026-05-03T12:22:49.001Z</time></trkpt><trkpt lat="46.132460670720874" lon="9.364670554584338"><ele>215.0</ele><time>2026-05-03T12:22:50.001Z</time></trkpt><trkpt lat="46.13243067226388" lon="9.36457658106302"><ele>215.0</ele><time>2026-05-03T12:22:50.998Z</time></trkpt><trkpt lat="46.132381316621114" lon="9.364494307080216"><ele>215.00000000000003</ele><time>2026-05-03T12:22:51.998Z</time></trkpt><trkpt lat="46.132324817343985" lon="9.36440850266473"><ele>215.0</ele><time>2026-05-03T12:22:52.998Z</time></trkpt><trkpt lat="46.132269514758185" lon="9.364313798752601"><ele>215.4</ele><time>2026-05-03T12:22:53.998Z</time></trkpt><trkpt lat="46.13222125821033" lon="9.364197174439672"><ele>215.8</ele><time>2026-05-03T12:22:54.998Z</time></trkpt><trkpt lat="46.13217615772805" lon="9.364065967575709"><ele>216.2</ele><time>2026-05-03T12:22:55.998Z</time></trkpt><trkpt lat="46.13213082531165" lon="9.36392707012195"><ele>216.6</ele><time>2026-05-03T12:22:56.998Z</time></trkpt><trkpt lat="46.132078277947805" lon="9.363782769773087"><ele>217.0</ele><time>2026-05-03T12:22:57.998Z</time></trkpt><trkpt lat="46.13202426108806" lon="9.363634218105531"><ele>216.2</ele><time>2026-05-03T12:22:58.998Z</time></trkpt><trkpt lat="46.13197314740287" lon="9.363490389665316"><ele>215.39999999999998</ele><time>2026-05-03T12:22:59.998Z</time></trkpt><trkpt lat="46.13192462448849" lon="9.363352560183339"><ele>214.60000000000002</ele><time>2026-05-03T12:23:00.998Z</time></trkpt><trkpt lat="46.13187402136805" lon="9.363213586541228"><ele>213.8</ele><time>2026-05-03T12:23:01.998Z</time></trkpt><trkpt lat="46.1318237667978" lon="9.36307302469449"><ele>213.0</ele><time>2026-05-03T12:23:02.998Z</time></trkpt><trkpt lat="46.13177268128154" lon="9.362929699380205"><ele>213.0</ele><time>2026-05-03T12:23:03.998Z</time></trkpt><trkpt lat="46.13172111182287" lon="9.362785542650197"><ele>213.0</ele><time>2026-05-03T12:23:04.998Z</time></trkpt><trkpt lat="46.13166880818437" lon="9.362637785266688"><ele>213.0</ele><time>2026-05-03T12:23:05.998Z</time></trkpt><trkpt lat="46.131613948544505" lon="9.362485690914543"><ele>213.0</ele><time>2026-05-03T12:23:06.998Z</time></trkpt><trkpt lat="46.13156000919476" lon="9.362336405427078"><ele>214.25</ele><time>2026-05-03T12:23:07.998Z</time></trkpt><trkpt lat="46.131504493141016" lon="9.36218779571546"><ele>215.5</ele><time>2026-05-03T12:23:08.998Z</time></trkpt><trkpt lat="46.131450124141125" lon="9.362034709208123"><ele>216.75</ele><time>2026-05-03T12:23:09.998Z</time></trkpt><trkpt lat="46.13139660038881" lon="9.361883474119459"><ele>218.0</ele><time>2026-05-03T12:23:10.998Z</time></trkpt><trkpt lat="46.131340993654206" lon="9.361731413267407"><ele>218.0</ele><time>2026-05-03T12:23:11.998Z</time></trkpt><trkpt lat="46.13128657374018" lon="9.361578823826479"><ele>218.0</ele><time>2026-05-03T12:23:12.998Z</time></trkpt><trkpt lat="46.131231994879066" lon="9.361425574124208"><ele>218.0</ele><time>2026-05-03T12:23:13.998Z</time></trkpt><trkpt lat="46.1311758906954" lon="9.361273226394399"><ele>218.0</ele><time>2026-05-03T12:23:14.999Z</time></trkpt><trkpt lat="46.131119670985186" lon="9.361118672869939"><ele>218.25</ele><time>2026-05-03T12:23:15.999Z</time></trkpt><trkpt lat="46.13106373050665" lon="9.360964416753523"><ele>218.5</ele><time>2026-05-03T12:23:16.999Z</time></trkpt><trkpt lat="46.13100842562215" lon="9.3608081896033"><ele>218.75</ele><time>2026-05-03T12:23:17.999Z</time></trkpt><trkpt lat="46.13095218384248" lon="9.360651715453518"><ele>219.0</ele><time>2026-05-03T12:23:18.999Z</time></trkpt><trkpt lat="46.13089618633429" lon="9.360496330458073"><ele>219.5</ele><time>2026-05-03T12:23:19.999Z</time></trkpt><trkpt lat="46.13084011623073" lon="9.360337282646578"><ele>220.0</ele><time>2026-05-03T12:23:20.999Z</time></trkpt><trkpt lat="46.13078359729713" lon="9.360179107921466"><ele>220.5</ele><time>2026-05-03T12:23:21.999Z</time></trkpt><trkpt lat="46.130725878999144" lon="9.360019934069896"><ele>221.0</ele><time>2026-05-03T12:23:22.999Z</time></trkpt><trkpt lat="46.130667807263926" lon="9.359857858219643"><ele>220.0</ele><time>2026-05-03T12:23:23.999Z</time></trkpt><trkpt lat="46.13060912605495" lon="9.359696688254703"><ele>219.0</ele><time>2026-05-03T12:23:24.999Z</time></trkpt><trkpt lat="46.13054828952391" lon="9.359531066037723"><ele>218.0</ele><time>2026-05-03T12:23:25.999Z</time></trkpt><trkpt lat="46.13048946600079" lon="9.359366709012853"><ele>217.0</ele><time>2026-05-03T12:23:26.999Z</time></trkpt><trkpt lat="46.13043084198604" lon="9.359200460214264"><ele>217.0</ele><time>2026-05-03T12:23:27.999Z</time></trkpt><trkpt lat="46.13036959949574" lon="9.35902583569963"><ele>217.0</ele><time>2026-05-03T12:23:28.999Z</time></trkpt><trkpt lat="46.13030593752125" lon="9.358844635728747"><ele>217.0</ele><time>2026-05-03T12:23:29.999Z</time></trkpt><trkpt lat="46.130241702859934" lon="9.358663974087705"><ele>217.0</ele><time>2026-05-03T12:23:30.999Z</time></trkpt><trkpt lat="46.130176732532796" lon="9.358486560908434"><ele>216.75</ele><time>2026-05-03T12:23:31.999Z</time></trkpt><trkpt lat="46.13012694219952" lon="9.358301261911013"><ele>216.5</ele><time>2026-05-03T12:23:32.999Z</time></trkpt><trkpt lat="46.13005929646436" lon="9.358123605186542"><ele>216.25</ele><time>2026-05-03T12:23:33.999Z</time></trkpt><trkpt lat="46.12998796119514" lon="9.357942649741434"><ele>216.0</ele><time>2026-05-03T12:23:34.999Z</time></trkpt><trkpt lat="46.12991434850696" lon="9.357756347409026"><ele>217.66666666666669</ele><time>2026-05-03T12:23:35.999Z</time></trkpt><trkpt lat="46.12983782855599" lon="9.357570546512912"><ele>219.33333333333334</ele><time>2026-05-03T12:23:36.999Z</time></trkpt><trkpt lat="46.12974426324802" lon="9.357401014422562"><ele>221.0</ele><time>2026-05-03T12:23:37.999Z</time></trkpt><trkpt lat="46.129658815427845" lon="9.357223507954147"><ele>220.5</ele><time>2026-05-03T12:23:38.999Z</time></trkpt><trkpt lat="46.12957160091813" lon="9.357053815482589"><ele>220.0</ele><time>2026-05-03T12:23:39.999Z</time></trkpt><trkpt lat="46.12948351639454" lon="9.356889641352543"><ele>219.5</ele><time>2026-05-03T12:23:40.999Z</time></trkpt><trkpt lat="46.129408352720105" lon="9.356719233295598"><ele>219.0</ele><time>2026-05-03T12:23:41.999Z</time></trkpt><trkpt lat="46.12932199419008" lon="9.356566885567974"><ele>219.0</ele><time>2026-05-03T12:23:42.999Z</time></trkpt><trkpt lat="46.12923308664248" lon="9.356422611816154"><ele>219.0</ele><time>2026-05-03T12:23:43.999Z</time></trkpt><trkpt lat="46.12913370206541" lon="9.356301614033905"><ele>219.0</ele><time>2026-05-03T12:23:44.999Z</time></trkpt><trkpt lat="46.1290434084776" lon="9.356174818842154"><ele>219.0</ele><time>2026-05-03T12:23:45.999Z</time></trkpt><trkpt lat="46.12895553151282" lon="9.35605734466346"><ele>219.5</ele><time>2026-05-03T12:23:46.999Z</time></trkpt><trkpt lat="46.1288637525301" lon="9.355930549703737"><ele>220.0</ele><time>2026-05-03T12:23:47.999Z</time></trkpt><trkpt lat="46.12877319226493" lon="9.355804471003333"><ele>220.5</ele><time>2026-05-03T12:23:48.999Z</time></trkpt><trkpt lat="46.128681006726254" lon="9.355679597526546"><ele>221.0</ele><time>2026-05-03T12:23:49.999Z</time></trkpt><trkpt lat="46.128588468994316" lon="9.35555687280256"><ele>221.0</ele><time>2026-05-03T12:23:50.999Z</time></trkpt><trkpt lat="46.128491795526635" lon="9.355434445091841"><ele>221.0</ele><time>2026-05-03T12:23:51.999Z</time></trkpt><trkpt lat="46.12839305172784" lon="9.355308759913953"><ele>221.0</ele><time>2026-05-03T12:23:52.999Z</time></trkpt><trkpt lat="46.12829230849757" lon="9.355182969160396"><ele>221.0</ele><time>2026-05-03T12:23:53.999Z</time></trkpt><trkpt lat="46.12819399250313" lon="9.35505847980883"><ele>221.0</ele><time>2026-05-03T12:23:54.999Z</time></trkpt><trkpt lat="46.12810109922869" lon="9.35493866039788"><ele>221.0</ele><time>2026-05-03T12:23:55.999Z</time></trkpt><trkpt lat="46.128011023634265" lon="9.354816777327233"><ele>221.0</ele><time>2026-05-03T12:23:56.999Z</time></trkpt><trkpt lat="46.12792475766353" lon="9.35470320204994"><ele>221.0</ele><time>2026-05-03T12:23:57.999Z</time></trkpt><trkpt lat="46.12783756733555" lon="9.354590979315887"><ele>220.0</ele><time>2026-05-03T12:23:58.999Z</time></trkpt><trkpt lat="46.12775062628486" lon="9.354479006061005"><ele>219.0</ele><time>2026-05-03T12:23:59.999Z</time></trkpt><trkpt lat="46.12766471614694" lon="9.354369760612903"><ele>218.0</ele><time>2026-05-03T12:24:00.999Z</time></trkpt><trkpt lat="46.12757942268063" lon="9.354260251364863"><ele>217.0</ele><time>2026-05-03T12:24:01.999Z</time></trkpt><trkpt lat="46.12749305410877" lon="9.354152225774765"><ele>217.0</ele><time>2026-05-03T12:24:03Z</time></trkpt><trkpt lat="46.12740849258928" lon="9.354044267090767"><ele>217.0</ele><time>2026-05-03T12:24:04Z</time></trkpt><trkpt lat="46.127324786269746" lon="9.353936978462471"><ele>217.0</ele><time>2026-05-03T12:24:05Z</time></trkpt><trkpt lat="46.127242929113905" lon="9.353827918399578"><ele>217.0</ele><time>2026-05-03T12:24:06Z</time></trkpt><trkpt lat="46.12716094996279" lon="9.353719265125294"><ele>217.0</ele><time>2026-05-03T12:24:07Z</time></trkpt><trkpt lat="46.12707805294493" lon="9.353611353734271"><ele>216.5</ele><time>2026-05-03T12:24:08Z</time></trkpt><trkpt lat="46.12699262627822" lon="9.353503099885804"><ele>216.0</ele><time>2026-05-03T12:24:09Z</time></trkpt><trkpt lat="46.12690735799816" lon="9.353393347237972"><ele>215.5</ele><time>2026-05-03T12:24:10Z</time></trkpt><trkpt lat="46.12682217647622" lon="9.35328205725741"><ele>215.0</ele><time>2026-05-03T12:24:11Z</time></trkpt><trkpt lat="46.12673565625285" lon="9.353172495879294"><ele>215.0</ele><time>2026-05-03T12:24:12Z</time></trkpt><trkpt lat="46.12664974382664" lon="9.353063041931264"><ele>215.0</ele><time>2026-05-03T12:24:13Z</time></trkpt><trkpt lat="46.126564895125206" lon="9.352954289361618"><ele>215.0</ele><time>2026-05-03T12:24:14Z</time></trkpt><trkpt lat="46.1264790204774" lon="9.352843586039295"><ele>215.0</ele><time>2026-05-03T12:24:15Z</time></trkpt><trkpt lat="46.12639200625763" lon="9.352733239809064"><ele>214.5</ele><time>2026-05-03T12:24:16Z</time></trkpt><trkpt lat="46.126304380860226" lon="9.352622468280883"><ele>214.0</ele><time>2026-05-03T12:24:17Z</time></trkpt><trkpt lat="46.12621693461896" lon="9.352511289029373"><ele>213.5</ele><time>2026-05-03T12:24:18Z</time></trkpt><trkpt lat="46.12612833546834" lon="9.352397640522485"><ele>213.0</ele><time>2026-05-03T12:24:19Z</time></trkpt><trkpt lat="46.126037514496815" lon="9.35228004240497"><ele>212.75</ele><time>2026-05-03T12:24:20Z</time></trkpt><trkpt lat="46.12594345194307" lon="9.352158918410712"><ele>212.5</ele><time>2026-05-03T12:24:21Z</time></trkpt><trkpt lat="46.12584828665499" lon="9.352035738391747"><ele>212.25</ele><time>2026-05-03T12:24:22Z</time></trkpt><trkpt lat="46.12574751837279" lon="9.351899411388423"><ele>212.0</ele><time>2026-05-03T12:24:23Z</time></trkpt><trkpt lat="46.12564287883743" lon="9.351763141647831"><ele>212.0</ele><time>2026-05-03T12:24:24Z</time></trkpt><trkpt lat="46.1255389046956" lon="9.351629563172674"><ele>212.0</ele><time>2026-05-03T12:24:25Z</time></trkpt><trkpt lat="46.1254363773507" lon="9.351499288369713"><ele>212.0</ele><time>2026-05-03T12:24:26Z</time></trkpt><trkpt lat="46.12533906119955" lon="9.351374740384932"><ele>212.0</ele><time>2026-05-03T12:24:27Z</time></trkpt><trkpt lat="46.12524147221593" lon="9.351252558578658"><ele>212.0</ele><time>2026-05-03T12:24:28Z</time></trkpt><trkpt lat="46.125139163710344" lon="9.351144401464534"><ele>212.0</ele><time>2026-05-03T12:24:29Z</time></trkpt><trkpt lat="46.12502414267763" lon="9.351063405515703"><ele>212.0</ele><time>2026-05-03T12:24:30Z</time></trkpt><trkpt lat="46.124897732298635" lon="9.350994987525793"><ele>212.0</ele><time>2026-05-03T12:24:31Z</time></trkpt><trkpt lat="46.12476403455532" lon="9.350941542111766"><ele>212.25</ele><time>2026-05-03T12:24:32Z</time></trkpt><trkpt lat="46.12462301654988" lon="9.350885618433848"><ele>212.5</ele><time>2026-05-03T12:24:33Z</time></trkpt><trkpt lat="46.12448436936125" lon="9.35083239950888"><ele>212.75</ele><time>2026-05-03T12:24:34Z</time></trkpt><trkpt lat="46.124347553686974" lon="9.35077822018628"><ele>213.0</ele><time>2026-05-03T12:24:35Z</time></trkpt><trkpt lat="46.12421245298734" lon="9.350722710403355"><ele>213.0</ele><time>2026-05-03T12:24:36Z</time></trkpt><trkpt lat="46.12408051337787" lon="9.350669181786438"><ele>213.0</ele><time>2026-05-03T12:24:37Z</time></trkpt><trkpt lat="46.12395082470847" lon="9.35061711323824"><ele>213.0</ele><time>2026-05-03T12:24:38Z</time></trkpt><trkpt lat="46.12382212927892" lon="9.350564703532683"><ele>213.0</ele><time>2026-05-03T12:24:39Z</time></trkpt><trkpt lat="46.123696827781444" lon="9.350514283912423"><ele>212.75</ele><time>2026-05-03T12:24:40Z</time></trkpt><trkpt lat="46.1235722712433" lon="9.350463932424741"><ele>212.5</ele><time>2026-05-03T12:24:41Z</time></trkpt><trkpt lat="46.12344930765295" lon="9.350416366150165"><ele>212.25</ele><time>2026-05-03T12:24:42Z</time></trkpt><trkpt lat="46.12332591367125" lon="9.350366009339947"><ele>212.0</ele><time>2026-05-03T12:24:43Z</time></trkpt><trkpt lat="46.12319955154491" lon="9.35031747568034"><ele>212.0</ele><time>2026-05-03T12:24:44Z</time></trkpt><trkpt lat="46.12307538958081" lon="9.350271245479533"><ele>212.0</ele><time>2026-05-03T12:24:45Z</time></trkpt><trkpt lat="46.12294898854953" lon="9.3502232293734"><ele>212.0</ele><time>2026-05-03T12:24:46Z</time></trkpt><trkpt lat="46.12282062837599" lon="9.35017623864276"><ele>212.0</ele><time>2026-05-03T12:24:47Z</time></trkpt><trkpt lat="46.12268651459881" lon="9.350121763380265"><ele>212.0</ele><time>2026-05-03T12:24:48Z</time></trkpt><trkpt lat="46.12254590907686" lon="9.350067279355175"><ele>212.0</ele><time>2026-05-03T12:24:49Z</time></trkpt><trkpt lat="46.12239744923585" lon="9.350011813607901"><ele>212.0</ele><time>2026-05-03T12:24:50Z</time></trkpt><trkpt lat="46.122247433728994" lon="9.349957556204263"><ele>212.33333333333334</ele><time>2026-05-03T12:24:51Z</time></trkpt><trkpt lat="46.1220977559889" lon="9.349899244576445"><ele>212.66666666666669</ele><time>2026-05-03T12:24:52Z</time></trkpt><trkpt lat="46.121952016630196" lon="9.34984313456741"><ele>213.0</ele><time>2026-05-03T12:24:53Z</time></trkpt><trkpt lat="46.121809622262234" lon="9.349787273485829"><ele>213.0</ele><time>2026-05-03T12:24:54Z</time></trkpt><trkpt lat="46.12167058763874" lon="9.349734028591119"><ele>213.0</ele><time>2026-05-03T12:24:55Z</time></trkpt><trkpt lat="46.12153320049766" lon="9.349679227811686"><ele>213.0</ele><time>2026-05-03T12:24:56Z</time></trkpt><trkpt lat="46.12140040184809" lon="9.349626316155192"><ele>213.0</ele><time>2026-05-03T12:24:56.997Z</time></trkpt><trkpt lat="46.12126866265675" lon="9.349571557758424"><ele>212.25</ele><time>2026-05-03T12:24:57.997Z</time></trkpt><trkpt lat="46.12114110115619" lon="9.34952011632849"><ele>211.5</ele><time>2026-05-03T12:24:58.997Z</time></trkpt><trkpt lat="46.121019432082335" lon="9.349473577721422"><ele>210.75</ele><time>2026-05-03T12:24:59.997Z</time></trkpt><trkpt lat="46.12090525373964" lon="9.349430041144203"><ele>210.0</ele><time>2026-05-03T12:25:00.997Z</time></trkpt><trkpt lat="46.12079429155602" lon="9.349386642995519"><ele>210.6</ele><time>2026-05-03T12:25:01.997Z</time></trkpt><trkpt lat="46.12068776564842" lon="9.349341932247924"><ele>211.2</ele><time>2026-05-03T12:25:02.997Z</time></trkpt><trkpt lat="46.120582745784354" lon="9.349299793685784"><ele>211.8</ele><time>2026-05-03T12:25:03.997Z</time></trkpt><trkpt lat="46.1204830414546" lon="9.349261206716596"><ele>212.4</ele><time>2026-05-03T12:25:04.997Z</time></trkpt><trkpt lat="46.12038692538515" lon="9.349225864726852"><ele>213.0</ele><time>2026-05-03T12:25:05.998Z</time></trkpt><trkpt lat="46.120290250698396" lon="9.349189436286034"><ele>213.0</ele><time>2026-05-03T12:25:06.998Z</time></trkpt><trkpt lat="46.12019291811595" lon="9.349158294635245"><ele>213.0</ele><time>2026-05-03T12:25:07.998Z</time></trkpt><trkpt lat="46.12009641882073" lon="9.349132869812658"><ele>213.0</ele><time>2026-05-03T12:25:08.998Z</time></trkpt><trkpt lat="46.12000390252627" lon="9.349114260681693"><ele>213.0</ele><time>2026-05-03T12:25:09.998Z</time></trkpt><trkpt lat="46.11991651241807" lon="9.349100084386647"><ele>213.0</ele><time>2026-05-03T12:25:10.998Z</time></trkpt><trkpt lat="46.11983312276139" lon="9.349085438486426"><ele>213.0</ele><time>2026-05-03T12:25:11.998Z</time></trkpt><trkpt lat="46.11975048810849" lon="9.349065488514814"><ele>213.0</ele><time>2026-05-03T12:25:12.998Z</time></trkpt><trkpt lat="46.11967068538616" lon="9.349030291791848"><ele>213.0</ele><time>2026-05-03T12:25:13.998Z</time></trkpt><trkpt lat="46.119592177483206" lon="9.348983767414312"><ele>213.0</ele><time>2026-05-03T12:25:14.998Z</time></trkpt><trkpt lat="46.119505747525544" lon="9.348941523404044"><ele>213.0</ele><time>2026-05-03T12:25:15.998Z</time></trkpt><trkpt lat="46.119415467707974" lon="9.34891253021653"><ele>213.0</ele><time>2026-05-03T12:25:16.998Z</time></trkpt><trkpt lat="46.11932444030585" lon="9.348873658531426"><ele>212.66666666666666</ele><time>2026-05-03T12:25:17.998Z</time></trkpt><trkpt lat="46.11924495349477" lon="9.348832550813036"><ele>212.33333333333331</ele><time>2026-05-03T12:25:18.998Z</time></trkpt><trkpt lat="46.11917273846323" lon="9.348792147719582"><ele>212.0</ele><time>2026-05-03T12:25:19.998Z</time></trkpt><trkpt lat="46.119098692511535" lon="9.348749651397721"><ele>211.66666666666666</ele><time>2026-05-03T12:25:20.998Z</time></trkpt><trkpt lat="46.1190221750572" lon="9.348713267391897"><ele>211.33333333333331</ele><time>2026-05-03T12:25:21.998Z</time></trkpt><trkpt lat="46.118940637910875" lon="9.348680754126734"><ele>211.0</ele><time>2026-05-03T12:25:22.998Z</time></trkpt><trkpt lat="46.11885201962156" lon="9.348645058180931"><ele>210.8</ele><time>2026-05-03T12:25:23.998Z</time></trkpt><trkpt lat="46.11874786778973" lon="9.348612213345541"><ele>210.60000000000002</ele><time>2026-05-03T12:25:24.998Z</time></trkpt><trkpt lat="46.11863637309486" lon="9.34858409450408"><ele>210.4</ele><time>2026-05-03T12:25:25.998Z</time></trkpt><trkpt lat="46.118520987933174" lon="9.348563799436345"><ele>210.2</ele><time>2026-05-03T12:25:26.999Z</time></trkpt><trkpt lat="46.118409122465486" lon="9.348549481060589"><ele>210.0</ele><time>2026-05-03T12:25:27.999Z</time></trkpt><trkpt lat="46.11829817322779" lon="9.348538033656771"><ele>211.0</ele><time>2026-05-03T12:25:28.999Z</time></trkpt><trkpt lat="46.118184970877145" lon="9.34852522028016"><ele>212.0</ele><time>2026-05-03T12:25:29.999Z</time></trkpt><trkpt lat="46.11807123001006" lon="9.3485131610279"><ele>213.0</ele><time>2026-05-03T12:25:30.999Z</time></trkpt><trkpt lat="46.11795717700688" lon="9.348506336161034"><ele>214.0</ele><time>2026-05-03T12:25:31.999Z</time></trkpt><trkpt lat="46.11785029954983" lon="9.348499501842573"><ele>215.0</ele><time>2026-05-03T12:25:32.999Z</time></trkpt><trkpt lat="46.1177458704401" lon="9.34848778202416"><ele>215.0</ele><time>2026-05-03T12:25:33.999Z</time></trkpt><trkpt lat="46.11764694567445" lon="9.348473632295605"><ele>215.0</ele><time>2026-05-03T12:25:34.999Z</time></trkpt><trkpt lat="46.11755134608627" lon="9.34844796256612"><ele>215.0</ele><time>2026-05-03T12:25:35.999Z</time></trkpt><trkpt lat="46.11745882262301" lon="9.34840357040362"><ele>215.0</ele><time>2026-05-03T12:25:36.999Z</time></trkpt><trkpt lat="46.117371030237145" lon="9.348331964816172"><ele>215.0</ele><time>2026-05-03T12:25:37.999Z</time></trkpt><trkpt lat="46.11729922791108" lon="9.348227173174209"><ele>220.0</ele><time>2026-05-03T12:25:38.999Z</time></trkpt><trkpt lat="46.11724253487234" lon="9.348103999972949"><ele>225.0</ele><time>2026-05-03T12:25:39.999Z</time></trkpt><trkpt lat="46.11721317083949" lon="9.347952379533197"><ele>230.0</ele><time>2026-05-03T12:25:40.999Z</time></trkpt><trkpt lat="46.117207352217875" lon="9.347792880744226"><ele>235.0</ele><time>2026-05-03T12:25:41.999Z</time></trkpt><trkpt lat="46.11722102443563" lon="9.347639691711235"><ele>240.0</ele><time>2026-05-03T12:25:42.999Z</time></trkpt><trkpt lat="46.11724323685272" lon="9.34749430448038"><ele>240.0</ele><time>2026-05-03T12:25:43.999Z</time></trkpt><trkpt lat="46.117252935888764" lon="9.347365622257902"><ele>240.0</ele><time>2026-05-03T12:25:44.999Z</time></trkpt><trkpt lat="46.11725115861131" lon="9.347235426939083"><ele>240.0</ele><time>2026-05-03T12:25:45.999Z</time></trkpt><trkpt lat="46.11724879586123" lon="9.347111781862305"><ele>240.0</ele><time>2026-05-03T12:25:46.999Z</time></trkpt><trkpt lat="46.117249975774556" lon="9.346999284599814"><ele>240.0</ele><time>2026-05-03T12:25:47.999Z</time></trkpt><trkpt lat="46.11726452967975" lon="9.346906496969929"><ele>240.0</ele><time>2026-05-03T12:25:48.999Z</time></trkpt><trkpt lat="46.11732932005809" lon="9.346765787871442"><ele>232.6</ele><time>2026-05-03T12:25:50.999Z</time></trkpt><trkpt lat="46.11741273852635" lon="9.346678749687088"><ele>225.2</ele><time>2026-05-03T12:25:52.999Z</time></trkpt><trkpt lat="46.11748374413312" lon="9.34671116632058"><ele>217.8</ele><time>2026-05-03T12:25:53.999Z</time></trkpt><trkpt lat="46.11757282258838" lon="9.346728238661441"><ele>210.4</ele><time>2026-05-03T12:25:55.999Z</time></trkpt><trkpt lat="46.117669536046336" lon="9.346765788002164"><ele>203.0</ele><time>2026-05-03T12:25:57.999Z</time></trkpt><trkpt lat="46.11777104475769" lon="9.346798890285765"><ele>203.00000000000003</ele><time>2026-05-03T12:25:59.999Z</time></trkpt><trkpt lat="46.11783101892872" lon="9.346839239307267"><ele>203.0</ele><time>2026-05-03T12:26:02.999Z</time></trkpt><trkpt lat="46.1177681202647" lon="9.346770792366838"><ele>203.0</ele><time>2026-05-03T12:28:35Z</time></trkpt><trkpt lat="46.11768821211407" lon="9.346742841831205"><ele>203.0</ele><time>2026-05-03T12:28:37Z</time></trkpt><trkpt lat="46.117611510001296" lon="9.346738571469656"><ele>203.00000000000003</ele><time>2026-05-03T12:28:39Z</time></trkpt><trkpt lat="46.117533701546606" lon="9.346718750176022"><ele>203.0</ele><time>2026-05-03T12:28:42.001Z</time></trkpt><trkpt lat="46.11744626332788" lon="9.34669856085708"><ele>206.50000000000003</ele><time>2026-05-03T12:28:44.001Z</time></trkpt><trkpt lat="46.11738186887862" lon="9.346712593229384"><ele>210.0</ele><time>2026-05-03T12:28:45.001Z</time></trkpt><trkpt lat="46.11731657424083" lon="9.346716281865705"><ele>213.5</ele><time>2026-05-03T12:28:46.001Z</time></trkpt><trkpt lat="46.117244825233364" lon="9.346793781868884"><ele>217.0</ele><time>2026-05-03T12:28:48.001Z</time></trkpt><trkpt lat="46.1172147617799" lon="9.346933458460041"><ele>220.50000000000003</ele><time>2026-05-03T12:28:51.001Z</time></trkpt><trkpt lat="46.1171317877773" lon="9.346828371640422"><ele>224.0</ele><time>2026-05-03T12:28:52.001Z</time></trkpt><trkpt lat="46.117185091990834" lon="9.347090251174606"><ele>224.00000000000003</ele><time>2026-05-03T12:28:53.001Z</time></trkpt><trkpt lat="46.117188769202926" lon="9.34719736768616"><ele>224.0</ele><time>2026-05-03T12:28:54.001Z</time></trkpt><trkpt lat="46.11718719557238" lon="9.347311829053046"><ele>224.0</ele><time>2026-05-03T12:28:55.001Z</time></trkpt><trkpt lat="46.117175378677224" lon="9.347428905071496"><ele>224.0</ele><time>2026-05-03T12:28:56.001Z</time></trkpt><trkpt lat="46.11715738227097" lon="9.347546572999196"><ele>224.00000000000003</ele><time>2026-05-03T12:28:57.001Z</time></trkpt><trkpt lat="46.11713905531269" lon="9.34765428734345"><ele>224.0</ele><time>2026-05-03T12:28:58.001Z</time></trkpt><trkpt lat="46.117127040306634" lon="9.347753474137148"><ele>226.66666666666669</ele><time>2026-05-03T12:28:59.001Z</time></trkpt><trkpt lat="46.11712394984406" lon="9.347854175197634"><ele>229.33333333333334</ele><time>2026-05-03T12:29:00.001Z</time></trkpt><trkpt lat="46.1171363914376" lon="9.34795829002597"><ele>232.0</ele><time>2026-05-03T12:29:01.001Z</time></trkpt><trkpt lat="46.117166819111745" lon="9.348081430306653"><ele>234.66666666666669</ele><time>2026-05-03T12:29:02.001Z</time></trkpt><trkpt lat="46.117214375825135" lon="9.348216513675586"><ele>237.33333333333334</ele><time>2026-05-03T12:29:03.001Z</time></trkpt><trkpt lat="46.11727209917215" lon="9.348344021611844"><ele>240.0</ele><time>2026-05-03T12:29:04.001Z</time></trkpt><trkpt lat="46.1173539399082" lon="9.34843693568463"><ele>235.0</ele><time>2026-05-03T12:29:05.001Z</time></trkpt><trkpt lat="46.11744800079198" lon="9.348498686789796"><ele>230.0</ele><time>2026-05-03T12:29:06.001Z</time></trkpt><trkpt lat="46.11754379395305" lon="9.348529853616071"><ele>225.0</ele><time>2026-05-03T12:29:07.001Z</time></trkpt><trkpt lat="46.11764314176512" lon="9.348541633410209"><ele>220.0</ele><time>2026-05-03T12:29:08.001Z</time></trkpt><trkpt lat="46.11774182463759" lon="9.348545370175882"><ele>215.0</ele><time>2026-05-03T12:29:08.998Z</time></trkpt><trkpt lat="46.11784134421138" lon="9.348549078688126"><ele>215.0</ele><time>2026-05-03T12:29:09.998Z</time></trkpt><trkpt lat="46.11794388870943" lon="9.348559101548751"><ele>215.0</ele><time>2026-05-03T12:29:10.998Z</time></trkpt><trkpt lat="46.11804846233317" lon="9.348572336522038"><ele>215.0</ele><time>2026-05-03T12:29:11.998Z</time></trkpt><trkpt lat="46.118153202236186" lon="9.348581299132677"><ele>215.0</ele><time>2026-05-03T12:29:12.999Z</time></trkpt><trkpt lat="46.118259625373256" lon="9.348587513867065"><ele>215.0</ele><time>2026-05-03T12:29:13.999Z</time></trkpt><trkpt lat="46.118366870748886" lon="9.348597080177619"><ele>214.0</ele><time>2026-05-03T12:29:14.999Z</time></trkpt><trkpt lat="46.11847333807976" lon="9.348608915073463"><ele>213.0</ele><time>2026-05-03T12:29:15.999Z</time></trkpt><trkpt lat="46.11857984883662" lon="9.348624143377195"><ele>212.0</ele><time>2026-05-03T12:29:16.999Z</time></trkpt><trkpt lat="46.11868612491564" lon="9.348648140363583"><ele>211.0</ele><time>2026-05-03T12:29:17.999Z</time></trkpt><trkpt lat="46.11879568477482" lon="9.34868397628809"><ele>210.0</ele><time>2026-05-03T12:29:18.999Z</time></trkpt><trkpt lat="46.11892569574479" lon="9.348728515219063"><ele>210.0</ele><time>2026-05-03T12:29:19.999Z</time></trkpt><trkpt lat="46.11905646489589" lon="9.3487827283553"><ele>210.0</ele><time>2026-05-03T12:29:20.999Z</time></trkpt><trkpt lat="46.11916920547978" lon="9.348838600480972"><ele>210.0</ele><time>2026-05-03T12:29:21.999Z</time></trkpt><trkpt lat="46.11926493080471" lon="9.348906494513518"><ele>210.0</ele><time>2026-05-03T12:29:22.999Z</time></trkpt><trkpt lat="46.119322740047366" lon="9.348984860214113"><ele>210.0</ele><time>2026-05-03T12:29:23.999Z</time></trkpt><trkpt lat="46.11934940333944" lon="9.349074006828614"><ele>210.5</ele><time>2026-05-03T12:29:24.999Z</time></trkpt><trkpt lat="46.11937492777229" lon="9.349158793929442"><ele>211.0</ele><time>2026-05-03T12:29:25.999Z</time></trkpt><trkpt lat="46.11937851286394" lon="9.349280525718234"><ele>211.5</ele><time>2026-05-03T12:29:26.999Z</time></trkpt><trkpt lat="46.11942156646877" lon="9.349349878522204"><ele>212.0</ele><time>2026-05-03T12:29:27.999Z</time></trkpt><trkpt lat="46.11953140385195" lon="9.349394576187247"><ele>212.5</ele><time>2026-05-03T12:29:29.999Z</time></trkpt><trkpt lat="46.11959128387593" lon="9.349352068594412"><ele>213.0</ele><time>2026-05-03T12:29:30.999Z</time></trkpt><trkpt lat="46.119634593400555" lon="9.34927813113344"><ele>213.0</ele><time>2026-05-03T12:29:31.999Z</time></trkpt><trkpt lat="46.11965098546077" lon="9.34918358765156"><ele>213.0</ele><time>2026-05-03T12:29:33Z</time></trkpt><trkpt lat="46.1196356196726" lon="9.349086220267168"><ele>213.0</ele><time>2026-05-03T12:29:34Z</time></trkpt><trkpt lat="46.11957381719663" lon="9.34898091680893"><ele>213.0</ele><time>2026-05-03T12:29:35Z</time></trkpt><trkpt lat="46.119483969744635" lon="9.348909675235618"><ele>213.0</ele><time>2026-05-03T12:29:36Z</time></trkpt><trkpt lat="46.119365834233264" lon="9.348875575326899"><ele>212.5</ele><time>2026-05-03T12:29:37Z</time></trkpt><trkpt lat="46.119227588671265" lon="9.348842892787836"><ele>212.0</ele><time>2026-05-03T12:29:38Z</time></trkpt><trkpt lat="46.119093607179686" lon="9.348751036442092"><ele>211.5</ele><time>2026-05-03T12:29:39Z</time></trkpt><trkpt lat="46.11897120374297" lon="9.348707542967924"><ele>211.0</ele><time>2026-05-03T12:29:40Z</time></trkpt><trkpt lat="46.11885374106833" lon="9.348654610734576"><ele>210.75</ele><time>2026-05-03T12:29:41Z</time></trkpt><trkpt lat="46.118736301895375" lon="9.348614604717781"><ele>210.5</ele><time>2026-05-03T12:29:42Z</time></trkpt><trkpt lat="46.11861575045001" lon="9.34858356214451"><ele>210.25</ele><time>2026-05-03T12:29:43Z</time></trkpt><trkpt lat="46.11849271159327" lon="9.348563290654647"><ele>210.0</ele><time>2026-05-03T12:29:44Z</time></trkpt><trkpt lat="46.11837086707785" lon="9.348548123114254"><ele>210.0</ele><time>2026-05-03T12:29:45Z</time></trkpt><trkpt lat="46.118253433990475" lon="9.34853606395304"><ele>210.0</ele><time>2026-05-03T12:29:46Z</time></trkpt><trkpt lat="46.11813998674993" lon="9.34852460145678"><ele>210.0</ele><time>2026-05-03T12:29:47Z</time></trkpt><trkpt lat="46.11803338760388" lon="9.348515123011243"><ele>210.0</ele><time>2026-05-03T12:29:48Z</time></trkpt><trkpt lat="46.11793335831189" lon="9.348502955217004"><ele>210.0</ele><time>2026-05-03T12:29:49Z</time></trkpt><trkpt lat="46.1178394178611" lon="9.34849480175479"><ele>210.83333333333334</ele><time>2026-05-03T12:29:50Z</time></trkpt><trkpt lat="46.11775272244168" lon="9.34848578168499"><ele>211.66666666666669</ele><time>2026-05-03T12:29:51Z</time></trkpt><trkpt lat="46.117668160268884" lon="9.348478749415479"><ele>212.5</ele><time>2026-05-03T12:29:52Z</time></trkpt><trkpt lat="46.11758872485403" lon="9.34846374470147"><ele>213.33333333333334</ele><time>2026-05-03T12:29:53Z</time></trkpt><trkpt lat="46.11751253009065" lon="9.348436784635926"><ele>214.16666666666669</ele><time>2026-05-03T12:29:54Z</time></trkpt><trkpt lat="46.11743994939666" lon="9.348397540829966"><ele>215.0</ele><time>2026-05-03T12:29:55Z</time></trkpt><trkpt lat="46.11737699054795" lon="9.348335873900453"><ele>219.16666666666669</ele><time>2026-05-03T12:29:56Z</time></trkpt><trkpt lat="46.117315966831775" lon="9.34825294913253"><ele>223.33333333333334</ele><time>2026-05-03T12:29:57Z</time></trkpt><trkpt lat="46.11726922194653" lon="9.34816107800476"><ele>227.5</ele><time>2026-05-03T12:29:58Z</time></trkpt><trkpt lat="46.11723438586986" lon="9.348055958338774"><ele>231.66666666666669</ele><time>2026-05-03T12:29:59Z</time></trkpt><trkpt lat="46.117213181679844" lon="9.347938895155057"><ele>235.83333333333334</ele><time>2026-05-03T12:30:00Z</time></trkpt><trkpt lat="46.117205086904235" lon="9.347812334432444"><ele>240.0</ele><time>2026-05-03T12:30:01Z</time></trkpt><trkpt lat="46.11721510710292" lon="9.34768747980507"><ele>240.0</ele><time>2026-05-03T12:30:02.001Z</time></trkpt><trkpt lat="46.117228983628976" lon="9.347558116242618"><ele>240.0</ele><time>2026-05-03T12:30:03.001Z</time></trkpt><trkpt lat="46.11723806245615" lon="9.347418977460146"><ele>240.0</ele><time>2026-05-03T12:30:04.001Z</time></trkpt><trkpt lat="46.11723533383699" lon="9.347266417157455"><ele>240.0</ele><time>2026-05-03T12:30:05.001Z</time></trkpt><trkpt lat="46.117224089970755" lon="9.347111124898909"><ele>240.0</ele><time>2026-05-03T12:30:06.001Z</time></trkpt><trkpt lat="46.11719919962443" lon="9.346953359097057"><ele>236.0</ele><time>2026-05-03T12:30:07.001Z</time></trkpt><trkpt lat="46.11715695673237" lon="9.346797178327666"><ele>232.0</ele><time>2026-05-03T12:30:08.001Z</time></trkpt><trkpt lat="46.11710046944961" lon="9.346643790246299"><ele>228.0</ele><time>2026-05-03T12:30:09.001Z</time></trkpt><trkpt lat="46.11702284560848" lon="9.346500540645682"><ele>224.0</ele><time>2026-05-03T12:30:10.001Z</time></trkpt><trkpt lat="46.116937692390344" lon="9.346361668884137"><ele>220.0</ele><time>2026-05-03T12:30:11.001Z</time></trkpt><trkpt lat="46.116850645216246" lon="9.346235908993123"><ele>216.0</ele><time>2026-05-03T12:30:12.001Z</time></trkpt><trkpt lat="46.116771414865646" lon="9.346113116867556"><ele>212.0</ele><time>2026-05-03T12:30:13.001Z</time></trkpt><trkpt lat="46.11669924389623" lon="9.345986946477874"><ele>208.0</ele><time>2026-05-03T12:30:14.001Z</time></trkpt><trkpt lat="46.11663136317225" lon="9.345857717121213"><ele>208.0</ele><time>2026-05-03T12:30:15.001Z</time></trkpt><trkpt lat="46.11657039766253" lon="9.345733350295081"><ele>208.0</ele><time>2026-05-03T12:30:16.001Z</time></trkpt><trkpt lat="46.11651724930316" lon="9.345608905777388"><ele>208.0</ele><time>2026-05-03T12:30:17.001Z</time></trkpt><trkpt lat="46.11646982048875" lon="9.345475433294075"><ele>208.0</ele><time>2026-05-03T12:30:18.001Z</time></trkpt><trkpt lat="46.11642915966459" lon="9.34533589794866"><ele>208.0</ele><time>2026-05-03T12:30:19.001Z</time></trkpt><trkpt lat="46.11639705072215" lon="9.345188630484742"><ele>212.60000000000002</ele><time>2026-05-03T12:30:20.001Z</time></trkpt><trkpt lat="46.116373172732175" lon="9.34503754788643"><ele>217.20000000000002</ele><time>2026-05-03T12:30:21.001Z</time></trkpt><trkpt lat="46.116356372359505" lon="9.34487887794165"><ele>221.8</ele><time>2026-05-03T12:30:22.001Z</time></trkpt><trkpt lat="46.11634028511026" lon="9.344719883287802"><ele>226.4</ele><time>2026-05-03T12:30:23.001Z</time></trkpt><trkpt lat="46.116325525493906" lon="9.344556683358903"><ele>231.0</ele><time>2026-05-03T12:30:24.001Z</time></trkpt><trkpt lat="46.116310594492866" lon="9.34439282451104"><ele>231.0</ele><time>2026-05-03T12:30:25.001Z</time></trkpt><trkpt lat="46.11629551209046" lon="9.344222913683279"><ele>231.0</ele><time>2026-05-03T12:30:26.001Z</time></trkpt><trkpt lat="46.11628204895537" lon="9.34405303538171"><ele>231.0</ele><time>2026-05-03T12:30:27.001Z</time></trkpt><trkpt lat="46.11626873403978" lon="9.34388089008981"><ele>231.0</ele><time>2026-05-03T12:30:28.001Z</time></trkpt><trkpt lat="46.116253584455315" lon="9.34370439774888"><ele>231.5</ele><time>2026-05-03T12:30:29.001Z</time></trkpt><trkpt lat="46.116232513144155" lon="9.343527308474027"><ele>232.0</ele><time>2026-05-03T12:30:30.001Z</time></trkpt><trkpt lat="46.11621213027988" lon="9.343346936159765"><ele>232.5</ele><time>2026-05-03T12:30:31.001Z</time></trkpt><trkpt lat="46.11619689571956" lon="9.343163820934059"><ele>233.0</ele><time>2026-05-03T12:30:32.001Z</time></trkpt><trkpt lat="46.11618635053984" lon="9.342979280384688"><ele>235.25</ele><time>2026-05-03T12:30:33.001Z</time></trkpt><trkpt lat="46.11618385742967" lon="9.342792582223801"><ele>237.5</ele><time>2026-05-03T12:30:34.001Z</time></trkpt><trkpt lat="46.11618634882364" lon="9.342594784660465"><ele>239.75</ele><time>2026-05-03T12:30:35.001Z</time></trkpt><trkpt lat="46.11620112999942" lon="9.342395798139938"><ele>242.0</ele><time>2026-05-03T12:30:36.001Z</time></trkpt><trkpt lat="46.116224394942144" lon="9.342193937587563"><ele>244.25</ele><time>2026-05-03T12:30:37.001Z</time></trkpt><trkpt lat="46.116259361108604" lon="9.341991414859432"><ele>246.5</ele><time>2026-05-03T12:30:38.001Z</time></trkpt><trkpt lat="46.11632321790389" lon="9.341802964703076"><ele>248.75</ele><time>2026-05-03T12:30:39.001Z</time></trkpt><trkpt lat="46.11638145414114" lon="9.341592130675092"><ele>251.0</ele><time>2026-05-03T12:30:40.001Z</time></trkpt><trkpt lat="46.11643980686084" lon="9.341381535714287"><ele>257.33333333333337</ele><time>2026-05-03T12:30:41.002Z</time></trkpt><trkpt lat="46.116488951594434" lon="9.341175017389556"><ele>263.6666666666667</ele><time>2026-05-03T12:30:42.002Z</time></trkpt><trkpt lat="46.11654360420541" lon="9.340935416768907"><ele>270.0</ele><time>2026-05-03T12:30:43.002Z</time></trkpt><trkpt lat="46.1166034299752" lon="9.34068360358387"><ele>255.0</ele><time>2026-05-03T12:30:44.002Z</time></trkpt><trkpt lat="46.116663089631416" lon="9.340437482235817"><ele>240.0</ele><time>2026-05-03T12:30:45.002Z</time></trkpt><trkpt lat="46.11673351865027" lon="9.340166017349402"><ele>225.0</ele><time>2026-05-03T12:30:46.002Z</time></trkpt><trkpt lat="46.11679528495054" lon="9.33987861106769"><ele>229.0</ele><time>2026-05-03T12:30:47.002Z</time></trkpt><trkpt lat="46.11684405248191" lon="9.339597420314483"><ele>233.0</ele><time>2026-05-03T12:30:48.002Z</time></trkpt><trkpt lat="46.11689318100701" lon="9.3393042358402"><ele>237.0</ele><time>2026-05-03T12:30:49.002Z</time></trkpt><trkpt lat="46.11693874504109" lon="9.339002242988228"><ele>238.5</ele><time>2026-05-03T12:30:50.002Z</time></trkpt><trkpt lat="46.11696637677627" lon="9.338662384503927"><ele>240.0</ele><time>2026-05-03T12:30:51.002Z</time></trkpt><trkpt lat="46.11696346176334" lon="9.338348332376727"><ele>240.0</ele><time>2026-05-03T12:30:52.002Z</time></trkpt><trkpt lat="46.116972333064346" lon="9.338052824037602"><ele>240.0</ele><time>2026-05-03T12:30:53.002Z</time></trkpt><trkpt lat="46.116984621179355" lon="9.337796322146902"><ele>240.0</ele><time>2026-05-03T12:30:54.002Z</time></trkpt><trkpt lat="46.116944300375096" lon="9.33754539825955"><ele>238.0</ele><time>2026-05-03T12:30:55.002Z</time></trkpt><trkpt lat="46.11686948276121" lon="9.337284826440367"><ele>236.0</ele><time>2026-05-03T12:30:56.002Z</time></trkpt><trkpt lat="46.116778764767346" lon="9.337018857114534"><ele>234.0</ele><time>2026-05-03T12:30:57.002Z</time></trkpt><trkpt lat="46.11667419551657" lon="9.336754475796232"><ele>248.5</ele><time>2026-05-03T12:30:58.002Z</time></trkpt><trkpt lat="46.11656200365662" lon="9.336480324727829"><ele>263.0</ele><time>2026-05-03T12:30:59.002Z</time></trkpt><trkpt lat="46.116438418759685" lon="9.336202421638378"><ele>263.0</ele><time>2026-05-03T12:31:00.002Z</time></trkpt><trkpt lat="46.11630679970511" lon="9.335925754878964"><ele>263.0</ele><time>2026-05-03T12:31:01.002Z</time></trkpt><trkpt lat="46.11616434049728" lon="9.33566134863714"><ele>256.0</ele><time>2026-05-03T12:31:02.002Z</time></trkpt><trkpt lat="46.11604700125958" lon="9.335421362516815"><ele>249.0</ele><time>2026-05-03T12:31:03.002Z</time></trkpt><trkpt lat="46.11596642957292" lon="9.335217081895347"><ele>242.0</ele><time>2026-05-03T12:31:04.002Z</time></trkpt><trkpt lat="46.11592285031453" lon="9.33501478219628"><ele>242.0</ele><time>2026-05-03T12:31:05.002Z</time></trkpt><trkpt lat="46.115900523204" lon="9.334777318456055"><ele>242.0</ele><time>2026-05-03T12:31:06.002Z</time></trkpt><trkpt lat="46.115883838152705" lon="9.334554211744784"><ele>242.0</ele><time>2026-05-03T12:31:07.002Z</time></trkpt><trkpt lat="46.11583293481993" lon="9.334349667512507"><ele>243.66666666666669</ele><time>2026-05-03T12:31:08.002Z</time></trkpt><trkpt lat="46.115754157029635" lon="9.33413695279037"><ele>245.33333333333331</ele><time>2026-05-03T12:31:09.002Z</time></trkpt><trkpt lat="46.11565422465656" lon="9.333921115625245"><ele>247.0</ele><time>2026-05-03T12:31:10.002Z</time></trkpt><trkpt lat="46.115554072067034" lon="9.333688382930164"><ele>247.0</ele><time>2026-05-03T12:31:11.002Z</time></trkpt><trkpt lat="46.115449497623054" lon="9.333480732333612"><ele>247.0</ele><time>2026-05-03T12:31:12.002Z</time></trkpt><trkpt lat="46.11532877778398" lon="9.333279299746879"><ele>247.0</ele><time>2026-05-03T12:31:13.002Z</time></trkpt><trkpt lat="46.11521046178853" lon="9.333074428374175"><ele>239.66666666666666</ele><time>2026-05-03T12:31:14.002Z</time></trkpt><trkpt lat="46.11509807069342" lon="9.332867061941993"><ele>232.33333333333331</ele><time>2026-05-03T12:31:14.999Z</time></trkpt><trkpt lat="46.115021349729176" lon="9.332660584876198"><ele>225.0</ele><time>2026-05-03T12:31:15.999Z</time></trkpt><trkpt lat="46.11496099109545" lon="9.332446506794646"><ele>234.0</ele><time>2026-05-03T12:31:16.999Z</time></trkpt><trkpt lat="46.11489035625597" lon="9.332227467048845"><ele>243.0</ele><time>2026-05-03T12:31:17.999Z</time></trkpt><trkpt lat="46.11478829603188" lon="9.332010163858106"><ele>252.0</ele><time>2026-05-03T12:31:18.999Z</time></trkpt><trkpt lat="46.11469082498822" lon="9.33178061913479"><ele>252.0</ele><time>2026-05-03T12:31:19.999Z</time></trkpt><trkpt lat="46.114608465959954" lon="9.331554575747031"><ele>252.0</ele><time>2026-05-03T12:31:20.999Z</time></trkpt><trkpt lat="46.114532297616854" lon="9.331322249892239"><ele>252.0</ele><time>2026-05-03T12:31:21.999Z</time></trkpt><trkpt lat="46.11447755683659" lon="9.331116713610303"><ele>250.25</ele><time>2026-05-03T12:31:22.999Z</time></trkpt><trkpt lat="46.11443104079456" lon="9.33092582777482"><ele>248.5</ele><time>2026-05-03T12:31:23.999Z</time></trkpt><trkpt lat="46.114415714369265" lon="9.330727079894896"><ele>246.75</ele><time>2026-05-03T12:31:24.999Z</time></trkpt><trkpt lat="46.1144038536965" lon="9.330508916245115"><ele>245.0</ele><time>2026-05-03T12:31:25.999Z</time></trkpt><trkpt lat="46.114382241158125" lon="9.330275829641302"><ele>242.33333333333334</ele><time>2026-05-03T12:31:26.999Z</time></trkpt><trkpt lat="46.11438398791418" lon="9.330033321709367"><ele>239.66666666666669</ele><time>2026-05-03T12:31:27.999Z</time></trkpt><trkpt lat="46.11437388033027" lon="9.32978741104879"><ele>237.0</ele><time>2026-05-03T12:31:28.999Z</time></trkpt><trkpt lat="46.11436081589854" lon="9.32953832728855"><ele>236.25</ele><time>2026-05-03T12:31:29.999Z</time></trkpt><trkpt lat="46.11435753378513" lon="9.329312405511045"><ele>235.5</ele><time>2026-05-03T12:31:30.999Z</time></trkpt><trkpt lat="46.11435486187066" lon="9.329103788569693"><ele>234.75</ele><time>2026-05-03T12:31:31.999Z</time></trkpt><trkpt lat="46.11435014708795" lon="9.328911018747897"><ele>234.0</ele><time>2026-05-03T12:31:32.999Z</time></trkpt><trkpt lat="46.114330063635244" lon="9.328739091857843"><ele>232.25</ele><time>2026-05-03T12:31:33.999Z</time></trkpt><trkpt lat="46.11427905738959" lon="9.32856689387029"><ele>230.5</ele><time>2026-05-03T12:31:35Z</time></trkpt><trkpt lat="46.11418792727766" lon="9.328406067569043"><ele>228.75</ele><time>2026-05-03T12:31:36Z</time></trkpt><trkpt lat="46.114083845608825" lon="9.328240734032937"><ele>227.0</ele><time>2026-05-03T12:31:37Z</time></trkpt><trkpt lat="46.11402602887151" lon="9.328043270190284"><ele>246.0</ele><time>2026-05-03T12:31:38Z</time></trkpt><trkpt lat="46.114011781732266" lon="9.327830509844135"><ele>265.0</ele><time>2026-05-03T12:31:39Z</time></trkpt><trkpt lat="46.11398615998043" lon="9.327603097859551"><ele>284.0</ele><time>2026-05-03T12:31:40Z</time></trkpt><trkpt lat="46.11398637387076" lon="9.327367943091758"><ele>284.6666666666667</ele><time>2026-05-03T12:31:41Z</time></trkpt><trkpt lat="46.11396599654776" lon="9.327124622782534"><ele>285.3333333333333</ele><time>2026-05-03T12:31:42Z</time></trkpt><trkpt lat="46.1139649707514" lon="9.326882753452997"><ele>286.0</ele><time>2026-05-03T12:31:43Z</time></trkpt><trkpt lat="46.113980764367106" lon="9.326662465771385"><ele>286.0</ele><time>2026-05-03T12:31:44Z</time></trkpt><trkpt lat="46.11402718832714" lon="9.326430297472928"><ele>286.0</ele><time>2026-05-03T12:31:45Z</time></trkpt><trkpt lat="46.1140782667613" lon="9.32620078532261"><ele>286.0</ele><time>2026-05-03T12:31:46Z</time></trkpt><trkpt lat="46.11413594788211" lon="9.325957832270086"><ele>275.3333333333333</ele><time>2026-05-03T12:31:47Z</time></trkpt><trkpt lat="46.114189451583414" lon="9.325710661823685"><ele>264.6666666666667</ele><time>2026-05-03T12:31:48Z</time></trkpt><trkpt lat="46.114248997209124" lon="9.325483954939132"><ele>254.0</ele><time>2026-05-03T12:31:49Z</time></trkpt><trkpt lat="46.11432183787903" lon="9.325281302879011"><ele>254.0</ele><time>2026-05-03T12:31:50Z</time></trkpt><trkpt lat="46.11441657222941" lon="9.32510643560768"><ele>254.0</ele><time>2026-05-03T12:31:51Z</time></trkpt><trkpt lat="46.11451809599891" lon="9.324932329412292"><ele>254.0</ele><time>2026-05-03T12:31:52Z</time></trkpt><trkpt lat="46.11459454046161" lon="9.324733654705371"><ele>259.0</ele><time>2026-05-03T12:31:53Z</time></trkpt><trkpt lat="46.11466704516084" lon="9.324527656721484"><ele>264.0</ele><time>2026-05-03T12:31:54Z</time></trkpt><trkpt lat="46.11468132026626" lon="9.324292938280205"><ele>269.0</ele><time>2026-05-03T12:31:55Z</time></trkpt><trkpt lat="46.11468479637921" lon="9.32405713175384"><ele>270.0</ele><time>2026-05-03T12:31:56Z</time></trkpt><trkpt lat="46.114674768888136" lon="9.323812822381894"><ele>271.0</ele><time>2026-05-03T12:31:57Z</time></trkpt><trkpt lat="46.11463524959433" lon="9.323573164683769"><ele>272.0</ele><time>2026-05-03T12:31:58Z</time></trkpt><trkpt lat="46.11457095388235" lon="9.323343559763002"><ele>272.0</ele><time>2026-05-03T12:31:59Z</time></trkpt><trkpt lat="46.114534721120805" lon="9.3231010313587"><ele>272.0</ele><time>2026-05-03T12:32:00Z</time></trkpt><trkpt lat="46.11451920051777" lon="9.322842820200679"><ele>272.0</ele><time>2026-05-03T12:32:01.001Z</time></trkpt><trkpt lat="46.114495625760725" lon="9.32258555939373"><ele>271.33333333333337</ele><time>2026-05-03T12:32:02.001Z</time></trkpt><trkpt lat="46.11448519466936" lon="9.322329487475233"><ele>270.6666666666667</ele><time>2026-05-03T12:32:03.001Z</time></trkpt><trkpt lat="46.11447491380506" lon="9.322076036774794"><ele>270.0</ele><time>2026-05-03T12:32:04.001Z</time></trkpt><trkpt lat="46.114470445239284" lon="9.321829771929528"><ele>269.6666666666667</ele><time>2026-05-03T12:32:05.001Z</time></trkpt><trkpt lat="46.11446802536209" lon="9.321592703542745"><ele>269.33333333333337</ele><time>2026-05-03T12:32:06.001Z</time></trkpt><trkpt lat="46.11447539713203" lon="9.321366779708619"><ele>269.0</ele><time>2026-05-03T12:32:07.001Z</time></trkpt><trkpt lat="46.11448515317674" lon="9.321136380406776"><ele>268.5</ele><time>2026-05-03T12:32:08.001Z</time></trkpt><trkpt lat="46.11449143152037" lon="9.320915854262052"><ele>268.0</ele><time>2026-05-03T12:32:09.001Z</time></trkpt><trkpt lat="46.11449647551415" lon="9.320704637699897"><ele>267.5</ele><time>2026-05-03T12:32:10.001Z</time></trkpt><trkpt lat="46.11450179741499" lon="9.320495235430295"><ele>267.0</ele><time>2026-05-03T12:32:11.001Z</time></trkpt><trkpt lat="46.11450928196318" lon="9.320287369875516"><ele>266.75</ele><time>2026-05-03T12:32:12.001Z</time></trkpt><trkpt lat="46.11451695126417" lon="9.320084383025216"><ele>266.5</ele><time>2026-05-03T12:32:13.001Z</time></trkpt><trkpt lat="46.114524289772994" lon="9.319877363506452"><ele>266.25</ele><time>2026-05-03T12:32:14.001Z</time></trkpt><trkpt lat="46.11453068450716" lon="9.319672065896892"><ele>266.0</ele><time>2026-05-03T12:32:15.001Z</time></trkpt><trkpt lat="46.11453713298259" lon="9.319470665337745"><ele>266.0</ele><time>2026-05-03T12:32:16.001Z</time></trkpt><trkpt lat="46.11454579191619" lon="9.319272618772093"><ele>266.0</ele><time>2026-05-03T12:32:17.001Z</time></trkpt><trkpt lat="46.11455583476931" lon="9.319081068409838"><ele>266.0</ele><time>2026-05-03T12:32:18.001Z</time></trkpt><trkpt lat="46.11456252873159" lon="9.318899091422189"><ele>266.0</ele><time>2026-05-03T12:32:19.001Z</time></trkpt><trkpt lat="46.11456330914104" lon="9.31873411876488"><ele>264.25</ele><time>2026-05-03T12:32:20.001Z</time></trkpt><trkpt lat="46.11455728507883" lon="9.318570895207863"><ele>262.5</ele><time>2026-05-03T12:32:21.001Z</time></trkpt><trkpt lat="46.11453849835099" lon="9.31839649624277"><ele>260.75</ele><time>2026-05-03T12:32:22.001Z</time></trkpt><trkpt lat="46.11451178844099" lon="9.318211608679864"><ele>259.0</ele><time>2026-05-03T12:32:23.001Z</time></trkpt><trkpt lat="46.11447421977153" lon="9.318030866302017"><ele>258.0</ele><time>2026-05-03T12:32:24.001Z</time></trkpt><trkpt lat="46.11442336808016" lon="9.317867113700537"><ele>257.0</ele><time>2026-05-03T12:32:25.001Z</time></trkpt><trkpt lat="46.11436557149185" lon="9.317703851383662"><ele>256.0</ele><time>2026-05-03T12:32:26.001Z</time></trkpt><trkpt lat="46.114298380936205" lon="9.3175492253634"><ele>255.0</ele><time>2026-05-03T12:32:27.001Z</time></trkpt><trkpt lat="46.114221721577785" lon="9.317415596354857"><ele>255.0</ele><time>2026-05-03T12:32:28.001Z</time></trkpt><trkpt lat="46.11414085818571" lon="9.317298339543864"><ele>255.0</ele><time>2026-05-03T12:32:29.001Z</time></trkpt><trkpt lat="46.114055124331585" lon="9.317201027207064"><ele>255.0</ele><time>2026-05-03T12:32:30.001Z</time></trkpt><trkpt lat="46.11396908294633" lon="9.317108367851993"><ele>255.0</ele><time>2026-05-03T12:32:31.001Z</time></trkpt><trkpt lat="46.113886006832104" lon="9.31701692281765"><ele>255.0</ele><time>2026-05-03T12:32:32.001Z</time></trkpt><trkpt lat="46.11380347697594" lon="9.316928111615576"><ele>254.8</ele><time>2026-05-03T12:32:33.001Z</time></trkpt><trkpt lat="46.113720431890236" lon="9.316841771901597"><ele>254.6</ele><time>2026-05-03T12:32:34.001Z</time></trkpt><trkpt lat="46.11363234579739" lon="9.316762134642383"><ele>254.39999999999998</ele><time>2026-05-03T12:32:35.002Z</time></trkpt><trkpt lat="46.113538962852225" lon="9.316697379937002"><ele>254.2</ele><time>2026-05-03T12:32:36.002Z</time></trkpt><trkpt lat="46.113437232668545" lon="9.316650519186862"><ele>254.0</ele><time>2026-05-03T12:32:37.002Z</time></trkpt><trkpt lat="46.113331682296895" lon="9.316623315477539"><ele>253.0</ele><time>2026-05-03T12:32:38.002Z</time></trkpt><trkpt lat="46.113222039469385" lon="9.31662218026778"><ele>252.0</ele><time>2026-05-03T12:32:39.002Z</time></trkpt><trkpt lat="46.11310488028283" lon="9.316647686769175"><ele>251.0</ele><time>2026-05-03T12:32:40.002Z</time></trkpt><trkpt lat="46.11297541215251" lon="9.316668020102254"><ele>250.0</ele><time>2026-05-03T12:32:41.002Z</time></trkpt><trkpt lat="46.112851056379746" lon="9.316710645740656"><ele>250.0</ele><time>2026-05-03T12:32:42.002Z</time></trkpt><trkpt lat="46.11273395122162" lon="9.316769746576814"><ele>250.0</ele><time>2026-05-03T12:32:43.002Z</time></trkpt><trkpt lat="46.11261109773507" lon="9.31679795483363"><ele>250.0</ele><time>2026-05-03T12:32:44.002Z</time></trkpt><trkpt lat="46.11247435088186" lon="9.316806783578476"><ele>250.0</ele><time>2026-05-03T12:32:45.002Z</time></trkpt><trkpt lat="46.11234556385121" lon="9.316800251374898"><ele>246.75</ele><time>2026-05-03T12:32:46.002Z</time></trkpt><trkpt lat="46.11222016435214" lon="9.316791030019123"><ele>243.5</ele><time>2026-05-03T12:32:47.002Z</time></trkpt><trkpt lat="46.112107198192554" lon="9.316797333073575"><ele>240.25</ele><time>2026-05-03T12:32:48.002Z</time></trkpt><trkpt lat="46.11199284531978" lon="9.316824826033224"><ele>237.0</ele><time>2026-05-03T12:32:49.002Z</time></trkpt><trkpt lat="46.1118783556292" lon="9.316885121205425"><ele>237.0</ele><time>2026-05-03T12:32:50.002Z</time></trkpt><trkpt lat="46.11176600174192" lon="9.316963139726997"><ele>237.0</ele><time>2026-05-03T12:32:51.002Z</time></trkpt><trkpt lat="46.11165171844611" lon="9.317072571877738"><ele>237.0</ele><time>2026-05-03T12:32:52.002Z</time></trkpt><trkpt lat="46.111519039030426" lon="9.317203864532594"><ele>237.0</ele><time>2026-05-03T12:32:53.002Z</time></trkpt><trkpt lat="46.111384227582796" lon="9.317368385470413"><ele>235.66666666666669</ele><time>2026-05-03T12:32:54.002Z</time></trkpt><trkpt lat="46.11124377333567" lon="9.31753925899147"><ele>234.33333333333334</ele><time>2026-05-03T12:32:55.002Z</time></trkpt><trkpt lat="46.11110984541813" lon="9.317724977409846"><ele>233.0</ele><time>2026-05-03T12:32:56.002Z</time></trkpt><trkpt lat="46.110980580655564" lon="9.31788316385105"><ele>233.0</ele><time>2026-05-03T12:32:57.002Z</time></trkpt><trkpt lat="46.11085535487422" lon="9.31802822345295"><ele>233.0</ele><time>2026-05-03T12:32:58.002Z</time></trkpt><trkpt lat="46.110731257362396" lon="9.318154233276536"><ele>233.0</ele><time>2026-05-03T12:32:59.002Z</time></trkpt><trkpt lat="46.11060689923657" lon="9.318246197351872"><ele>230.5</ele><time>2026-05-03T12:33:00.002Z</time></trkpt><trkpt lat="46.1104682102907" lon="9.318286628275725"><ele>228.0</ele><time>2026-05-03T12:33:01.002Z</time></trkpt><trkpt lat="46.110336438555635" lon="9.318300211997034"><ele>225.5</ele><time>2026-05-03T12:33:02.002Z</time></trkpt><trkpt lat="46.11021231735233" lon="9.318317007143646"><ele>223.0</ele><time>2026-05-03T12:33:03.002Z</time></trkpt><trkpt lat="46.110087914725966" lon="9.318382030291044"><ele>223.0</ele><time>2026-05-03T12:33:04.002Z</time></trkpt><trkpt lat="46.10996170423429" lon="9.318496482843301"><ele>223.0</ele><time>2026-05-03T12:33:05.002Z</time></trkpt><trkpt lat="46.10984071832614" lon="9.31863441883603"><ele>223.0</ele><time>2026-05-03T12:33:06.002Z</time></trkpt><trkpt lat="46.109719529032645" lon="9.318792580713087"><ele>224.33333333333331</ele><time>2026-05-03T12:33:07.002Z</time></trkpt><trkpt lat="46.109590820391304" lon="9.318960153798654"><ele>225.66666666666669</ele><time>2026-05-03T12:33:08.002Z</time></trkpt><trkpt lat="46.10946418486794" lon="9.319124242004634"><ele>227.0</ele><time>2026-05-03T12:33:09.002Z</time></trkpt><trkpt lat="46.10935071542128" lon="9.319270163751598"><ele>227.0</ele><time>2026-05-03T12:33:10.002Z</time></trkpt><trkpt lat="46.10924213207552" lon="9.319407397712753"><ele>227.0</ele><time>2026-05-03T12:33:11.002Z</time></trkpt><trkpt lat="46.1091346161168" lon="9.319518989501637"><ele>227.0</ele><time>2026-05-03T12:33:12.003Z</time></trkpt><trkpt lat="46.10900867166731" lon="9.319598745375494"><ele>227.0</ele><time>2026-05-03T12:33:13.003Z</time></trkpt><trkpt lat="46.10885061227692" lon="9.31960330445609"><ele>222.33333333333334</ele><time>2026-05-03T12:33:14.003Z</time></trkpt><trkpt lat="46.108685857550995" lon="9.319645025152242"><ele>217.66666666666669</ele><time>2026-05-03T12:33:15.003Z</time></trkpt><trkpt lat="46.10850777092454" lon="9.31966970782067"><ele>213.0</ele><time>2026-05-03T12:33:16.003Z</time></trkpt><trkpt lat="46.108324871935146" lon="9.319715261893428"><ele>217.66666666666669</ele><time>2026-05-03T12:33:17.003Z</time></trkpt><trkpt lat="46.108139333809355" lon="9.31977402940256"><ele>222.33333333333334</ele><time>2026-05-03T12:33:18.003Z</time></trkpt><trkpt lat="46.107948379376765" lon="9.319841500079026"><ele>227.0</ele><time>2026-05-03T12:33:19.003Z</time></trkpt><trkpt lat="46.10775247799998" lon="9.319906981707831"><ele>227.0</ele><time>2026-05-03T12:33:20.003Z</time></trkpt><trkpt lat="46.107566473692586" lon="9.319956946546707"><ele>227.0</ele><time>2026-05-03T12:33:20.999Z</time></trkpt><trkpt lat="46.10738800727368" lon="9.320001725353743"><ele>227.0</ele><time>2026-05-03T12:33:21.999Z</time></trkpt><trkpt lat="46.10721997816815" lon="9.32005906930547"><ele>222.66666666666669</ele><time>2026-05-03T12:33:23Z</time></trkpt><trkpt lat="46.107055094538" lon="9.320125219491127"><ele>218.33333333333331</ele><time>2026-05-03T12:33:24Z</time></trkpt><trkpt lat="46.10688989178075" lon="9.320232246633925"><ele>214.0</ele><time>2026-05-03T12:33:24.999Z</time></trkpt><trkpt lat="46.10672000772829" lon="9.320371362133052"><ele>214.33333333333331</ele><time>2026-05-03T12:33:26Z</time></trkpt><trkpt lat="46.10656492957148" lon="9.320510987091907"><ele>214.66666666666669</ele><time>2026-05-03T12:33:27Z</time></trkpt><trkpt lat="46.10641552647505" lon="9.320631231297945"><ele>215.0</ele><time>2026-05-03T12:33:28Z</time></trkpt><trkpt lat="46.10624939897467" lon="9.320718082167357"><ele>215.0</ele><time>2026-05-03T12:33:29Z</time></trkpt><trkpt lat="46.10607769838757" lon="9.320786354913484"><ele>215.0</ele><time>2026-05-03T12:33:30Z</time></trkpt><trkpt lat="46.10591187668522" lon="9.320844720637004"><ele>215.0</ele><time>2026-05-03T12:33:31Z</time></trkpt><trkpt lat="46.105758362018086" lon="9.320895025864056"><ele>216.66666666666669</ele><time>2026-05-03T12:33:32Z</time></trkpt><trkpt lat="46.10561101400198" lon="9.320952036657621"><ele>218.33333333333331</ele><time>2026-05-03T12:33:33Z</time></trkpt><trkpt lat="46.10546850695978" lon="9.321011497390552"><ele>220.0</ele><time>2026-05-03T12:33:34Z</time></trkpt><trkpt lat="46.10532467947057" lon="9.321066582211815"><ele>220.0</ele><time>2026-05-03T12:33:35Z</time></trkpt><trkpt lat="46.105182850064914" lon="9.321118175752193"><ele>220.0</ele><time>2026-05-03T12:33:36Z</time></trkpt><trkpt lat="46.105050039403565" lon="9.321156597474104"><ele>220.0</ele><time>2026-05-03T12:33:37Z</time></trkpt><trkpt lat="46.1049138106981" lon="9.321168439126755"><ele>220.0</ele><time>2026-05-03T12:33:38Z</time></trkpt><trkpt lat="46.10477129680164" lon="9.32113716020419"><ele>220.33333333333331</ele><time>2026-05-03T12:33:39Z</time></trkpt><trkpt lat="46.10462405408179" lon="9.32107566462675"><ele>220.66666666666669</ele><time>2026-05-03T12:33:40Z</time></trkpt><trkpt lat="46.104472220324205" lon="9.32100401647496"><ele>221.0</ele><time>2026-05-03T12:33:41Z</time></trkpt><trkpt lat="46.10432453805502" lon="9.320928611753864"><ele>221.0</ele><time>2026-05-03T12:33:42Z</time></trkpt><trkpt lat="46.10418053742848" lon="9.320837241162078"><ele>221.0</ele><time>2026-05-03T12:33:43Z</time></trkpt><trkpt lat="46.10404630671327" lon="9.320730643742136"><ele>221.0</ele><time>2026-05-03T12:33:44Z</time></trkpt><trkpt lat="46.103919066284284" lon="9.320609720431706"><ele>219.0</ele><time>2026-05-03T12:33:45Z</time></trkpt><trkpt lat="46.10379695530591" lon="9.320486055408438"><ele>217.0</ele><time>2026-05-03T12:33:46Z</time></trkpt><trkpt lat="46.10367549496075" lon="9.320372826340394"><ele>215.0</ele><time>2026-05-03T12:33:47Z</time></trkpt><trkpt lat="46.10356081423957" lon="9.320265730733627"><ele>213.0</ele><time>2026-05-03T12:33:48Z</time></trkpt><trkpt lat="46.10344669734981" lon="9.320156384690502"><ele>213.0</ele><time>2026-05-03T12:33:49Z</time></trkpt><trkpt lat="46.10333302999082" lon="9.320051785520693"><ele>213.0</ele><time>2026-05-03T12:33:50Z</time></trkpt><trkpt lat="46.10322063866665" lon="9.319949271802438"><ele>213.0</ele><time>2026-05-03T12:33:51Z</time></trkpt><trkpt lat="46.10310735192683" lon="9.31985200822436"><ele>213.0</ele><time>2026-05-03T12:33:52Z</time></trkpt><trkpt lat="46.102995896638596" lon="9.319754653954272"><ele>214.5</ele><time>2026-05-03T12:33:53Z</time></trkpt><trkpt lat="46.1028796751155" lon="9.319664735113003"><ele>216.0</ele><time>2026-05-03T12:33:54Z</time></trkpt><trkpt lat="46.102762054106826" lon="9.319574592613021"><ele>217.5</ele><time>2026-05-03T12:33:55.001Z</time></trkpt><trkpt lat="46.10264578368216" lon="9.319480725411003"><ele>219.0</ele><time>2026-05-03T12:33:56.001Z</time></trkpt><trkpt lat="46.10253028785899" lon="9.319386486055862"><ele>219.0</ele><time>2026-05-03T12:33:57.001Z</time></trkpt><trkpt lat="46.10241554905873" lon="9.319284996312629"><ele>219.0</ele><time>2026-05-03T12:33:58.001Z</time></trkpt><trkpt lat="46.10230695901199" lon="9.31916329042058"><ele>219.0</ele><time>2026-05-03T12:33:59.001Z</time></trkpt><trkpt lat="46.102201412886274" lon="9.319014193868712"><ele>219.0</ele><time>2026-05-03T12:34:00.001Z</time></trkpt><trkpt lat="46.10209460644804" lon="9.318847426924695"><ele>219.0</ele><time>2026-05-03T12:34:01.001Z</time></trkpt><trkpt lat="46.101996459389525" lon="9.318679695946605"><ele>219.0</ele><time>2026-05-03T12:34:02.001Z</time></trkpt><trkpt lat="46.101892516732924" lon="9.31852810534437"><ele>219.0</ele><time>2026-05-03T12:34:03.001Z</time></trkpt><trkpt lat="46.10177398730673" lon="9.318401191314969"><ele>219.0</ele><time>2026-05-03T12:34:04.001Z</time></trkpt><trkpt lat="46.101639902291524" lon="9.318286048172428"><ele>218.66666666666669</ele><time>2026-05-03T12:34:05.001Z</time></trkpt><trkpt lat="46.10149314220186" lon="9.318183534042213"><ele>218.33333333333334</ele><time>2026-05-03T12:34:06.001Z</time></trkpt><trkpt lat="46.101338699079854" lon="9.318087970967374"><ele>218.0</ele><time>2026-05-03T12:34:07.001Z</time></trkpt><trkpt lat="46.10118937558544" lon="9.317979645621602"><ele>218.0</ele><time>2026-05-03T12:34:08.001Z</time></trkpt><trkpt lat="46.10104142862545" lon="9.317875892578801"><ele>218.0</ele><time>2026-05-03T12:34:09.001Z</time></trkpt><trkpt lat="46.1008828595821" lon="9.317766418344199"><ele>218.0</ele><time>2026-05-03T12:34:10.001Z</time></trkpt><trkpt lat="46.10072098399509" lon="9.317650148058275"><ele>220.66666666666669</ele><time>2026-05-03T12:34:11.001Z</time></trkpt><trkpt lat="46.1005571214982" lon="9.317531591254285"><ele>223.33333333333331</ele><time>2026-05-03T12:34:12.001Z</time></trkpt><trkpt lat="46.10039970961501" lon="9.317420146244908"><ele>226.0</ele><time>2026-05-03T12:34:13.001Z</time></trkpt><trkpt lat="46.10025071351905" lon="9.317321895352146"><ele>220.0</ele><time>2026-05-03T12:34:14.001Z</time></trkpt><trkpt lat="46.10009178067383" lon="9.31723319675281"><ele>214.0</ele><time>2026-05-03T12:34:15.001Z</time></trkpt><trkpt lat="46.099920687500926" lon="9.317170084875693"><ele>208.0</ele><time>2026-05-03T12:34:16.001Z</time></trkpt><trkpt lat="46.099734374797485" lon="9.317125582023804"><ele>207.33333333333331</ele><time>2026-05-03T12:34:17.001Z</time></trkpt><trkpt lat="46.099543925688266" lon="9.317100565342665"><ele>206.66666666666669</ele><time>2026-05-03T12:34:18.001Z</time></trkpt><trkpt lat="46.099349126431285" lon="9.3170931801335"><ele>206.0</ele><time>2026-05-03T12:34:19.001Z</time></trkpt><trkpt lat="46.099151511780676" lon="9.317102229801899"><ele>207.0</ele><time>2026-05-03T12:34:20.001Z</time></trkpt><trkpt lat="46.098947981161714" lon="9.317108539690956"><ele>208.0</ele><time>2026-05-03T12:34:21.001Z</time></trkpt><trkpt lat="46.09874748165155" lon="9.317120229077757"><ele>209.0</ele><time>2026-05-03T12:34:22.001Z</time></trkpt><trkpt lat="46.09855599525152" lon="9.317115249538983"><ele>209.0</ele><time>2026-05-03T12:34:23.001Z</time></trkpt><trkpt lat="46.09838661888768" lon="9.317115111400256"><ele>209.0</ele><time>2026-05-03T12:34:24.001Z</time></trkpt><trkpt lat="46.098230259803124" lon="9.317113786339291"><ele>209.0</ele><time>2026-05-03T12:34:25.001Z</time></trkpt><trkpt lat="46.098083816223024" lon="9.317100295278639"><ele>211.0</ele><time>2026-05-03T12:34:26.001Z</time></trkpt><trkpt lat="46.09795053219965" lon="9.317081222136688"><ele>213.0</ele><time>2026-05-03T12:34:27.002Z</time></trkpt><trkpt lat="46.09781250816116" lon="9.317004233399391"><ele>215.0</ele><time>2026-05-03T12:34:28.002Z</time></trkpt><trkpt lat="46.09769308631818" lon="9.316846818530752"><ele>217.0</ele><time>2026-05-03T12:34:29.002Z</time></trkpt><trkpt lat="46.09755710160445" lon="9.316723640548368"><ele>217.0</ele><time>2026-05-03T12:34:30.002Z</time></trkpt><trkpt lat="46.09742711280307" lon="9.316642286894844"><ele>217.0</ele><time>2026-05-03T12:34:31.002Z</time></trkpt><trkpt lat="46.09728416614057" lon="9.316571233678616"><ele>217.0</ele><time>2026-05-03T12:34:32.002Z</time></trkpt><trkpt lat="46.0971339972073" lon="9.316532310920682"><ele>217.0</ele><time>2026-05-03T12:34:33.002Z</time></trkpt><trkpt lat="46.096979568641714" lon="9.316538299039598"><ele>218.66666666666666</ele><time>2026-05-03T12:34:34.002Z</time></trkpt><trkpt lat="46.096820878922735" lon="9.316577243339895"><ele>220.33333333333331</ele><time>2026-05-03T12:34:35.002Z</time></trkpt><trkpt lat="46.09665932100165" lon="9.316632103535406"><ele>222.0</ele><time>2026-05-03T12:34:36.002Z</time></trkpt><trkpt lat="46.09649906913551" lon="9.31664331158322"><ele>222.66666666666669</ele><time>2026-05-03T12:34:37.002Z</time></trkpt><trkpt lat="46.09633976040756" lon="9.316622812706825"><ele>223.33333333333334</ele><time>2026-05-03T12:34:38.002Z</time></trkpt><trkpt lat="46.096177376251994" lon="9.316569643171588"><ele>224.0</ele><time>2026-05-03T12:34:39.002Z</time></trkpt><trkpt lat="46.096008946882" lon="9.316514270451181"><ele>224.0</ele><time>2026-05-03T12:34:40.002Z</time></trkpt><trkpt lat="46.09584478719894" lon="9.316459958662154"><ele>224.0</ele><time>2026-05-03T12:34:41.002Z</time></trkpt><trkpt lat="46.09568008515967" lon="9.316405467385012"><ele>224.0</ele><time>2026-05-03T12:34:42.002Z</time></trkpt><trkpt lat="46.09551659724928" lon="9.31637323140572"><ele>222.0</ele><time>2026-05-03T12:34:43.002Z</time></trkpt><trkpt lat="46.09536492882755" lon="9.316313874075904"><ele>220.0</ele><time>2026-05-03T12:34:44.002Z</time></trkpt><trkpt lat="46.09521791135284" lon="9.316207500166755"><ele>218.0</ele><time>2026-05-03T12:34:45.002Z</time></trkpt><trkpt lat="46.09509304379086" lon="9.316079683165507"><ele>218.0</ele><time>2026-05-03T12:34:46.002Z</time></trkpt><trkpt lat="46.09496532298296" lon="9.31590706056908"><ele>218.0</ele><time>2026-05-03T12:34:47.002Z</time></trkpt><trkpt lat="46.09482955250051" lon="9.315705515475473"><ele>218.0</ele><time>2026-05-03T12:34:48.002Z</time></trkpt><trkpt lat="46.09469269799947" lon="9.31553017212805"><ele>220.33333333333334</ele><time>2026-05-03T12:34:49.002Z</time></trkpt><trkpt lat="46.0945605285933" lon="9.315330284849534"><ele>222.66666666666669</ele><time>2026-05-03T12:34:50.002Z</time></trkpt><trkpt lat="46.09442750671549" lon="9.315134497710885"><ele>225.0</ele><time>2026-05-03T12:34:51.002Z</time></trkpt><trkpt lat="46.09429830670489" lon="9.31493665375228"><ele>225.0</ele><time>2026-05-03T12:34:52.002Z</time></trkpt><trkpt lat="46.094180909870204" lon="9.314765594643166"><ele>225.0</ele><time>2026-05-03T12:34:53.002Z</time></trkpt><trkpt lat="46.09406614016466" lon="9.314591070212172"><ele>225.0</ele><time>2026-05-03T12:34:54.002Z</time></trkpt><trkpt lat="46.09395980152857" lon="9.31443986335349"><ele>227.66666666666669</ele><time>2026-05-03T12:34:55.002Z</time></trkpt><trkpt lat="46.09385922230332" lon="9.314291650864272"><ele>230.33333333333334</ele><time>2026-05-03T12:34:56.002Z</time></trkpt><trkpt lat="46.09374286551413" lon="9.314154783440104"><ele>233.0</ele><time>2026-05-03T12:34:57.002Z</time></trkpt><trkpt lat="46.093605646798146" lon="9.31402772928672"><ele>233.0</ele><time>2026-05-03T12:34:58.002Z</time></trkpt><trkpt lat="46.09346304224217" lon="9.313906073783409"><ele>233.0</ele><time>2026-05-03T12:34:59.002Z</time></trkpt><trkpt lat="46.093319690999394" lon="9.313785168728051"><ele>233.0</ele><time>2026-05-03T12:35:00.002Z</time></trkpt><trkpt lat="46.093175676537825" lon="9.313666179828775"><ele>231.33333333333334</ele><time>2026-05-03T12:35:01.002Z</time></trkpt><trkpt lat="46.09303754061205" lon="9.313550623802717"><ele>229.66666666666669</ele><time>2026-05-03T12:35:02.003Z</time></trkpt><trkpt lat="46.09289552732523" lon="9.313433640765865"><ele>228.0</ele><time>2026-05-03T12:35:03.003Z</time></trkpt><trkpt lat="46.092752589030205" lon="9.313322426942362"><ele>228.0</ele><time>2026-05-03T12:35:04.003Z</time></trkpt><trkpt lat="46.092598101061135" lon="9.313210983248428"><ele>228.0</ele><time>2026-05-03T12:35:05.003Z</time></trkpt><trkpt lat="46.092456195328715" lon="9.313105768187725"><ele>228.0</ele><time>2026-05-03T12:35:06.003Z</time></trkpt><trkpt lat="46.09230844957971" lon="9.312991126715508"><ele>227.5</ele><time>2026-05-03T12:35:07.003Z</time></trkpt><trkpt lat="46.09217403963531" lon="9.312889096487996"><ele>227.0</ele><time>2026-05-03T12:35:08.003Z</time></trkpt><trkpt lat="46.092038858624115" lon="9.312792750388294"><ele>226.5</ele><time>2026-05-03T12:35:09.003Z</time></trkpt><trkpt lat="46.09191366449286" lon="9.312710499181204"><ele>226.0</ele><time>2026-05-03T12:35:10.003Z</time></trkpt><trkpt lat="46.09178250379776" lon="9.312638002154259"><ele>226.0</ele><time>2026-05-03T12:35:11.003Z</time></trkpt><trkpt lat="46.09165330576736" lon="9.312577348767315"><ele>226.0</ele><time>2026-05-03T12:35:12.003Z</time></trkpt><trkpt lat="46.09151633824798" lon="9.31253827295644"><ele>226.0</ele><time>2026-05-03T12:35:13.003Z</time></trkpt><trkpt lat="46.09137375970332" lon="9.312486611403635"><ele>226.0</ele><time>2026-05-03T12:35:14.003Z</time></trkpt><trkpt lat="46.09125468074853" lon="9.312382931698783"><ele>225.25</ele><time>2026-05-03T12:35:15.003Z</time></trkpt><trkpt lat="46.09114720026011" lon="9.312264046942719"><ele>224.5</ele><time>2026-05-03T12:35:16.003Z</time></trkpt><trkpt lat="46.091026678122766" lon="9.312159772398731"><ele>223.75</ele><time>2026-05-03T12:35:17.003Z</time></trkpt><trkpt lat="46.09092078527034" lon="9.312035199385862"><ele>223.0</ele><time>2026-05-03T12:35:18.003Z</time></trkpt><trkpt lat="46.09081262278117" lon="9.311929296290954"><ele>227.75</ele><time>2026-05-03T12:35:19.003Z</time></trkpt><trkpt lat="46.0907062846909" lon="9.311837973959836"><ele>232.5</ele><time>2026-05-03T12:35:20.003Z</time></trkpt><trkpt lat="46.09060164332453" lon="9.311773174096544"><ele>237.25</ele><time>2026-05-03T12:35:21.003Z</time></trkpt><trkpt lat="46.090486153183335" lon="9.311719911689046"><ele>242.0</ele><time>2026-05-03T12:35:22.003Z</time></trkpt><trkpt lat="46.09037333253336" lon="9.311682362616956"><ele>242.0</ele><time>2026-05-03T12:35:23.003Z</time></trkpt><trkpt lat="46.0902785430477" lon="9.311625315325326"><ele>242.0</ele><time>2026-05-03T12:35:24.003Z</time></trkpt><trkpt lat="46.09018146872217" lon="9.311584712439755"><ele>242.0</ele><time>2026-05-03T12:35:25.003Z</time></trkpt><trkpt lat="46.090084538327666" lon="9.311545882995611"><ele>242.0</ele><time>2026-05-03T12:35:26.003Z</time></trkpt><trkpt lat="46.08998334870166" lon="9.311507319590556"><ele>242.0</ele><time>2026-05-03T12:35:27Z</time></trkpt><trkpt lat="46.08988133411618" lon="9.31149302768136"><ele>241.75</ele><time>2026-05-03T12:35:28Z</time></trkpt><trkpt lat="46.08978370362816" lon="9.311445266504244"><ele>241.5</ele><time>2026-05-03T12:35:29Z</time></trkpt><trkpt lat="46.08967212871398" lon="9.311411392437348"><ele>241.25</ele><time>2026-05-03T12:35:30Z</time></trkpt><trkpt lat="46.089553358560714" lon="9.311399738955844"><ele>241.0</ele><time>2026-05-03T12:35:31Z</time></trkpt><trkpt lat="46.089431957383944" lon="9.311403539397023"><ele>241.0</ele><time>2026-05-03T12:35:32Z</time></trkpt><trkpt lat="46.0893083772356" lon="9.31141813704628"><ele>241.0</ele><time>2026-05-03T12:35:33Z</time></trkpt><trkpt lat="46.08918426746462" lon="9.311418745279463"><ele>241.0</ele><time>2026-05-03T12:35:34Z</time></trkpt><trkpt lat="46.089062116526165" lon="9.311397360969428"><ele>241.0</ele><time>2026-05-03T12:35:35Z</time></trkpt><trkpt lat="46.08894459490627" lon="9.311336773165854"><ele>237.25</ele><time>2026-05-03T12:35:36Z</time></trkpt><trkpt lat="46.088828318838104" lon="9.311281952039318"><ele>233.5</ele><time>2026-05-03T12:35:37Z</time></trkpt><trkpt lat="46.08871485511104" lon="9.311206130225786"><ele>229.75</ele><time>2026-05-03T12:35:38Z</time></trkpt><trkpt lat="46.0885954619421" lon="9.311112811369602"><ele>226.0</ele><time>2026-05-03T12:35:39Z</time></trkpt><trkpt lat="46.08846801030333" lon="9.311010751982026"><ele>226.0</ele><time>2026-05-03T12:35:40Z</time></trkpt><trkpt lat="46.08833143857262" lon="9.310901042053807"><ele>226.0</ele><time>2026-05-03T12:35:41Z</time></trkpt><trkpt lat="46.08818912336331" lon="9.310786959377014"><ele>226.0</ele><time>2026-05-03T12:35:42Z</time></trkpt><trkpt lat="46.08802913544709" lon="9.310685040029686"><ele>221.66666666666666</ele><time>2026-05-03T12:35:43Z</time></trkpt><trkpt lat="46.08787700070424" lon="9.310563511612242"><ele>217.33333333333331</ele><time>2026-05-03T12:35:44Z</time></trkpt><trkpt lat="46.087727775889114" lon="9.310417833058056"><ele>213.0</ele><time>2026-05-03T12:35:45Z</time></trkpt><trkpt lat="46.08758579408148" lon="9.310304341108454"><ele>213.0</ele><time>2026-05-03T12:35:46Z</time></trkpt><trkpt lat="46.08744804545843" lon="9.31022146213872"><ele>213.0</ele><time>2026-05-03T12:35:47Z</time></trkpt><trkpt lat="46.087335364798214" lon="9.310103962823797"><ele>213.0</ele><time>2026-05-03T12:35:48Z</time></trkpt><trkpt lat="46.087228471141145" lon="9.31002362816915"><ele>213.0</ele><time>2026-05-03T12:35:49Z</time></trkpt><trkpt lat="46.08710972579796" lon="9.309986797537338"><ele>214.25</ele><time>2026-05-03T12:35:50Z</time></trkpt><trkpt lat="46.08697788573265" lon="9.309976484180655"><ele>215.5</ele><time>2026-05-03T12:35:51Z</time></trkpt><trkpt lat="46.08682701430122" lon="9.31000181308813"><ele>216.75</ele><time>2026-05-03T12:35:52Z</time></trkpt><trkpt lat="46.086674905190286" lon="9.31003732400342"><ele>218.0</ele><time>2026-05-03T12:35:53Z</time></trkpt><trkpt lat="46.086512465066065" lon="9.310043001463873"><ele>214.0</ele><time>2026-05-03T12:35:54Z</time></trkpt><trkpt lat="46.086349650933236" lon="9.310097683825886"><ele>210.0</ele><time>2026-05-03T12:35:55Z</time></trkpt><trkpt lat="46.08618028714412" lon="9.310142680701128"><ele>206.0</ele><time>2026-05-03T12:35:56Z</time></trkpt><trkpt lat="46.08601656023468" lon="9.31020565628896"><ele>206.0</ele><time>2026-05-03T12:35:57Z</time></trkpt><trkpt lat="46.08585561189989" lon="9.310272035560756"><ele>206.0</ele><time>2026-05-03T12:35:58.001Z</time></trkpt><trkpt lat="46.08570345349067" lon="9.31033161750472"><ele>206.0</ele><time>2026-05-03T12:35:59.001Z</time></trkpt><trkpt lat="46.08555634484534" lon="9.310398842493873"><ele>205.0</ele><time>2026-05-03T12:36:00.001Z</time></trkpt><trkpt lat="46.08541115672392" lon="9.310468825617908"><ele>204.0</ele><time>2026-05-03T12:36:01.001Z</time></trkpt><trkpt lat="46.08526726007495" lon="9.310546130946037"><ele>203.0</ele><time>2026-05-03T12:36:02.001Z</time></trkpt><trkpt lat="46.08512645331122" lon="9.310622760486593"><ele>208.0</ele><time>2026-05-03T12:36:03.001Z</time></trkpt><trkpt lat="46.08498807760919" lon="9.310696673253965"><ele>213.0</ele><time>2026-05-03T12:36:04.001Z</time></trkpt><trkpt lat="46.08484532011003" lon="9.31077190740018"><ele>218.0</ele><time>2026-05-03T12:36:05.001Z</time></trkpt><trkpt lat="46.08469491626716" lon="9.310841269525419"><ele>218.0</ele><time>2026-05-03T12:36:06.001Z</time></trkpt><trkpt lat="46.084538122896994" lon="9.310898359988217"><ele>218.0</ele><time>2026-05-03T12:36:07.001Z</time></trkpt><trkpt lat="46.08437173445831" lon="9.310941969153777"><ele>218.0</ele><time>2026-05-03T12:36:08.001Z</time></trkpt><trkpt lat="46.08420691496445" lon="9.310975594597519"><ele>215.66666666666669</ele><time>2026-05-03T12:36:09.001Z</time></trkpt><trkpt lat="46.084038634664076" lon="9.31101226073815"><ele>213.33333333333331</ele><time>2026-05-03T12:36:10.001Z</time></trkpt><trkpt lat="46.08386408188066" lon="9.311052598813328"><ele>211.0</ele><time>2026-05-03T12:36:11.001Z</time></trkpt><trkpt lat="46.083692786939594" lon="9.311090236537538"><ele>211.0</ele><time>2026-05-03T12:36:12.001Z</time></trkpt><trkpt lat="46.08352219651195" lon="9.311134795636706"><ele>211.0</ele><time>2026-05-03T12:36:13.001Z</time></trkpt><trkpt lat="46.083358865847835" lon="9.311176539511216"><ele>211.0</ele><time>2026-05-03T12:36:14.001Z</time></trkpt><trkpt lat="46.083196074346525" lon="9.311213225387432"><ele>209.33333333333331</ele><time>2026-05-03T12:36:15.001Z</time></trkpt><trkpt lat="46.08304234714493" lon="9.311256276660524"><ele>207.66666666666669</ele><time>2026-05-03T12:36:16.001Z</time></trkpt><trkpt lat="46.082896281453486" lon="9.311288636799333"><ele>206.0</ele><time>2026-05-03T12:36:17.001Z</time></trkpt><trkpt lat="46.0827465267538" lon="9.311298462761712"><ele>206.0</ele><time>2026-05-03T12:36:18.001Z</time></trkpt><trkpt lat="46.08260879199792" lon="9.311236869881899"><ele>206.0</ele><time>2026-05-03T12:36:19.001Z</time></trkpt><trkpt lat="46.08247926639818" lon="9.311145047974998"><ele>206.0</ele><time>2026-05-03T12:36:20.001Z</time></trkpt><trkpt lat="46.08232819741308" lon="9.311053069848056"><ele>208.33333333333334</ele><time>2026-05-03T12:36:21.001Z</time></trkpt><trkpt lat="46.08218865877386" lon="9.310953602879229"><ele>210.66666666666669</ele><time>2026-05-03T12:36:22.001Z</time></trkpt><trkpt lat="46.0820342330971" lon="9.310907066729452"><ele>213.0</ele><time>2026-05-03T12:36:23.001Z</time></trkpt><trkpt lat="46.08186575776877" lon="9.310889226530206"><ele>213.0</ele><time>2026-05-03T12:36:24.001Z</time></trkpt><trkpt lat="46.08168055068536" lon="9.31086275567318"><ele>213.0</ele><time>2026-05-03T12:36:25.001Z</time></trkpt><trkpt lat="46.08150126409094" lon="9.310829636155399"><ele>213.0</ele><time>2026-05-03T12:36:26.001Z</time></trkpt><trkpt lat="46.081317014646636" lon="9.310756292418136"><ele>211.66666666666669</ele><time>2026-05-03T12:36:27.001Z</time></trkpt><trkpt lat="46.08115926964035" lon="9.310631261927606"><ele>210.33333333333334</ele><time>2026-05-03T12:36:28.001Z</time></trkpt><trkpt lat="46.08101103520874" lon="9.31050290812946"><ele>209.0</ele><time>2026-05-03T12:36:29.002Z</time></trkpt><trkpt lat="46.080872872011476" lon="9.310350428961982"><ele>214.66666666666669</ele><time>2026-05-03T12:36:30.002Z</time></trkpt><trkpt lat="46.08073903934238" lon="9.310194522143174"><ele>220.33333333333331</ele><time>2026-05-03T12:36:31.002Z</time></trkpt><trkpt lat="46.08062969624335" lon="9.310005140079191"><ele>226.0</ele><time>2026-05-03T12:36:32.002Z</time></trkpt><trkpt lat="46.080529598336256" lon="9.309803982456305"><ele>222.0</ele><time>2026-05-03T12:36:33.002Z</time></trkpt><trkpt lat="46.080440049295184" lon="9.309605845939988"><ele>218.0</ele><time>2026-05-03T12:36:34.002Z</time></trkpt><trkpt lat="46.080344838291545" lon="9.309403605395955"><ele>214.0</ele><time>2026-05-03T12:36:35.002Z</time></trkpt><trkpt lat="46.080256570328736" lon="9.30921677652362"><ele>214.0</ele><time>2026-05-03T12:36:36.002Z</time></trkpt><trkpt lat="46.08017962995757" lon="9.309058009665351"><ele>214.0</ele><time>2026-05-03T12:36:37.002Z</time></trkpt><trkpt lat="46.080111398976875" lon="9.308914147250391"><ele>214.0</ele><time>2026-05-03T12:36:38.002Z</time></trkpt><trkpt lat="46.080043384189395" lon="9.30877069957895"><ele>214.0</ele><time>2026-05-03T12:36:39.002Z</time></trkpt><trkpt lat="46.0799707721832" lon="9.308627862041577"><ele>213.5</ele><time>2026-05-03T12:36:40.002Z</time></trkpt><trkpt lat="46.07989547908609" lon="9.308468904357039"><ele>213.0</ele><time>2026-05-03T12:36:41.002Z</time></trkpt><trkpt lat="46.07981691810093" lon="9.308306380598523"><ele>212.5</ele><time>2026-05-03T12:36:42.002Z</time></trkpt><trkpt lat="46.07973289809459" lon="9.308138134779387"><ele>212.0</ele><time>2026-05-03T12:36:43.002Z</time></trkpt><trkpt lat="46.07965216396992" lon="9.30796635275029"><ele>212.0</ele><time>2026-05-03T12:36:44.002Z</time></trkpt><trkpt lat="46.07957060034039" lon="9.307795855333406"><ele>212.0</ele><time>2026-05-03T12:36:45.002Z</time></trkpt><trkpt lat="46.07948946188277" lon="9.307628630253273"><ele>212.0</ele><time>2026-05-03T12:36:46.002Z</time></trkpt><trkpt lat="46.07941579235311" lon="9.307474239051146"><ele>212.0</ele><time>2026-05-03T12:36:47.002Z</time></trkpt><trkpt lat="46.07934507766905" lon="9.307335317079733"><ele>212.0</ele><time>2026-05-03T12:36:48.002Z</time></trkpt><trkpt lat="46.07927743295608" lon="9.307198712544293"><ele>212.0</ele><time>2026-05-03T12:36:49.002Z</time></trkpt><trkpt lat="46.07921222943075" lon="9.307063663380342"><ele>212.0</ele><time>2026-05-03T12:36:50.002Z</time></trkpt><trkpt lat="46.07914606585794" lon="9.306923425981555"><ele>212.0</ele><time>2026-05-03T12:36:51.002Z</time></trkpt><trkpt lat="46.07907828859883" lon="9.306774194113952"><ele>212.25</ele><time>2026-05-03T12:36:52.002Z</time></trkpt><trkpt lat="46.079004748251116" lon="9.30662161568398"><ele>212.5</ele><time>2026-05-03T12:36:53.002Z</time></trkpt><trkpt lat="46.07892565817907" lon="9.30647344240896"><ele>212.75</ele><time>2026-05-03T12:36:54.002Z</time></trkpt><trkpt lat="46.078851236520705" lon="9.306327344440628"><ele>213.0</ele><time>2026-05-03T12:36:55.002Z</time></trkpt><trkpt lat="46.07878154628215" lon="9.306182413553252"><ele>213.5</ele><time>2026-05-03T12:36:56.002Z</time></trkpt><trkpt lat="46.07871388411243" lon="9.30604355924013"><ele>214.0</ele><time>2026-05-03T12:36:57.002Z</time></trkpt><trkpt lat="46.0786414270323" lon="9.305902642780566"><ele>214.5</ele><time>2026-05-03T12:36:58.002Z</time></trkpt><trkpt lat="46.07856815807881" lon="9.305772800740797"><ele>215.0</ele><time>2026-05-03T12:36:59.002Z</time></trkpt><trkpt lat="46.07849418171505" lon="9.305649182672672"><ele>214.75</ele><time>2026-05-03T12:37:00.002Z</time></trkpt><trkpt lat="46.07841410260051" lon="9.305533074255168"><ele>214.5</ele><time>2026-05-03T12:37:01.002Z</time></trkpt><trkpt lat="46.07832647763983" lon="9.305422326405894"><ele>214.25</ele><time>2026-05-03T12:37:02.003Z</time></trkpt><trkpt lat="46.078237330367756" lon="9.305321779241483"><ele>214.0</ele><time>2026-05-03T12:37:03.003Z</time></trkpt><trkpt lat="46.078144351935094" lon="9.30522133677919"><ele>213.75</ele><time>2026-05-03T12:37:04.003Z</time></trkpt><trkpt lat="46.07804811897526" lon="9.305130926965088"><ele>213.5</ele><time>2026-05-03T12:37:05.003Z</time></trkpt><trkpt lat="46.07795547327028" lon="9.305042237979992"><ele>213.25</ele><time>2026-05-03T12:37:06.003Z</time></trkpt><trkpt lat="46.07784441233264" lon="9.304959857098597"><ele>213.0</ele><time>2026-05-03T12:37:07.003Z</time></trkpt><trkpt lat="46.07773852018879" lon="9.30489080570997"><ele>213.0</ele><time>2026-05-03T12:37:08.003Z</time></trkpt><trkpt lat="46.07763609869361" lon="9.304829006013085"><ele>213.0</ele><time>2026-05-03T12:37:09.003Z</time></trkpt><trkpt lat="46.077543755712526" lon="9.30477160854004"><ele>213.0</ele><time>2026-05-03T12:37:10.003Z</time></trkpt><trkpt lat="46.07745653117407" lon="9.30472615565768"><ele>213.0</ele><time>2026-05-03T12:37:11.003Z</time></trkpt><trkpt lat="46.07737808169286" lon="9.30469159372865"><ele>213.0</ele><time>2026-05-03T12:37:12.003Z</time></trkpt><trkpt lat="46.07730607089394" lon="9.304664112887819"><ele>212.5</ele><time>2026-05-03T12:37:13.003Z</time></trkpt><trkpt lat="46.07724152194665" lon="9.30464294715932"><ele>212.0</ele><time>2026-05-03T12:37:14.003Z</time></trkpt><trkpt lat="46.07713257941798" lon="9.304612596300712"><ele>211.5</ele><time>2026-05-03T12:37:16.003Z</time></trkpt><trkpt lat="46.07704709274348" lon="9.304588536529069"><ele>211.0</ele><time>2026-05-03T12:37:18.003Z</time></trkpt><trkpt lat="46.07697512861441" lon="9.304567298049738"><ele>210.5</ele><time>2026-05-03T12:37:20.003Z</time></trkpt><trkpt lat="46.07691204799507" lon="9.304552340949867"><ele>210.0</ele><time>2026-05-03T12:37:23.003Z</time></trkpt><trkpt lat="46.07684785612192" lon="9.304532570816276"><ele>210.0</ele><time>2026-05-03T12:37:25.003Z</time></trkpt><trkpt lat="46.07674733029433" lon="9.304518830017555"><ele>210.0</ele><time>2026-05-03T12:37:26.003Z</time></trkpt><trkpt lat="46.07661539625483" lon="9.304497906752232"><ele>210.0</ele><time>2026-05-03T12:37:27.003Z</time></trkpt><trkpt lat="46.07646867901573" lon="9.304461187676333"><ele>210.0</ele><time>2026-05-03T12:37:28.003Z</time></trkpt><trkpt lat="46.07629460804419" lon="9.304416012919425"><ele>210.33333333333331</ele><time>2026-05-03T12:37:29.003Z</time></trkpt><trkpt lat="46.07609624002236" lon="9.304390137077347"><ele>210.66666666666666</ele><time>2026-05-03T12:37:30.003Z</time></trkpt><trkpt lat="46.07588582166825" lon="9.3043813141961"><ele>211.0</ele><time>2026-05-03T12:37:31.003Z</time></trkpt><trkpt lat="46.075660291442475" lon="9.304372179669889"><ele>210.33333333333331</ele><time>2026-05-03T12:37:32.003Z</time></trkpt><trkpt lat="46.07543114316112" lon="9.30438295488384"><ele>209.66666666666669</ele><time>2026-05-03T12:37:33Z</time></trkpt><trkpt lat="46.07521413188321" lon="9.30442141497"><ele>209.0</ele><time>2026-05-03T12:37:34Z</time></trkpt><trkpt lat="46.0750191837193" lon="9.30446868174583"><ele>208.66666666666669</ele><time>2026-05-03T12:37:35Z</time></trkpt><trkpt lat="46.07483471438572" lon="9.30453130680774"><ele>208.33333333333331</ele><time>2026-05-03T12:37:36Z</time></trkpt><trkpt lat="46.074660527334366" lon="9.304603287801818"><ele>208.0</ele><time>2026-05-03T12:37:37Z</time></trkpt><trkpt lat="46.07452233776025" lon="9.30467992096965"><ele>208.0</ele><time>2026-05-03T12:37:38Z</time></trkpt><trkpt lat="46.07440846878993" lon="9.304743652725948"><ele>208.0</ele><time>2026-05-03T12:37:39Z</time></trkpt><trkpt lat="46.07429642874389" lon="9.304807834482778"><ele>208.0</ele><time>2026-05-03T12:37:40Z</time></trkpt><trkpt lat="46.07418524877506" lon="9.304879708307677"><ele>208.0</ele><time>2026-05-03T12:37:41Z</time></trkpt><trkpt lat="46.07406216238841" lon="9.304974330109033"><ele>208.5</ele><time>2026-05-03T12:37:42Z</time></trkpt><trkpt lat="46.073930581286355" lon="9.305084850013221"><ele>209.0</ele><time>2026-05-03T12:37:43Z</time></trkpt><trkpt lat="46.073801380761566" lon="9.30519176622643"><ele>209.5</ele><time>2026-05-03T12:37:44Z</time></trkpt><trkpt lat="46.07368679169991" lon="9.305280152545722"><ele>210.0</ele><time>2026-05-03T12:37:45Z</time></trkpt><trkpt lat="46.07358347583407" lon="9.305360643235987"><ele>210.0</ele><time>2026-05-03T12:37:46Z</time></trkpt><trkpt lat="46.073488491565264" lon="9.305437315409712"><ele>210.0</ele><time>2026-05-03T12:37:47Z</time></trkpt><trkpt lat="46.073396174651506" lon="9.3055107147894"><ele>210.0</ele><time>2026-05-03T12:37:48Z</time></trkpt><trkpt lat="46.073301753450075" lon="9.30558535113199"><ele>210.0</ele><time>2026-05-03T12:37:49Z</time></trkpt><trkpt lat="46.07320712876563" lon="9.305658784460652"><ele>210.0</ele><time>2026-05-03T12:37:50Z</time></trkpt><trkpt lat="46.07310794825357" lon="9.305737592668361"><ele>210.0</ele><time>2026-05-03T12:37:51Z</time></trkpt><trkpt lat="46.073014917082844" lon="9.305813355276474"><ele>210.0</ele><time>2026-05-03T12:37:52Z</time></trkpt><trkpt lat="46.07291442917301" lon="9.305898578782601"><ele>210.0</ele><time>2026-05-03T12:37:53Z</time></trkpt><trkpt lat="46.072814595649234" lon="9.305985638374606"><ele>210.0</ele><time>2026-05-03T12:37:54Z</time></trkpt><trkpt lat="46.07271004523527" lon="9.306072506088483"><ele>210.0</ele><time>2026-05-03T12:37:55Z</time></trkpt><trkpt lat="46.07260558933555" lon="9.306161109958332"><ele>210.0</ele><time>2026-05-03T12:37:56Z</time></trkpt><trkpt lat="46.07249640432418" lon="9.306266853099231"><ele>210.0</ele><time>2026-05-03T12:37:57Z</time></trkpt><trkpt lat="46.07236975235857" lon="9.306361052752045"><ele>210.0</ele><time>2026-05-03T12:37:58Z</time></trkpt><trkpt lat="46.07224539385902" lon="9.306471010014663"><ele>209.0</ele><time>2026-05-03T12:37:59Z</time></trkpt><trkpt lat="46.072120694144196" lon="9.306582222762566"><ele>208.0</ele><time>2026-05-03T12:38:00Z</time></trkpt><trkpt lat="46.071987686322736" lon="9.306701910021689"><ele>207.0</ele><time>2026-05-03T12:38:01Z</time></trkpt><trkpt lat="46.0718361785874" lon="9.306839771916337"><ele>207.0</ele><time>2026-05-03T12:38:02Z</time></trkpt><trkpt lat="46.07167398642234" lon="9.306991453403201"><ele>207.0</ele><time>2026-05-03T12:38:03Z</time></trkpt><trkpt lat="46.07151170838519" lon="9.307172702243232"><ele>207.0</ele><time>2026-05-03T12:38:04Z</time></trkpt><trkpt lat="46.07132653143145" lon="9.307337958241568"><ele>206.66666666666669</ele><time>2026-05-03T12:38:05Z</time></trkpt><trkpt lat="46.07114764002431" lon="9.307513070126218"><ele>206.33333333333334</ele><time>2026-05-03T12:38:06Z</time></trkpt><trkpt lat="46.07098757227869" lon="9.307670342775001"><ele>206.0</ele><time>2026-05-03T12:38:07.001Z</time></trkpt><trkpt lat="46.07083728943508" lon="9.307815951410856"><ele>205.0</ele><time>2026-05-03T12:38:08.001Z</time></trkpt><trkpt lat="46.07069747683715" lon="9.307950708380963"><ele>204.0</ele><time>2026-05-03T12:38:09.001Z</time></trkpt><trkpt lat="46.070569906497305" lon="9.308073276368"><ele>203.0</ele><time>2026-05-03T12:38:10.001Z</time></trkpt><trkpt lat="46.07044535842207" lon="9.308199063230463"><ele>203.0</ele><time>2026-05-03T12:38:11.001Z</time></trkpt><trkpt lat="46.07032664096077" lon="9.308320505492224"><ele>203.0</ele><time>2026-05-03T12:38:12.001Z</time></trkpt><trkpt lat="46.07020589897402" lon="9.30844059364655"><ele>203.0</ele><time>2026-05-03T12:38:13.001Z</time></trkpt><trkpt lat="46.07007311859565" lon="9.308551143126037"><ele>203.0</ele><time>2026-05-03T12:38:14.001Z</time></trkpt><trkpt lat="46.06992828593712" lon="9.3086637851242"><ele>203.33333333333334</ele><time>2026-05-03T12:38:15.001Z</time></trkpt><trkpt lat="46.06978433871987" lon="9.308766412482935"><ele>203.66666666666669</ele><time>2026-05-03T12:38:16.001Z</time></trkpt><trkpt lat="46.069629658734826" lon="9.308866024580635"><ele>204.0</ele><time>2026-05-03T12:38:17.001Z</time></trkpt><trkpt lat="46.069475542041914" lon="9.308977503083112"><ele>204.33333333333331</ele><time>2026-05-03T12:38:18.001Z</time></trkpt><trkpt lat="46.06931207947463" lon="9.309092071595847"><ele>204.66666666666666</ele><time>2026-05-03T12:38:19.001Z</time></trkpt><trkpt lat="46.06913217316241" lon="9.309217741794686"><ele>205.0</ele><time>2026-05-03T12:38:20.001Z</time></trkpt><trkpt lat="46.0689524984757" lon="9.309346611292142"><ele>205.0</ele><time>2026-05-03T12:38:21.001Z</time></trkpt><trkpt lat="46.06880213039157" lon="9.309462880343554"><ele>205.0</ele><time>2026-05-03T12:38:22.001Z</time></trkpt><trkpt lat="46.068661096921296" lon="9.309562328694115"><ele>205.0</ele><time>2026-05-03T12:38:23.001Z</time></trkpt><trkpt lat="46.068512539204335" lon="9.309635768801389"><ele>205.0</ele><time>2026-05-03T12:38:24.001Z</time></trkpt><trkpt lat="46.06835737152286" lon="9.309694181449348"><ele>205.0</ele><time>2026-05-03T12:38:25.001Z</time></trkpt><trkpt lat="46.06819375329879" lon="9.309706887197711"><ele>205.0</ele><time>2026-05-03T12:38:26.001Z</time></trkpt><trkpt lat="46.068011665776275" lon="9.309695800637698"><ele>205.33333333333331</ele><time>2026-05-03T12:38:27.001Z</time></trkpt><trkpt lat="46.06782654817462" lon="9.309681764846156"><ele>205.66666666666669</ele><time>2026-05-03T12:38:28.001Z</time></trkpt><trkpt lat="46.067625608974765" lon="9.309679158715541"><ele>206.0</ele><time>2026-05-03T12:38:29.001Z</time></trkpt><trkpt lat="46.06742295524442" lon="9.309669326467251"><ele>204.66666666666669</ele><time>2026-05-03T12:38:30.001Z</time></trkpt><trkpt lat="46.06722233991854" lon="9.309635532136122"><ele>203.33333333333331</ele><time>2026-05-03T12:38:31.001Z</time></trkpt><trkpt lat="46.067024107718616" lon="9.309640625388198"><ele>202.0</ele><time>2026-05-03T12:38:32.001Z</time></trkpt><trkpt lat="46.06684522526417" lon="9.309605364744776"><ele>202.0</ele><time>2026-05-03T12:38:33.001Z</time></trkpt><trkpt lat="46.06668778167778" lon="9.309588117946168"><ele>202.0</ele><time>2026-05-03T12:38:34.001Z</time></trkpt><trkpt lat="46.06654710939361" lon="9.309596516769947"><ele>202.0</ele><time>2026-05-03T12:38:35.001Z</time></trkpt><trkpt lat="46.06640520869626" lon="9.309640663467743"><ele>202.0</ele><time>2026-05-03T12:38:36.001Z</time></trkpt><trkpt lat="46.066257078259504" lon="9.309726064370226"><ele>202.5</ele><time>2026-05-03T12:38:37.001Z</time></trkpt><trkpt lat="46.066125889428996" lon="9.309852871011282"><ele>203.0</ele><time>2026-05-03T12:38:38.002Z</time></trkpt><trkpt lat="46.06601151798836" lon="9.30996761869701"><ele>203.5</ele><time>2026-05-03T12:38:39.002Z</time></trkpt><trkpt lat="46.065921735779554" lon="9.310119259212259"><ele>204.0</ele><time>2026-05-03T12:38:40.002Z</time></trkpt><trkpt lat="46.06585275019921" lon="9.310294612595095"><ele>204.0</ele><time>2026-05-03T12:38:41.002Z</time></trkpt><trkpt lat="46.06579408338819" lon="9.31047433375885"><ele>204.0</ele><time>2026-05-03T12:38:42.002Z</time></trkpt><trkpt lat="46.06573527318639" lon="9.310616627067668"><ele>204.0</ele><time>2026-05-03T12:38:43.002Z</time></trkpt><trkpt lat="46.06565594358795" lon="9.310715383499964"><ele>204.0</ele><time>2026-05-03T12:38:44.002Z</time></trkpt><trkpt lat="46.065574775442826" lon="9.310809994485192"><ele>208.0</ele><time>2026-05-03T12:38:45.002Z</time></trkpt><trkpt lat="46.065487074426834" lon="9.310877355809719"><ele>212.0</ele><time>2026-05-03T12:38:46.002Z</time></trkpt><trkpt lat="46.06540122943597" lon="9.310909941554996"><ele>215.99999999999997</ele><time>2026-05-03T12:38:47.002Z</time></trkpt><trkpt lat="46.06530822269572" lon="9.310962228365014"><ele>220.0</ele><time>2026-05-03T12:38:48.002Z</time></trkpt><trkpt lat="46.06523280889556" lon="9.311004122348145"><ele>224.0</ele><time>2026-05-03T12:38:49.075Z</time></trkpt><trkpt lat="46.06515147110079" lon="9.311049307350112"><ele>224.0</ele><time>2026-05-03T12:38:50.061Z</time></trkpt><trkpt lat="46.06498947250309" lon="9.311139321076839"><ele>224.0</ele><time>2026-05-03T12:38:51.06Z</time></trkpt><trkpt lat="46.06489555909745" lon="9.311191927325343"><ele>224.0</ele><time>2026-05-03T12:38:52.063Z</time></trkpt><trkpt lat="46.06480334862893" lon="9.311266821047461"><ele>224.0</ele><time>2026-05-03T12:38:53.055Z</time></trkpt><trkpt lat="46.06469259117994" lon="9.311260107798681"><ele>220.79999999999998</ele><time>2026-05-03T12:38:54.048Z</time></trkpt><trkpt lat="46.06458414615184" lon="9.311304017216107"><ele>217.59999999999997</ele><time>2026-05-03T12:38:55.036Z</time></trkpt><trkpt lat="46.0644791401677" lon="9.311350603443469"><ele>214.4</ele><time>2026-05-03T12:38:56.032Z</time></trkpt><trkpt lat="46.06438431101632" lon="9.311399374825852"><ele>211.2</ele><time>2026-05-03T12:38:57.032Z</time></trkpt><trkpt lat="46.06430434410915" lon="9.311440089478651"><ele>208.0</ele><time>2026-05-03T12:38:58.032Z</time></trkpt><trkpt lat="46.06422717826766" lon="9.311476218381566"><ele>208.25</ele><time>2026-05-03T12:38:59.031Z</time></trkpt><trkpt lat="46.06414775969796" lon="9.311500483720522"><ele>208.5</ele><time>2026-05-03T12:39:00.032Z</time></trkpt><trkpt lat="46.064062541984406" lon="9.311548451867166"><ele>208.75</ele><time>2026-05-03T12:39:01.03Z</time></trkpt><trkpt lat="46.06396449760778" lon="9.311587211906822"><ele>209.0</ele><time>2026-05-03T12:39:02.031Z</time></trkpt><trkpt lat="46.06247898573265" lon="9.311921530617806"><ele>206.0</ele><time>2026-05-03T12:39:08.002Z</time></trkpt><trkpt lat="46.06234452927522" lon="9.312038100984116"><ele>203.0</ele><time>2026-05-03T12:39:09.002Z</time></trkpt><trkpt lat="46.06209950463056" lon="9.312033482822383"><ele>200.0</ele><time>2026-05-03T12:39:10.002Z</time></trkpt><trkpt lat="46.06195362026248" lon="9.312097821385382"><ele>200.0</ele><time>2026-05-03T12:39:11.003Z</time></trkpt><trkpt lat="46.061794528359435" lon="9.312137989604588"><ele>200.0</ele><time>2026-05-03T12:39:12.003Z</time></trkpt><trkpt lat="46.061653503854494" lon="9.312150096486853"><ele>200.0</ele><time>2026-05-03T12:39:13.003Z</time></trkpt><trkpt lat="46.06151267612577" lon="9.312157054615515"><ele>200.0</ele><time>2026-05-03T12:39:14.003Z</time></trkpt><trkpt lat="46.061393698459035" lon="9.312176037089372"><ele>199.5</ele><time>2026-05-03T12:39:15.003Z</time></trkpt><trkpt lat="46.061279194340756" lon="9.312221740912808"><ele>199.0</ele><time>2026-05-03T12:39:16.003Z</time></trkpt><trkpt lat="46.061166876053996" lon="9.31231778816903"><ele>198.5</ele><time>2026-05-03T12:39:17.003Z</time></trkpt><trkpt lat="46.061063611482446" lon="9.312427210200575"><ele>198.0</ele><time>2026-05-03T12:39:18.003Z</time></trkpt><trkpt lat="46.06096491314734" lon="9.312518010003918"><ele>202.25</ele><time>2026-05-03T12:39:19.003Z</time></trkpt><trkpt lat="46.06084495400874" lon="9.312546757795806"><ele>206.5</ele><time>2026-05-03T12:39:20.003Z</time></trkpt><trkpt lat="46.06071409045239" lon="9.31257580371305"><ele>210.75</ele><time>2026-05-03T12:39:21.003Z</time></trkpt><trkpt lat="46.06058170408657" lon="9.312624293234391"><ele>215.0</ele><time>2026-05-03T12:39:22.003Z</time></trkpt><trkpt lat="46.06046104834812" lon="9.312638065965873"><ele>215.0</ele><time>2026-05-03T12:39:23.003Z</time></trkpt><trkpt lat="46.06034744461962" lon="9.312643802660752"><ele>215.0</ele><time>2026-05-03T12:39:24.003Z</time></trkpt><trkpt lat="46.06021907875119" lon="9.312656934619966"><ele>215.0</ele><time>2026-05-03T12:39:25.003Z</time></trkpt><trkpt lat="46.06008666433144" lon="9.312651226937955"><ele>215.0</ele><time>2026-05-03T12:39:26.003Z</time></trkpt><trkpt lat="46.059964924395764" lon="9.312633151140414"><ele>215.75</ele><time>2026-05-03T12:39:27.003Z</time></trkpt><trkpt lat="46.0598447761314" lon="9.31261345255093"><ele>216.5</ele><time>2026-05-03T12:39:28.003Z</time></trkpt><trkpt lat="46.05972130001542" lon="9.312594721970935"><ele>217.25</ele><time>2026-05-03T12:39:29.003Z</time></trkpt><trkpt lat="46.05960411716743" lon="9.312540508058742"><ele>218.0</ele><time>2026-05-03T12:39:30.003Z</time></trkpt><trkpt lat="46.059496811628755" lon="9.31247884661615"><ele>218.0</ele><time>2026-05-03T12:39:31.003Z</time></trkpt><trkpt lat="46.05938800871681" lon="9.312440495421507"><ele>218.0</ele><time>2026-05-03T12:39:32.003Z</time></trkpt><trkpt lat="46.059280854523415" lon="9.312386830030931"><ele>218.0</ele><time>2026-05-03T12:39:33.003Z</time></trkpt><trkpt lat="46.05916327502545" lon="9.312369154852746"><ele>218.0</ele><time>2026-05-03T12:39:34.003Z</time></trkpt><trkpt lat="46.059039355467306" lon="9.312375340139043"><ele>217.25</ele><time>2026-05-03T12:39:35.003Z</time></trkpt><trkpt lat="46.05891240403574" lon="9.31239736831456"><ele>216.5</ele><time>2026-05-03T12:39:36.003Z</time></trkpt><trkpt lat="46.058785012510285" lon="9.312420511333812"><ele>215.75</ele><time>2026-05-03T12:39:37.003Z</time></trkpt><trkpt lat="46.05865726023527" lon="9.312421425638156"><ele>215.0</ele><time>2026-05-03T12:39:38.003Z</time></trkpt><trkpt lat="46.0585244530006" lon="9.312468017171655"><ele>215.0</ele><time>2026-05-03T12:39:38.999Z</time></trkpt><trkpt lat="46.05837162006627" lon="9.312502159912018"><ele>215.0</ele><time>2026-05-03T12:39:39.999Z</time></trkpt><trkpt lat="46.05821335135138" lon="9.312573372848213"><ele>215.0</ele><time>2026-05-03T12:39:40.999Z</time></trkpt><trkpt lat="46.05802254668026" lon="9.312637379678415"><ele>212.66666666666669</ele><time>2026-05-03T12:39:41.999Z</time></trkpt><trkpt lat="46.057822684778586" lon="9.312725515765543"><ele>210.33333333333331</ele><time>2026-05-03T12:39:42.999Z</time></trkpt><trkpt lat="46.057610489852465" lon="9.312819032518796"><ele>208.0</ele><time>2026-05-03T12:39:44Z</time></trkpt><trkpt lat="46.057389207697874" lon="9.31292509905447"><ele>206.66666666666666</ele><time>2026-05-03T12:39:45Z</time></trkpt><trkpt lat="46.057181644916476" lon="9.312991087453739"><ele>205.33333333333331</ele><time>2026-05-03T12:39:46Z</time></trkpt><trkpt lat="46.056986321436646" lon="9.313030562654236"><ele>204.0</ele><time>2026-05-03T12:39:47Z</time></trkpt><trkpt lat="46.0567696859467" lon="9.313062165208681"><ele>204.5</ele><time>2026-05-03T12:39:48Z</time></trkpt><trkpt lat="46.05655537857829" lon="9.313029246586094"><ele>205.0</ele><time>2026-05-03T12:39:49Z</time></trkpt><trkpt lat="46.0563082455079" lon="9.313000371938042"><ele>205.0</ele><time>2026-05-03T12:39:50Z</time></trkpt><trkpt lat="46.0560558214531" lon="9.312972093557795"><ele>205.0</ele><time>2026-05-03T12:39:51Z</time></trkpt><trkpt lat="46.055802335922415" lon="9.312944619307236"><ele>210.0</ele><time>2026-05-03T12:39:52Z</time></trkpt><trkpt lat="46.05556806826703" lon="9.31293545053149"><ele>215.0</ele><time>2026-05-03T12:39:53Z</time></trkpt><trkpt lat="46.055349326866825" lon="9.312891663295252"><ele>215.0</ele><time>2026-05-03T12:39:54Z</time></trkpt><trkpt lat="46.05513326316487" lon="9.312802760478974"><ele>215.0</ele><time>2026-05-03T12:39:55Z</time></trkpt><trkpt lat="46.054916169327115" lon="9.312678319525416"><ele>215.0</ele><time>2026-05-03T12:39:56Z</time></trkpt><trkpt lat="46.05471899172948" lon="9.312587809616263"><ele>215.0</ele><time>2026-05-03T12:39:57Z</time></trkpt><trkpt lat="46.05455478644629" lon="9.312493946111907"><ele>215.0</ele><time>2026-05-03T12:39:58Z</time></trkpt><trkpt lat="46.054377834191556" lon="9.312430251263434"><ele>215.0</ele><time>2026-05-03T12:39:59Z</time></trkpt><trkpt lat="46.05417696196608" lon="9.312419092744365"><ele>215.0</ele><time>2026-05-03T12:40:00Z</time></trkpt><trkpt lat="46.05396639671644" lon="9.312436616407565"><ele>215.0</ele><time>2026-05-03T12:40:01Z</time></trkpt><trkpt lat="46.05377964026915" lon="9.312448504931043"><ele>214.33333333333334</ele><time>2026-05-03T12:40:02Z</time></trkpt><trkpt lat="46.05360807396989" lon="9.312395792385052"><ele>213.66666666666669</ele><time>2026-05-03T12:40:03Z</time></trkpt><trkpt lat="46.053429742375855" lon="9.312296280847638"><ele>213.0</ele><time>2026-05-03T12:40:04Z</time></trkpt><trkpt lat="46.05325440200119" lon="9.312160005587227"><ele>213.0</ele><time>2026-05-03T12:40:05Z</time></trkpt><trkpt lat="46.0530721874705" lon="9.312018127478483"><ele>213.0</ele><time>2026-05-03T12:40:06.001Z</time></trkpt><trkpt lat="46.052877912775394" lon="9.311875387916226"><ele>213.0</ele><time>2026-05-03T12:40:07.001Z</time></trkpt><trkpt lat="46.05267993167865" lon="9.311721727659448"><ele>213.0</ele><time>2026-05-03T12:40:08.001Z</time></trkpt><trkpt lat="46.052475731614564" lon="9.311567247087455"><ele>213.0</ele><time>2026-05-03T12:40:09.001Z</time></trkpt><trkpt lat="46.052270985181146" lon="9.311411427058568"><ele>213.5</ele><time>2026-05-03T12:40:10.001Z</time></trkpt><trkpt lat="46.052067884337404" lon="9.311252861995651"><ele>214.0</ele><time>2026-05-03T12:40:11.001Z</time></trkpt><trkpt lat="46.05187296829078" lon="9.311094394323083"><ele>214.0</ele><time>2026-05-03T12:40:12.001Z</time></trkpt><trkpt lat="46.051676293097934" lon="9.310936463780672"><ele>214.0</ele><time>2026-05-03T12:40:13.001Z</time></trkpt><trkpt lat="46.0514710160089" lon="9.310788300462546"><ele>211.5</ele><time>2026-05-03T12:40:14.001Z</time></trkpt><trkpt lat="46.0512613878176" lon="9.310625781055169"><ele>209.0</ele><time>2026-05-03T12:40:15.001Z</time></trkpt><trkpt lat="46.05105562482437" lon="9.310463839120418"><ele>209.0</ele><time>2026-05-03T12:40:16.001Z</time></trkpt><trkpt lat="46.050886030763245" lon="9.310327456477093"><ele>209.0</ele><time>2026-05-03T12:40:17.001Z</time></trkpt><trkpt lat="46.050737926120625" lon="9.310186309097126"><ele>209.0</ele><time>2026-05-03T12:40:18.001Z</time></trkpt><trkpt lat="46.05063220848277" lon="9.309987050776478"><ele>210.33333333333334</ele><time>2026-05-03T12:40:19.001Z</time></trkpt><trkpt lat="46.05050397721546" lon="9.309793328436932"><ele>211.66666666666669</ele><time>2026-05-03T12:40:20.001Z</time></trkpt><trkpt lat="46.050384966255415" lon="9.309562029387584"><ele>213.0</ele><time>2026-05-03T12:40:21.001Z</time></trkpt><trkpt lat="46.05026123809529" lon="9.309330351663933"><ele>213.0</ele><time>2026-05-03T12:40:22.001Z</time></trkpt><trkpt lat="46.050136615988585" lon="9.30909777603019"><ele>213.0</ele><time>2026-05-03T12:40:23.001Z</time></trkpt><trkpt lat="46.0500157248288" lon="9.308874317647746"><ele>213.0</ele><time>2026-05-03T12:40:24.001Z</time></trkpt><trkpt lat="46.04990414014681" lon="9.308670156426372"><ele>216.0</ele><time>2026-05-03T12:40:25.001Z</time></trkpt><trkpt lat="46.04979138333816" lon="9.30848061910719"><ele>219.0</ele><time>2026-05-03T12:40:26.001Z</time></trkpt><trkpt lat="46.049688852974164" lon="9.30829799207805"><ele>222.0</ele><time>2026-05-03T12:40:27.001Z</time></trkpt><trkpt lat="46.04958851562134" lon="9.308111347907342"><ele>219.25</ele><time>2026-05-03T12:40:28.001Z</time></trkpt><trkpt lat="46.04949777423089" lon="9.307947026983124"><ele>216.5</ele><time>2026-05-03T12:40:29.001Z</time></trkpt><trkpt lat="46.04940995690794" lon="9.307794583942627"><ele>213.75</ele><time>2026-05-03T12:40:30.001Z</time></trkpt><trkpt lat="46.04932027441704" lon="9.307660308023916"><ele>211.0</ele><time>2026-05-03T12:40:31.001Z</time></trkpt><trkpt lat="46.04922253582421" lon="9.30753354435215"><ele>210.5</ele><time>2026-05-03T12:40:32.001Z</time></trkpt><trkpt lat="46.04911646051843" lon="9.307434689032053"><ele>210.0</ele><time>2026-05-03T12:40:33.002Z</time></trkpt><trkpt lat="46.048993555557715" lon="9.307331593145301"><ele>209.5</ele><time>2026-05-03T12:40:34.002Z</time></trkpt><trkpt lat="46.04885984030173" lon="9.307239924003579"><ele>209.0</ele><time>2026-05-03T12:40:35.002Z</time></trkpt><trkpt lat="46.048717518463874" lon="9.30715590109035"><ele>209.0</ele><time>2026-05-03T12:40:36.002Z</time></trkpt><trkpt lat="46.048558351574506" lon="9.307086038543934"><ele>209.0</ele><time>2026-05-03T12:40:37.002Z</time></trkpt><trkpt lat="46.04838263061134" lon="9.307020426801875"><ele>209.0</ele><time>2026-05-03T12:40:38.002Z</time></trkpt><trkpt lat="46.04821056553668" lon="9.306938683870476"><ele>210.0</ele><time>2026-05-03T12:40:39.002Z</time></trkpt><trkpt lat="46.048087985252366" lon="9.306824912938078"><ele>211.0</ele><time>2026-05-03T12:40:40.002Z</time></trkpt><trkpt lat="46.04797358731527" lon="9.306700013306632"><ele>212.0</ele><time>2026-05-03T12:40:41.002Z</time></trkpt><trkpt lat="46.04789515937867" lon="9.30654867174699"><ele>213.0</ele><time>2026-05-03T12:40:42.002Z</time></trkpt><trkpt lat="46.04781049170174" lon="9.306352029678981"><ele>213.0</ele><time>2026-05-03T12:40:43.002Z</time></trkpt><trkpt lat="46.047704623696625" lon="9.306104273020686"><ele>213.0</ele><time>2026-05-03T12:40:44.002Z</time></trkpt><trkpt lat="46.047620361698044" lon="9.305904405346041"><ele>213.0</ele><time>2026-05-03T12:40:45.002Z</time></trkpt><trkpt lat="46.04753483082687" lon="9.305738943027729"><ele>210.5</ele><time>2026-05-03T12:40:46.002Z</time></trkpt><trkpt lat="46.04745673020547" lon="9.305598449929441"><ele>208.0</ele><time>2026-05-03T12:40:47.002Z</time></trkpt><trkpt lat="46.04735592248853" lon="9.30550066237175"><ele>205.5</ele><time>2026-05-03T12:40:48.002Z</time></trkpt><trkpt lat="46.04723714090928" lon="9.305434936652373"><ele>203.0</ele><time>2026-05-03T12:40:49.002Z</time></trkpt><trkpt lat="46.04708286305071" lon="9.305387807531265"><ele>203.0</ele><time>2026-05-03T12:40:50.002Z</time></trkpt><trkpt lat="46.04691808882088" lon="9.305393570100422"><ele>203.0</ele><time>2026-05-03T12:40:51.002Z</time></trkpt><trkpt lat="46.04675464510715" lon="9.305430695534778"><ele>203.0</ele><time>2026-05-03T12:40:52.002Z</time></trkpt><trkpt lat="46.046542731974824" lon="9.305492709474143"><ele>203.0</ele><time>2026-05-03T12:40:53.002Z</time></trkpt><trkpt lat="46.04632339877271" lon="9.305552940533142"><ele>203.0</ele><time>2026-05-03T12:40:54.002Z</time></trkpt><trkpt lat="46.04613702547067" lon="9.305587925403705"><ele>203.0</ele><time>2026-05-03T12:40:55.002Z</time></trkpt><trkpt lat="46.045974723295856" lon="9.305560487028531"><ele>203.0</ele><time>2026-05-03T12:40:56.002Z</time></trkpt><trkpt lat="46.0458056808323" lon="9.305508046502702"><ele>203.0</ele><time>2026-05-03T12:40:57.002Z</time></trkpt><trkpt lat="46.045667180492686" lon="9.305444070848946"><ele>203.0</ele><time>2026-05-03T12:40:58.002Z</time></trkpt><trkpt lat="46.04555962421993" lon="9.30535412722399"><ele>203.0</ele><time>2026-05-03T12:40:59.002Z</time></trkpt><trkpt lat="46.04545927516513" lon="9.305218371514387"><ele>203.66666666666669</ele><time>2026-05-03T12:41:00.002Z</time></trkpt><trkpt lat="46.0453609161039" lon="9.305024414828909"><ele>204.33333333333331</ele><time>2026-05-03T12:41:01.002Z</time></trkpt><trkpt lat="46.04525592617192" lon="9.304781364956298"><ele>205.0</ele><time>2026-05-03T12:41:02.002Z</time></trkpt><trkpt lat="46.045133001946084" lon="9.304538929181403"><ele>205.0</ele><time>2026-05-03T12:41:03.002Z</time></trkpt><trkpt lat="46.045011642110524" lon="9.304282923557151"><ele>205.0</ele><time>2026-05-03T12:41:04.002Z</time></trkpt><trkpt lat="46.044846445848684" lon="9.30405265869961"><ele>205.0</ele><time>2026-05-03T12:41:05.002Z</time></trkpt><trkpt lat="46.044695457592816" lon="9.30383674615608"><ele>206.0</ele><time>2026-05-03T12:41:06.003Z</time></trkpt><trkpt lat="46.04456769341248" lon="9.303670213949047"><ele>207.0</ele><time>2026-05-03T12:41:07.003Z</time></trkpt><trkpt lat="46.044455156765515" lon="9.303512347369667"><ele>208.0</ele><time>2026-05-03T12:41:08.003Z</time></trkpt><trkpt lat="46.044324484159226" lon="9.303379883017826"><ele>208.0</ele><time>2026-05-03T12:41:09.003Z</time></trkpt><trkpt lat="46.044202863130586" lon="9.303234857074296"><ele>208.0</ele><time>2026-05-03T12:41:10.003Z</time></trkpt><trkpt lat="46.04408122991886" lon="9.303084086495796"><ele>208.0</ele><time>2026-05-03T12:41:11.003Z</time></trkpt><trkpt lat="46.04395853587526" lon="9.3028885757272"><ele>208.75</ele><time>2026-05-03T12:41:12.003Z</time></trkpt><trkpt lat="46.043839606230286" lon="9.30273705057342"><ele>209.5</ele><time>2026-05-03T12:41:13.003Z</time></trkpt><trkpt lat="46.04374910478469" lon="9.302596908302405"><ele>210.25</ele><time>2026-05-03T12:41:14.003Z</time></trkpt><trkpt lat="46.04366895571389" lon="9.302481992038482"><ele>211.0</ele><time>2026-05-03T12:41:15.003Z</time></trkpt><trkpt lat="46.04358333473907" lon="9.302390450922399"><ele>211.0</ele><time>2026-05-03T12:41:16.003Z</time></trkpt><trkpt lat="46.04346863237169" lon="9.302331904309472"><ele>211.0</ele><time>2026-05-03T12:41:17.003Z</time></trkpt><trkpt lat="46.04336175956375" lon="9.302276373346114"><ele>211.0</ele><time>2026-05-03T12:41:18.003Z</time></trkpt><trkpt lat="46.04326113063541" lon="9.30222383552788"><ele>211.0</ele><time>2026-05-03T12:41:19.003Z</time></trkpt><trkpt lat="46.04314936910388" lon="9.302235920001092"><ele>210.5</ele><time>2026-05-03T12:41:20.003Z</time></trkpt><trkpt lat="46.04303097003151" lon="9.302277375346094"><ele>210.0</ele><time>2026-05-03T12:41:21.003Z</time></trkpt><trkpt lat="46.04287016624627" lon="9.302279200217722"><ele>209.5</ele><time>2026-05-03T12:41:22.003Z</time></trkpt><trkpt lat="46.04271714473888" lon="9.302271492169362"><ele>209.0</ele><time>2026-05-03T12:41:23.003Z</time></trkpt><trkpt lat="46.042614222475976" lon="9.302255357307338"><ele>209.0</ele><time>2026-05-03T12:41:24.003Z</time></trkpt><trkpt lat="46.042533429527445" lon="9.302252716085908"><ele>209.0</ele><time>2026-05-03T12:41:26.003Z</time></trkpt><trkpt lat="46.042425632078235" lon="9.302267791699187"><ele>209.0</ele><time>2026-05-03T12:41:28.003Z</time></trkpt><trkpt lat="46.04231606372013" lon="9.30224492920637"><ele>209.0</ele><time>2026-05-03T12:41:30.003Z</time></trkpt><trkpt lat="46.04225167365557" lon="9.302243442143164"><ele>209.0</ele><time>2026-05-03T12:41:31.003Z</time></trkpt><trkpt lat="46.04213264839684" lon="9.302240572952797"><ele>208.66666666666669</ele><time>2026-05-03T12:41:33.003Z</time></trkpt><trkpt lat="46.04206536272428" lon="9.302238755624467"><ele>208.33333333333334</ele><time>2026-05-03T12:41:34.003Z</time></trkpt><trkpt lat="46.0419977849108" lon="9.302236812238059"><ele>208.0</ele><time>2026-05-03T12:41:35.003Z</time></trkpt><trkpt lat="46.041889135539115" lon="9.30223302165655"><ele>207.66666666666669</ele><time>2026-05-03T12:41:37.003Z</time></trkpt><trkpt lat="46.04176385324113" lon="9.302245148065522"><ele>207.33333333333334</ele><time>2026-05-03T12:41:39.004Z</time></trkpt><trkpt lat="46.04169972384202" lon="9.302245036708882"><ele>207.0</ele><time>2026-05-03T12:41:40.004Z</time></trkpt><trkpt lat="46.04163237505709" lon="9.30224513948112"><ele>207.0</ele><time>2026-05-03T12:41:41.004Z</time></trkpt><trkpt lat="46.041562927119145" lon="9.302242536450132"><ele>207.0</ele><time>2026-05-03T12:41:43.004Z</time></trkpt><trkpt lat="46.04147592720577" lon="9.302242244293868"><ele>207.0</ele><time>2026-05-03T12:41:46Z</time></trkpt><trkpt lat="46.04137793681087" lon="9.302231914022986"><ele>207.0</ele><time>2026-05-03T12:41:48Z</time></trkpt><trkpt lat="46.04129277077048" lon="9.302214120316053"><ele>207.0</ele><time>2026-05-03T12:41:50Z</time></trkpt><trkpt lat="46.0412168804285" lon="9.302211690161654"><ele>207.0</ele><time>2026-05-03T12:41:52Z</time></trkpt><trkpt lat="46.04114133576364" lon="9.302209271074481"><ele>207.0</ele><time>2026-05-03T12:41:53Z</time></trkpt><trkpt lat="46.041009439811035" lon="9.302206757834966"><ele>207.0</ele><time>2026-05-03T12:41:55Z</time></trkpt><trkpt lat="46.04092905265478" lon="9.302205782085668"><ele>207.0</ele><time>2026-05-03T12:41:56Z</time></trkpt><trkpt lat="46.04083752932463" lon="9.302203861130797"><ele>207.0</ele><time>2026-05-03T12:41:57Z</time></trkpt><trkpt lat="46.040729693120355" lon="9.302201972730131"><ele>207.0</ele><time>2026-05-03T12:41:58Z</time></trkpt><trkpt lat="46.040621637624945" lon="9.30220008048941"><ele>206.75</ele><time>2026-05-03T12:41:59Z</time></trkpt><trkpt lat="46.04051178685915" lon="9.302197710806459"><ele>206.5</ele><time>2026-05-03T12:42:00Z</time></trkpt><trkpt lat="46.0403957928313" lon="9.30219512886748"><ele>206.25</ele><time>2026-05-03T12:42:01Z</time></trkpt><trkpt lat="46.04027675775376" lon="9.302192579367365"><ele>206.0</ele><time>2026-05-03T12:42:02Z</time></trkpt><trkpt lat="46.04015242923009" lon="9.302189895302027"><ele>206.0</ele><time>2026-05-03T12:42:03Z</time></trkpt><trkpt lat="46.040032274342096" lon="9.302187301311239"><ele>206.0</ele><time>2026-05-03T12:42:04Z</time></trkpt><trkpt lat="46.03990364964282" lon="9.302185959408705"><ele>206.0</ele><time>2026-05-03T12:42:05Z</time></trkpt><trkpt lat="46.03977015882075" lon="9.302183748480033"><ele>206.0</ele><time>2026-05-03T12:42:06Z</time></trkpt><trkpt lat="46.03963429826427" lon="9.302180509378948"><ele>206.0</ele><time>2026-05-03T12:42:07.001Z</time></trkpt><trkpt lat="46.03950194057963" lon="9.302177353794221"><ele>206.0</ele><time>2026-05-03T12:42:08.001Z</time></trkpt><trkpt lat="46.03937125375339" lon="9.302174238033304"><ele>206.0</ele><time>2026-05-03T12:42:09.001Z</time></trkpt><trkpt lat="46.03924827100219" lon="9.302171403718267"><ele>206.0</ele><time>2026-05-03T12:42:10.001Z</time></trkpt><trkpt lat="46.039124653869294" lon="9.30216855479777"><ele>205.75</ele><time>2026-05-03T12:42:11.001Z</time></trkpt><trkpt lat="46.03900163896231" lon="9.302165717619799"><ele>205.5</ele><time>2026-05-03T12:42:12.001Z</time></trkpt><trkpt lat="46.03888012311543" lon="9.30216291501675"><ele>205.25</ele><time>2026-05-03T12:42:13.001Z</time></trkpt><trkpt lat="46.038758745964685" lon="9.302160401038519"><ele>205.0</ele><time>2026-05-03T12:42:14.001Z</time></trkpt><trkpt lat="46.03864013802311" lon="9.302158656159438"><ele>205.0</ele><time>2026-05-03T12:42:15.001Z</time></trkpt><trkpt lat="46.03852075921189" lon="9.302156895571924"><ele>205.0</ele><time>2026-05-03T12:42:16.001Z</time></trkpt><trkpt lat="46.038399204354995" lon="9.30215331652914"><ele>205.0</ele><time>2026-05-03T12:42:17.001Z</time></trkpt><trkpt lat="46.038287839587476" lon="9.302149169987583"><ele>205.0</ele><time>2026-05-03T12:42:18.001Z</time></trkpt><trkpt lat="46.03819001999197" lon="9.302133719138677"><ele>212.6</ele><time>2026-05-03T12:42:19.001Z</time></trkpt><trkpt lat="46.03809711602039" lon="9.302087165442476"><ele>220.2</ele><time>2026-05-03T12:42:20.001Z</time></trkpt><trkpt lat="46.03800199925594" lon="9.302015680627429"><ele>227.8</ele><time>2026-05-03T12:42:21.001Z</time></trkpt><trkpt lat="46.03792180823847" lon="9.301906940046843"><ele>235.4</ele><time>2026-05-03T12:42:22.001Z</time></trkpt><trkpt lat="46.03785216656036" lon="9.301782703931893"><ele>243.0</ele><time>2026-05-03T12:42:23.001Z</time></trkpt><trkpt lat="46.03779772794204" lon="9.30164416529092"><ele>243.0</ele><time>2026-05-03T12:42:24.001Z</time></trkpt><trkpt lat="46.03775548906033" lon="9.301491061794307"><ele>243.0</ele><time>2026-05-03T12:42:25.001Z</time></trkpt><trkpt lat="46.03769879276063" lon="9.301344817159995"><ele>243.0</ele><time>2026-05-03T12:42:26.001Z</time></trkpt><trkpt lat="46.0376521474475" lon="9.301188929021022"><ele>243.0</ele><time>2026-05-03T12:42:27.001Z</time></trkpt><trkpt lat="46.03760064497749" lon="9.301031722807863"><ele>243.8</ele><time>2026-05-03T12:42:28.001Z</time></trkpt><trkpt lat="46.03755349248542" lon="9.300877320822552"><ele>244.60000000000002</ele><time>2026-05-03T12:42:29.001Z</time></trkpt><trkpt lat="46.037510618540864" lon="9.30072268864539"><ele>245.39999999999998</ele><time>2026-05-03T12:42:30.001Z</time></trkpt><trkpt lat="46.037461427677975" lon="9.300595909600895"><ele>246.2</ele><time>2026-05-03T12:42:31.001Z</time></trkpt><trkpt lat="46.03738507409114" lon="9.30049285506766"><ele>247.0</ele><time>2026-05-03T12:42:32.001Z</time></trkpt><trkpt lat="46.03727924558784" lon="9.300401352228198"><ele>238.75</ele><time>2026-05-03T12:42:33.001Z</time></trkpt><trkpt lat="46.03716176581426" lon="9.30030033852455"><ele>230.5</ele><time>2026-05-03T12:42:34.001Z</time></trkpt><trkpt lat="46.037041624207774" lon="9.300195132976992"><ele>222.25</ele><time>2026-05-03T12:42:35.001Z</time></trkpt><trkpt lat="46.03692580650896" lon="9.300100185772061"><ele>214.0</ele><time>2026-05-03T12:42:36.002Z</time></trkpt><trkpt lat="46.03680951578765" lon="9.299999064362245"><ele>214.0</ele><time>2026-05-03T12:42:37.002Z</time></trkpt><trkpt lat="46.03669859829402" lon="9.299898857957766"><ele>214.0</ele><time>2026-05-03T12:42:38.002Z</time></trkpt><trkpt lat="46.036592971980426" lon="9.299807146720275"><ele>214.0</ele><time>2026-05-03T12:42:39.002Z</time></trkpt><trkpt lat="46.03649531397956" lon="9.299717975042666"><ele>214.0</ele><time>2026-05-03T12:42:40.002Z</time></trkpt><trkpt lat="46.03640185321303" lon="9.299634362032696"><ele>213.0</ele><time>2026-05-03T12:42:41.002Z</time></trkpt><trkpt lat="46.036309695957414" lon="9.299561169368905"><ele>211.99999999999997</ele><time>2026-05-03T12:42:42.002Z</time></trkpt><trkpt lat="46.03621062531756" lon="9.299504343420642"><ele>211.0</ele><time>2026-05-03T12:42:43.002Z</time></trkpt><trkpt lat="46.036108455631584" lon="9.299460986271232"><ele>210.0</ele><time>2026-05-03T12:42:44.002Z</time></trkpt><trkpt lat="46.036004410230504" lon="9.29941597646402"><ele>209.0</ele><time>2026-05-03T12:42:45.002Z</time></trkpt><trkpt lat="46.03589595368687" lon="9.299439760633435"><ele>214.2</ele><time>2026-05-03T12:42:46.002Z</time></trkpt><trkpt lat="46.0357886386567" lon="9.299455886234071"><ele>219.39999999999998</ele><time>2026-05-03T12:42:47.002Z</time></trkpt><trkpt lat="46.03568570221661" lon="9.299472237316275"><ele>224.6</ele><time>2026-05-03T12:42:48.002Z</time></trkpt><trkpt lat="46.035574041363205" lon="9.299458030620448"><ele>229.8</ele><time>2026-05-03T12:42:49.002Z</time></trkpt><trkpt lat="46.03546098451727" lon="9.299422368299693"><ele>235.0</ele><time>2026-05-03T12:42:50.002Z</time></trkpt><trkpt lat="46.03535715638193" lon="9.2993451550678"><ele>235.0</ele><time>2026-05-03T12:42:51.002Z</time></trkpt><trkpt lat="46.03524508160121" lon="9.299292671094053"><ele>235.0</ele><time>2026-05-03T12:42:52.002Z</time></trkpt><trkpt lat="46.03515175947177" lon="9.299184428529319"><ele>235.0</ele><time>2026-05-03T12:42:53.002Z</time></trkpt><trkpt lat="46.03507842705463" lon="9.299046177639818"><ele>235.0</ele><time>2026-05-03T12:42:54.002Z</time></trkpt><trkpt lat="46.03501803218135" lon="9.298892096605366"><ele>230.5</ele><time>2026-05-03T12:42:55.002Z</time></trkpt><trkpt lat="46.03497223819063" lon="9.298737188392595"><ele>226.0</ele><time>2026-05-03T12:42:56.002Z</time></trkpt><trkpt lat="46.03490565745668" lon="9.298593317929194"><ele>221.5</ele><time>2026-05-03T12:42:57.002Z</time></trkpt><trkpt lat="46.034816574086776" lon="9.298453871918813"><ele>217.0</ele><time>2026-05-03T12:42:58.002Z</time></trkpt><trkpt lat="46.03469471260504" lon="9.298329725181178"><ele>217.0</ele><time>2026-05-03T12:42:59.002Z</time></trkpt><trkpt lat="46.03455279842325" lon="9.29821643948252"><ele>217.0</ele><time>2026-05-03T12:43:00.002Z</time></trkpt><trkpt lat="46.03441938957165" lon="9.29807360161853"><ele>217.0</ele><time>2026-05-03T12:43:01.002Z</time></trkpt><trkpt lat="46.03431799959345" lon="9.29792114828596"><ele>217.0</ele><time>2026-05-03T12:43:02.002Z</time></trkpt><trkpt lat="46.034206536475" lon="9.29775372673411"><ele>217.0</ele><time>2026-05-03T12:43:03.002Z</time></trkpt><trkpt lat="46.034123251111524" lon="9.29756627772771"><ele>217.0</ele><time>2026-05-03T12:43:04.002Z</time></trkpt><trkpt lat="46.034001388411404" lon="9.297381876331775"><ele>228.0</ele><time>2026-05-03T12:43:05.002Z</time></trkpt><trkpt lat="46.03386394410238" lon="9.297200777182349"><ele>239.0</ele><time>2026-05-03T12:43:06.002Z</time></trkpt><trkpt lat="46.033719989982835" lon="9.29701959612877"><ele>250.0</ele><time>2026-05-03T12:43:07.002Z</time></trkpt><trkpt lat="46.03357973561775" lon="9.296805814467602"><ele>250.0</ele><time>2026-05-03T12:43:08.003Z</time></trkpt><trkpt lat="46.03341480682632" lon="9.296605592598468"><ele>250.0</ele><time>2026-05-03T12:43:09.003Z</time></trkpt><trkpt lat="46.033247128064254" lon="9.296386792167638"><ele>250.0</ele><time>2026-05-03T12:43:10.003Z</time></trkpt><trkpt lat="46.0330423554369" lon="9.296202134693972"><ele>244.0</ele><time>2026-05-03T12:43:11.003Z</time></trkpt><trkpt lat="46.032893242039414" lon="9.296011710728974"><ele>238.0</ele><time>2026-05-03T12:43:12.003Z</time></trkpt><trkpt lat="46.03276536247617" lon="9.295798121007698"><ele>232.0</ele><time>2026-05-03T12:43:13.003Z</time></trkpt><trkpt lat="46.03262229097664" lon="9.295551078440841"><ele>252.0</ele><time>2026-05-03T12:43:14.003Z</time></trkpt><trkpt lat="46.03246456663329" lon="9.295300071171019"><ele>272.0</ele><time>2026-05-03T12:43:15.003Z</time></trkpt><trkpt lat="46.03232482699731" lon="9.295039328156145"><ele>272.0</ele><time>2026-05-03T12:43:16.003Z</time></trkpt><trkpt lat="46.03216089604028" lon="9.294755064188038"><ele>272.0</ele><time>2026-05-03T12:43:17.003Z</time></trkpt><trkpt lat="46.03201803576753" lon="9.294430437441289"><ele>259.0</ele><time>2026-05-03T12:43:18.003Z</time></trkpt><trkpt lat="46.03188763092581" lon="9.29415326950659"><ele>246.0</ele><time>2026-05-03T12:43:19.003Z</time></trkpt><trkpt lat="46.031767076180365" lon="9.293894854798575"><ele>233.0</ele><time>2026-05-03T12:43:20.003Z</time></trkpt><trkpt lat="46.03165190610444" lon="9.293679659535591"><ele>232.0</ele><time>2026-05-03T12:43:21.003Z</time></trkpt><trkpt lat="46.03152772508288" lon="9.293459410230119"><ele>231.0</ele><time>2026-05-03T12:43:22.003Z</time></trkpt><trkpt lat="46.031365206825576" lon="9.293248109143272"><ele>230.0</ele><time>2026-05-03T12:43:23.003Z</time></trkpt><trkpt lat="46.03118908848891" lon="9.293048148896721"><ele>230.0</ele><time>2026-05-03T12:43:24.003Z</time></trkpt><trkpt lat="46.031031172622384" lon="9.292831850199137"><ele>230.0</ele><time>2026-05-03T12:43:25.003Z</time></trkpt><trkpt lat="46.03090953856306" lon="9.292592999296456"><ele>230.0</ele><time>2026-05-03T12:43:26.003Z</time></trkpt><trkpt lat="46.03079111268606" lon="9.292341254944064"><ele>240.66666666666669</ele><time>2026-05-03T12:43:27.003Z</time></trkpt><trkpt lat="46.03067722072223" lon="9.292129807080693"><ele>251.33333333333331</ele><time>2026-05-03T12:43:28.003Z</time></trkpt><trkpt lat="46.030584753749864" lon="9.291907810651793"><ele>262.0</ele><time>2026-05-03T12:43:29.003Z</time></trkpt><trkpt lat="46.03052035497617" lon="9.291695990374265"><ele>262.0</ele><time>2026-05-03T12:43:30.003Z</time></trkpt><trkpt lat="46.03050445664521" lon="9.291454138709536"><ele>262.0</ele><time>2026-05-03T12:43:31.003Z</time></trkpt><trkpt lat="46.03047261349695" lon="9.291185589444245"><ele>262.0</ele><time>2026-05-03T12:43:32.003Z</time></trkpt><trkpt lat="46.03046593095856" lon="9.290922512482407"><ele>254.66666666666666</ele><time>2026-05-03T12:43:33.003Z</time></trkpt><trkpt lat="46.030448092160086" lon="9.29070076816753"><ele>247.33333333333331</ele><time>2026-05-03T12:43:34.003Z</time></trkpt><trkpt lat="46.0303997801252" lon="9.290483320972127"><ele>240.0</ele><time>2026-05-03T12:43:35.003Z</time></trkpt><trkpt lat="46.03032003265826" lon="9.290278491299073"><ele>233.66666666666669</ele><time>2026-05-03T12:43:36.003Z</time></trkpt><trkpt lat="46.030203970836006" lon="9.290076144315854"><ele>227.33333333333334</ele><time>2026-05-03T12:43:37.003Z</time></trkpt><trkpt lat="46.030097427838434" lon="9.289865648819484"><ele>221.0</ele><time>2026-05-03T12:43:38.003Z</time></trkpt><trkpt lat="46.029999106268825" lon="9.289699095160016"><ele>222.33333333333334</ele><time>2026-05-03T12:43:39.003Z</time></trkpt><trkpt lat="46.029896341368506" lon="9.289523839448321"><ele>223.66666666666669</ele><time>2026-05-03T12:43:40.003Z</time></trkpt><trkpt lat="46.029758995947" lon="9.289371830734554"><ele>225.0</ele><time>2026-05-03T12:43:41.003Z</time></trkpt><trkpt lat="46.0295996336304" lon="9.289228294100832"><ele>225.0</ele><time>2026-05-03T12:43:42.004Z</time></trkpt><trkpt lat="46.029443255340055" lon="9.289048962116546"><ele>225.0</ele><time>2026-05-03T12:43:43.004Z</time></trkpt><trkpt lat="46.029288768974965" lon="9.288873881656137"><ele>225.0</ele><time>2026-05-03T12:43:44.004Z</time></trkpt><trkpt lat="46.0291415563978" lon="9.288734358221914"><ele>226.33333333333331</ele><time>2026-05-03T12:43:45.004Z</time></trkpt><trkpt lat="46.02902170918991" lon="9.288568508617756"><ele>227.66666666666666</ele><time>2026-05-03T12:43:46.004Z</time></trkpt><trkpt lat="46.02888737850472" lon="9.288421059031682"><ele>229.0</ele><time>2026-05-03T12:43:47.004Z</time></trkpt><trkpt lat="46.02875165790245" lon="9.288315300329108"><ele>229.0</ele><time>2026-05-03T12:43:48.004Z</time></trkpt><trkpt lat="46.02862474679612" lon="9.288206527269283"><ele>229.0</ele><time>2026-05-03T12:43:49.004Z</time></trkpt><trkpt lat="46.02849842644388" lon="9.28812686786383"><ele>229.0</ele><time>2026-05-03T12:43:50.004Z</time></trkpt><trkpt lat="46.02839861720843" lon="9.28802884985746"><ele>229.0</ele><time>2026-05-03T12:43:51Z</time></trkpt><trkpt lat="46.02829918296744" lon="9.287952953660742"><ele>233.75</ele><time>2026-05-03T12:43:52Z</time></trkpt><trkpt lat="46.02821570110969" lon="9.287881850573996"><ele>238.5</ele><time>2026-05-03T12:43:53Z</time></trkpt><trkpt lat="46.02813095904626" lon="9.287783207343109"><ele>243.25</ele><time>2026-05-03T12:43:54Z</time></trkpt><trkpt lat="46.02806495244477" lon="9.287642675967398"><ele>248.0</ele><time>2026-05-03T12:43:55Z</time></trkpt><trkpt lat="46.028004009570765" lon="9.28743415377061"><ele>241.33333333333334</ele><time>2026-05-03T12:43:56Z</time></trkpt><trkpt lat="46.02792595498786" lon="9.287201468749888"><ele>234.66666666666669</ele><time>2026-05-03T12:43:57Z</time></trkpt><trkpt lat="46.02784120160788" lon="9.286943011869566"><ele>228.0</ele><time>2026-05-03T12:43:58Z</time></trkpt><trkpt lat="46.0277320293061" lon="9.286703658727236"><ele>228.0</ele><time>2026-05-03T12:43:59Z</time></trkpt><trkpt lat="46.02762734455908" lon="9.286487216444472"><ele>228.0</ele><time>2026-05-03T12:44:00Z</time></trkpt><trkpt lat="46.02748799379966" lon="9.286265827335747"><ele>228.0</ele><time>2026-05-03T12:44:01Z</time></trkpt><trkpt lat="46.0273323561068" lon="9.286048561320658"><ele>241.0</ele><time>2026-05-03T12:44:02Z</time></trkpt><trkpt lat="46.0271442523955" lon="9.285827144360802"><ele>254.0</ele><time>2026-05-03T12:44:03Z</time></trkpt><trkpt lat="46.02697143973496" lon="9.2855999000302"><ele>260.6666666666667</ele><time>2026-05-03T12:44:04Z</time></trkpt><trkpt lat="46.026826798017105" lon="9.285382025580352"><ele>267.3333333333333</ele><time>2026-05-03T12:44:05Z</time></trkpt><trkpt lat="46.026719531942675" lon="9.285167167047954"><ele>274.0</ele><time>2026-05-03T12:44:06Z</time></trkpt><trkpt lat="46.02662750449863" lon="9.284956309850458"><ele>253.0</ele><time>2026-05-03T12:44:07Z</time></trkpt><trkpt lat="46.02653037978004" lon="9.284715369244932"><ele>232.0</ele><time>2026-05-03T12:44:08Z</time></trkpt><trkpt lat="46.02641240558447" lon="9.284473146455193"><ele>211.0</ele><time>2026-05-03T12:44:09Z</time></trkpt><trkpt lat="46.026335897468805" lon="9.284256975482103"><ele>211.0</ele><time>2026-05-03T12:44:10Z</time></trkpt><trkpt lat="46.02625688003582" lon="9.284098478538304"><ele>211.0</ele><time>2026-05-03T12:44:11Z</time></trkpt><trkpt lat="46.026168031970585" lon="9.28401918801632"><ele>211.0</ele><time>2026-05-03T12:44:12.001Z</time></trkpt><trkpt lat="46.02605067358098" lon="9.283983630284"><ele>211.0</ele><time>2026-05-03T12:44:13.001Z</time></trkpt><trkpt lat="46.025918073323325" lon="9.284012128623738"><ele>211.75</ele><time>2026-05-03T12:44:14.001Z</time></trkpt><trkpt lat="46.025790810452456" lon="9.284085037065783"><ele>212.5</ele><time>2026-05-03T12:44:15.001Z</time></trkpt><trkpt lat="46.02564667351398" lon="9.284131623940876"><ele>213.25</ele><time>2026-05-03T12:44:16.001Z</time></trkpt><trkpt lat="46.02550925046513" lon="9.284210207049634"><ele>214.0</ele><time>2026-05-03T12:44:17.001Z</time></trkpt><trkpt lat="46.02536247087207" lon="9.284257631225142"><ele>214.0</ele><time>2026-05-03T12:44:18.001Z</time></trkpt><trkpt lat="46.02521198907687" lon="9.284306101933153"><ele>214.0</ele><time>2026-05-03T12:44:19.001Z</time></trkpt><trkpt lat="46.02506243686484" lon="9.284353337822157"><ele>214.0</ele><time>2026-05-03T12:44:20.001Z</time></trkpt><trkpt lat="46.02486364338681" lon="9.284422663169073"><ele>206.0</ele><time>2026-05-03T12:44:21.001Z</time></trkpt><trkpt lat="46.024570264747325" lon="9.284624765232824"><ele>198.0</ele><time>2026-05-03T12:44:22.001Z</time></trkpt><trkpt lat="46.02427643702589" lon="9.284755081524489"><ele>200.0</ele><time>2026-05-03T12:44:23.001Z</time></trkpt><trkpt lat="46.024007554178176" lon="9.284926597050996"><ele>202.0</ele><time>2026-05-03T12:44:24.001Z</time></trkpt><trkpt lat="46.02388511673562" lon="9.285103957565898"><ele>202.0</ele><time>2026-05-03T12:44:25.001Z</time></trkpt><trkpt lat="46.023717402178356" lon="9.285306194816924"><ele>202.0</ele><time>2026-05-03T12:44:26.001Z</time></trkpt><trkpt lat="46.0235762630041" lon="9.285491490623308"><ele>202.0</ele><time>2026-05-03T12:44:27.001Z</time></trkpt><trkpt lat="46.02344630949284" lon="9.285662235384677"><ele>211.33333333333331</ele><time>2026-05-03T12:44:28.001Z</time></trkpt><trkpt lat="46.02329904430135" lon="9.285845308512911"><ele>220.66666666666669</ele><time>2026-05-03T12:44:29.001Z</time></trkpt><trkpt lat="46.02316201467475" lon="9.285998094351498"><ele>230.0</ele><time>2026-05-03T12:44:30.001Z</time></trkpt><trkpt lat="46.023025656810425" lon="9.286095235945162"><ele>230.0</ele><time>2026-05-03T12:44:31.001Z</time></trkpt><trkpt lat="46.022878849874665" lon="9.286183330207022"><ele>230.0</ele><time>2026-05-03T12:44:32.001Z</time></trkpt><trkpt lat="46.02271157316863" lon="9.286282995275464"><ele>230.0</ele><time>2026-05-03T12:44:33.001Z</time></trkpt><trkpt lat="46.02255894068421" lon="9.286372290196232"><ele>252.75</ele><time>2026-05-03T12:44:34.001Z</time></trkpt><trkpt lat="46.022401959933816" lon="9.286464129115332"><ele>275.5</ele><time>2026-05-03T12:44:35.001Z</time></trkpt><trkpt lat="46.02225958461957" lon="9.286531151881503"><ele>298.25</ele><time>2026-05-03T12:44:36.001Z</time></trkpt><trkpt lat="46.022142716528776" lon="9.286565739639693"><ele>321.0</ele><time>2026-05-03T12:44:37.001Z</time></trkpt><trkpt lat="46.0219643899586" lon="9.286638794416293"><ele>321.0</ele><time>2026-05-03T12:44:38.042Z</time></trkpt><trkpt lat="46.02178395023284" lon="9.286717806281159"><ele>321.0</ele><time>2026-05-03T12:44:39.039Z</time></trkpt><trkpt lat="46.02161134794211" lon="9.286802282759261"><ele>321.0</ele><time>2026-05-03T12:44:40.039Z</time></trkpt><trkpt lat="46.02008113187086" lon="9.287047168482784"><ele>206.0</ele><time>2026-05-03T12:44:43.222Z</time></trkpt><trkpt lat="46.019614281893475" lon="9.286786730938141"><ele>206.0</ele><time>2026-05-03T12:44:44.218Z</time></trkpt><trkpt lat="46.01918237778926" lon="9.28707467914296"><ele>203.5</ele><time>2026-05-03T12:44:52.002Z</time></trkpt><trkpt lat="46.0190039695677" lon="9.287128435803965"><ele>201.0</ele><time>2026-05-03T12:44:53.002Z</time></trkpt><trkpt lat="46.018672945323196" lon="9.286879335431749"><ele>201.0</ele><time>2026-05-03T12:44:54.002Z</time></trkpt><trkpt lat="46.018509588491696" lon="9.287003583326634"><ele>201.0</ele><time>2026-05-03T12:44:55.002Z</time></trkpt><trkpt lat="46.01839151362181" lon="9.287083000962179"><ele>201.0</ele><time>2026-05-03T12:44:56.002Z</time></trkpt><trkpt lat="46.01831655815937" lon="9.28715893461655"><ele>201.0</ele><time>2026-05-03T12:44:57.002Z</time></trkpt><trkpt lat="46.01825081148949" lon="9.287234346481267"><ele>201.4</ele><time>2026-05-03T12:44:58.002Z</time></trkpt><trkpt lat="46.01817457725866" lon="9.287224620566358"><ele>201.8</ele><time>2026-05-03T12:44:59.002Z</time></trkpt><trkpt lat="46.01810326658678" lon="9.287226505296276"><ele>202.20000000000002</ele><time>2026-05-03T12:45:00.002Z</time></trkpt><trkpt lat="46.01803364448845" lon="9.28730029713963"><ele>202.60000000000002</ele><time>2026-05-03T12:45:01.002Z</time></trkpt><trkpt lat="46.017920755627586" lon="9.28731498529371"><ele>203.0</ele><time>2026-05-03T12:45:02.002Z</time></trkpt><trkpt lat="46.017786291934435" lon="9.287322753451678"><ele>209.0</ele><time>2026-05-03T12:45:03.002Z</time></trkpt><trkpt lat="46.01764211883335" lon="9.28733576136874"><ele>215.0</ele><time>2026-05-03T12:45:04.002Z</time></trkpt><trkpt lat="46.017494108599955" lon="9.287313471584413"><ele>221.0</ele><time>2026-05-03T12:45:05.002Z</time></trkpt><trkpt lat="46.01735291321465" lon="9.287330861456796"><ele>227.0</ele><time>2026-05-03T12:45:06.002Z</time></trkpt><trkpt lat="46.01721763987043" lon="9.28734011828732"><ele>227.0</ele><time>2026-05-03T12:45:07.002Z</time></trkpt><trkpt lat="46.01707724264216" lon="9.287312902323063"><ele>227.0</ele><time>2026-05-03T12:45:08.002Z</time></trkpt><trkpt lat="46.016989867779415" lon="9.287251963847947"><ele>227.0</ele><time>2026-05-03T12:45:09.002Z</time></trkpt><trkpt lat="46.01688099394602" lon="9.287148252223767"><ele>227.0</ele><time>2026-05-03T12:45:10.002Z</time></trkpt><trkpt lat="46.01676118664649" lon="9.287031589148286"><ele>225.83333333333334</ele><time>2026-05-03T12:45:11.002Z</time></trkpt><trkpt lat="46.0166688884012" lon="9.28694043942209"><ele>224.66666666666669</ele><time>2026-05-03T12:45:12.002Z</time></trkpt><trkpt lat="46.01659365433018" lon="9.286859038323477"><ele>223.5</ele><time>2026-05-03T12:45:13.002Z</time></trkpt><trkpt lat="46.016530792876274" lon="9.286783868370335"><ele>222.33333333333331</ele><time>2026-05-03T12:45:14.002Z</time></trkpt><trkpt lat="46.016473298728144" lon="9.286692029125039"><ele>221.16666666666666</ele><time>2026-05-03T12:45:15.002Z</time></trkpt><trkpt lat="46.016433352352024" lon="9.286603347114312"><ele>220.0</ele><time>2026-05-03T12:45:16.002Z</time></trkpt><trkpt lat="46.01638798104603" lon="9.28652918376167"><ele>219.16666666666666</ele><time>2026-05-03T12:45:17.003Z</time></trkpt><trkpt lat="46.01632748552546" lon="9.286367128390694"><ele>218.33333333333331</ele><time>2026-05-03T12:45:19.003Z</time></trkpt><trkpt lat="46.01628951400931" lon="9.286278011017087"><ele>217.5</ele><time>2026-05-03T12:45:20.003Z</time></trkpt><trkpt lat="46.016250370953" lon="9.286189158031117"><ele>216.66666666666669</ele><time>2026-05-03T12:45:21.003Z</time></trkpt><trkpt lat="46.016210278915565" lon="9.286091459708866"><ele>215.83333333333334</ele><time>2026-05-03T12:45:22.003Z</time></trkpt><trkpt lat="46.016180271514486" lon="9.285993464918285"><ele>215.0</ele><time>2026-05-03T12:45:23.003Z</time></trkpt><trkpt lat="46.01613665217688" lon="9.285891046370995"><ele>215.0</ele><time>2026-05-03T12:45:24.003Z</time></trkpt><trkpt lat="46.01608627583508" lon="9.28573776557725"><ele>215.0</ele><time>2026-05-03T12:45:25.003Z</time></trkpt><trkpt lat="46.01601612172831" lon="9.28560176641763"><ele>215.0</ele><time>2026-05-03T12:45:26.003Z</time></trkpt><trkpt lat="46.015951404807" lon="9.28542945836857"><ele>215.0</ele><time>2026-05-03T12:45:27.003Z</time></trkpt><trkpt lat="46.01587679091352" lon="9.2852474982132"><ele>214.0</ele><time>2026-05-03T12:45:28.003Z</time></trkpt><trkpt lat="46.01580494400517" lon="9.285084629819169"><ele>213.0</ele><time>2026-05-03T12:45:29.003Z</time></trkpt><trkpt lat="46.01572647911363" lon="9.284969419138472"><ele>212.0</ele><time>2026-05-03T12:45:30.003Z</time></trkpt><trkpt lat="46.015617712822845" lon="9.284869310924535"><ele>211.0</ele><time>2026-05-03T12:45:31.003Z</time></trkpt><trkpt lat="46.015529478021" lon="9.284817714200184"><ele>211.0</ele><time>2026-05-03T12:45:32.003Z</time></trkpt><trkpt lat="46.01545243064637" lon="9.284782242271474"><ele>211.0</ele><time>2026-05-03T12:45:34.003Z</time></trkpt><trkpt lat="46.015572214635355" lon="9.284829027694718"><ele>211.0</ele><time>2026-05-03T12:45:41.003Z</time></trkpt><trkpt lat="46.015646437994974" lon="9.284947544829942"><ele>211.0</ele><time>2026-05-03T12:45:42.003Z</time></trkpt><trkpt lat="46.01572820367437" lon="9.285028599241965"><ele>211.0</ele><time>2026-05-03T12:45:43.003Z</time></trkpt><trkpt lat="46.01581730698454" lon="9.285158984820681"><ele>211.33333333333331</ele><time>2026-05-03T12:45:44.003Z</time></trkpt><trkpt lat="46.015903338020955" lon="9.285349597156838"><ele>211.66666666666669</ele><time>2026-05-03T12:45:45.003Z</time></trkpt><trkpt lat="46.015995012008354" lon="9.285569858985696"><ele>212.0</ele><time>2026-05-03T12:45:46.003Z</time></trkpt><trkpt lat="46.01608771239554" lon="9.285815852158573"><ele>213.0</ele><time>2026-05-03T12:45:47.003Z</time></trkpt><trkpt lat="46.01619007706368" lon="9.286074125774839"><ele>214.0</ele><time>2026-05-03T12:45:48.003Z</time></trkpt><trkpt lat="46.01628897678437" lon="9.286348926991753"><ele>215.0</ele><time>2026-05-03T12:45:49.003Z</time></trkpt><trkpt lat="46.016377261348346" lon="9.286585554015033"><ele>216.66666666666669</ele><time>2026-05-03T12:45:50.003Z</time></trkpt><trkpt lat="46.016473390707006" lon="9.286780976622492"><ele>218.33333333333331</ele><time>2026-05-03T12:45:51.004Z</time></trkpt><trkpt lat="46.01658635602137" lon="9.286944378792134"><ele>220.0</ele><time>2026-05-03T12:45:52.004Z</time></trkpt><trkpt lat="46.01675286355848" lon="9.287097298960282"><ele>221.75</ele><time>2026-05-03T12:45:53.004Z</time></trkpt><trkpt lat="46.01690610453553" lon="9.287237283685876"><ele>223.5</ele><time>2026-05-03T12:45:54.004Z</time></trkpt><trkpt lat="46.017032521318455" lon="9.287338265215027"><ele>225.25</ele><time>2026-05-03T12:45:55.004Z</time></trkpt><trkpt lat="46.0171514818563" lon="9.287383894536429"><ele>227.0</ele><time>2026-05-03T12:45:56.004Z</time></trkpt><trkpt lat="46.01726592650093" lon="9.28739188145867"><ele>227.0</ele><time>2026-05-03T12:45:57Z</time></trkpt><trkpt lat="46.017392942697256" lon="9.287393923912521"><ele>227.0</ele><time>2026-05-03T12:45:58Z</time></trkpt><trkpt lat="46.01752947493026" lon="9.287403289391115"><ele>227.0</ele><time>2026-05-03T12:45:59Z</time></trkpt><trkpt lat="46.01766905296954" lon="9.287423851645242"><ele>227.0</ele><time>2026-05-03T12:46:00Z</time></trkpt><trkpt lat="46.01781628076647" lon="9.287451819738934"><ele>229.0</ele><time>2026-05-03T12:46:01Z</time></trkpt><trkpt lat="46.01798062464861" lon="9.2874722397184"><ele>231.0</ele><time>2026-05-03T12:46:02Z</time></trkpt><trkpt lat="46.01804764089834" lon="9.287360004329319"><ele>233.0</ele><time>2026-05-03T12:46:03Z</time></trkpt><trkpt lat="46.01803903574156" lon="9.287462550418493"><ele>235.0</ele><time>2026-05-03T12:46:06Z</time></trkpt><trkpt lat="46.017953161855466" lon="9.287534116560423"><ele>237.0</ele><time>2026-05-03T12:46:07Z</time></trkpt><trkpt lat="46.01783304778417" lon="9.287567736155317"><ele>237.0</ele><time>2026-05-03T12:46:08Z</time></trkpt><trkpt lat="46.017726048561734" lon="9.287645665300952"><ele>237.0</ele><time>2026-05-03T12:46:09Z</time></trkpt><trkpt lat="46.01761165642528" lon="9.287721624798943"><ele>237.0</ele><time>2026-05-03T12:46:10Z</time></trkpt><trkpt lat="46.017510029508436" lon="9.287782687170592"><ele>237.0</ele><time>2026-05-03T12:46:11Z</time></trkpt><trkpt lat="46.01739384531271" lon="9.287822045082684"><ele>234.5</ele><time>2026-05-03T12:46:12Z</time></trkpt><trkpt lat="46.01726302564213" lon="9.287865899522945"><ele>232.0</ele><time>2026-05-03T12:46:13Z</time></trkpt><trkpt lat="46.01714389489015" lon="9.287895361322528"><ele>229.5</ele><time>2026-05-03T12:46:14Z</time></trkpt><trkpt lat="46.01702135498254" lon="9.287933780382277"><ele>227.0</ele><time>2026-05-03T12:46:15.071Z</time></trkpt><trkpt lat="46.0169128730986" lon="9.287946760586646"><ele>227.0</ele><time>2026-05-03T12:46:16.047Z</time></trkpt><trkpt lat="46.016806453262966" lon="9.287970412113452"><ele>227.0</ele><time>2026-05-03T12:46:17.044Z</time></trkpt><trkpt lat="46.016671745531546" lon="9.287978109180042"><ele>227.0</ele><time>2026-05-03T12:46:18.044Z</time></trkpt><trkpt lat="46.01654701067249" lon="9.287965217686395"><ele>227.0</ele><time>2026-05-03T12:46:19.04Z</time></trkpt><trkpt lat="46.015117459551206" lon="9.2880979921401"><ele>224.0</ele><time>2026-05-03T12:46:22.224Z</time></trkpt><trkpt lat="46.014667576054826" lon="9.288138376042161"><ele>265.0</ele><time>2026-05-03T12:46:23.225Z</time></trkpt><trkpt lat="46.01377006623538" lon="9.28816538061368"><ele>265.0</ele><time>2026-05-03T12:46:25.221Z</time></trkpt><trkpt lat="46.01370349331222" lon="9.288144203466286"><ele>265.0</ele><time>2026-05-03T12:46:28.001Z</time></trkpt><trkpt lat="46.01351159202754" lon="9.288152044323432"><ele>265.0</ele><time>2026-05-03T12:46:29.001Z</time></trkpt><trkpt lat="46.01331266696326" lon="9.28816017216617"><ele>361.0</ele><time>2026-05-03T12:46:30.001Z</time></trkpt><trkpt lat="46.01129421785183" lon="9.288459279107173"><ele>361.0</ele><time>2026-05-03T12:46:36.226Z</time></trkpt><trkpt lat="46.01085250595196" lon="9.288581143411555"><ele>348.0</ele><time>2026-05-03T12:46:37.226Z</time></trkpt><trkpt lat="46.010413241108836" lon="9.288718855620816"><ele>342.0</ele><time>2026-05-03T12:46:38.225Z</time></trkpt><trkpt lat="46.00997843863802" lon="9.288873855052424"><ele>336.0</ele><time>2026-05-03T12:46:39.221Z</time></trkpt><trkpt lat="46.009542565727514" lon="9.289044915039673"><ele>284.0</ele><time>2026-05-03T12:46:40.226Z</time></trkpt><trkpt lat="46.00910914827444" lon="9.289216766385147"><ele>284.0</ele><time>2026-05-03T12:46:41.225Z</time></trkpt><trkpt lat="46.00867535923405" lon="9.28938876506613"><ele>218.0</ele><time>2026-05-03T12:46:42.226Z</time></trkpt><trkpt lat="46.00512452510875" lon="9.290913488421465"><ele>212.66666666666669</ele><time>2026-05-03T12:47:07.002Z</time></trkpt><trkpt lat="46.00497992220386" lon="9.29102606986538"><ele>207.33333333333331</ele><time>2026-05-03T12:47:08.002Z</time></trkpt><trkpt lat="46.00492949983258" lon="9.291228840834862"><ele>202.0</ele><time>2026-05-03T12:47:09.002Z</time></trkpt><trkpt lat="46.004793693337135" lon="9.29131743785469"><ele>202.0</ele><time>2026-05-03T12:47:10.002Z</time></trkpt><trkpt lat="46.004677089335566" lon="9.291383563844057"><ele>202.0</ele><time>2026-05-03T12:47:11.002Z</time></trkpt><trkpt lat="46.00454874715092" lon="9.29141250208056"><ele>202.0</ele><time>2026-05-03T12:47:12.002Z</time></trkpt><trkpt lat="46.004415366146084" lon="9.291422357850319"><ele>202.0</ele><time>2026-05-03T12:47:13.002Z</time></trkpt><trkpt lat="46.00425528683545" lon="9.291451525919069"><ele>205.33333333333331</ele><time>2026-05-03T12:47:14.002Z</time></trkpt><trkpt lat="46.00408940699299" lon="9.291456689812026"><ele>208.66666666666669</ele><time>2026-05-03T12:47:15.002Z</time></trkpt><trkpt lat="46.00391828784363" lon="9.291498442285391"><ele>212.0</ele><time>2026-05-03T12:47:16.002Z</time></trkpt><trkpt lat="46.00373620036449" lon="9.291586142225439"><ele>212.0</ele><time>2026-05-03T12:47:17.002Z</time></trkpt><trkpt lat="46.003558140356745" lon="9.291694892970808"><ele>212.0</ele><time>2026-05-03T12:47:18.002Z</time></trkpt><trkpt lat="46.00336671898223" lon="9.291795449066115"><ele>212.0</ele><time>2026-05-03T12:47:19.002Z</time></trkpt><trkpt lat="46.00317111087088" lon="9.29186825604187"><ele>210.0</ele><time>2026-05-03T12:47:20.002Z</time></trkpt><trkpt lat="46.00297443810162" lon="9.291943398519393"><ele>208.0</ele><time>2026-05-03T12:47:21.002Z</time></trkpt><trkpt lat="46.00277364857309" lon="9.291992574591527"><ele>206.0</ele><time>2026-05-03T12:47:22.002Z</time></trkpt><trkpt lat="46.00258702915299" lon="9.292011686847555"><ele>206.33333333333334</ele><time>2026-05-03T12:47:23.002Z</time></trkpt><trkpt lat="46.00241826329916" lon="9.292007217932554"><ele>206.66666666666669</ele><time>2026-05-03T12:47:24.002Z</time></trkpt><trkpt lat="46.002235947323214" lon="9.291989062442184"><ele>207.0</ele><time>2026-05-03T12:47:25.002Z</time></trkpt><trkpt lat="46.002048052383806" lon="9.291970946732274"><ele>207.0</ele><time>2026-05-03T12:47:26.003Z</time></trkpt><trkpt lat="46.001854095812945" lon="9.291957725618825"><ele>207.0</ele><time>2026-05-03T12:47:27.003Z</time></trkpt><trkpt lat="46.00168462270188" lon="9.291941098465298"><ele>207.0</ele><time>2026-05-03T12:47:28.003Z</time></trkpt><trkpt lat="46.00152933850923" lon="9.29190497288208"><ele>206.2</ele><time>2026-05-03T12:47:29.003Z</time></trkpt><trkpt lat="46.00138852816354" lon="9.291844472722369"><ele>205.39999999999998</ele><time>2026-05-03T12:47:30.003Z</time></trkpt><trkpt lat="46.00127046168043" lon="9.291775205618379"><ele>204.60000000000002</ele><time>2026-05-03T12:47:31.003Z</time></trkpt><trkpt lat="46.00118929738452" lon="9.291719131232938"><ele>203.8</ele><time>2026-05-03T12:47:32.003Z</time></trkpt><trkpt lat="46.00112412153816" lon="9.291674103228969"><ele>203.0</ele><time>2026-05-03T12:47:33.003Z</time></trkpt><trkpt lat="46.00105819194349" lon="9.291666774570155"><ele>203.0</ele><time>2026-05-03T12:47:34.003Z</time></trkpt><trkpt lat="46.000986380301704" lon="9.291632880421918"><ele>203.0</ele><time>2026-05-03T12:47:35.003Z</time></trkpt><trkpt lat="46.000894864505575" lon="9.29158076903404"><ele>203.0</ele><time>2026-05-03T12:47:36.003Z</time></trkpt><trkpt lat="46.000794143299615" lon="9.291571059777587"><ele>203.0</ele><time>2026-05-03T12:47:37.003Z</time></trkpt><trkpt lat="46.00069588174391" lon="9.291589136583665"><ele>203.0</ele><time>2026-05-03T12:47:38.003Z</time></trkpt><trkpt lat="46.000595695021374" lon="9.291615521501294"><ele>202.8</ele><time>2026-05-03T12:47:39.003Z</time></trkpt><trkpt lat="46.00049258189715" lon="9.291643575926066"><ele>202.60000000000002</ele><time>2026-05-03T12:47:40.003Z</time></trkpt><trkpt lat="46.00038892843203" lon="9.291671995245839"><ele>202.39999999999998</ele><time>2026-05-03T12:47:41.003Z</time></trkpt><trkpt lat="46.00028009512601" lon="9.291705204278147"><ele>202.2</ele><time>2026-05-03T12:47:42.003Z</time></trkpt><trkpt lat="46.000160878232414" lon="9.291741581695138"><ele>202.0</ele><time>2026-05-03T12:47:43.003Z</time></trkpt><trkpt lat="46.00002798215955" lon="9.291782133236755"><ele>202.0</ele><time>2026-05-03T12:47:44.003Z</time></trkpt><trkpt lat="45.99989814532183" lon="9.29182155191086"><ele>202.0</ele><time>2026-05-03T12:47:45.003Z</time></trkpt><trkpt lat="45.999769745148214" lon="9.291860725249085"><ele>202.0</ele><time>2026-05-03T12:47:46.003Z</time></trkpt><trkpt lat="45.9996440860797" lon="9.291899492018949"><ele>202.0</ele><time>2026-05-03T12:47:47.003Z</time></trkpt><trkpt lat="45.99952384718595" lon="9.291959598733682"><ele>202.0</ele><time>2026-05-03T12:47:48.003Z</time></trkpt><trkpt lat="45.99940109974016" lon="9.29196728939763"><ele>202.0</ele><time>2026-05-03T12:47:49.003Z</time></trkpt><trkpt lat="45.99928873946714" lon="9.291987082710223"><ele>202.0</ele><time>2026-05-03T12:47:50.003Z</time></trkpt><trkpt lat="45.99916485932775" lon="9.292000318032173"><ele>202.0</ele><time>2026-05-03T12:47:51.003Z</time></trkpt><trkpt lat="45.999042263670596" lon="9.292020244968446"><ele>201.5</ele><time>2026-05-03T12:47:52.003Z</time></trkpt><trkpt lat="45.99892235331175" lon="9.292075993663582"><ele>201.0</ele><time>2026-05-03T12:47:53.003Z</time></trkpt><trkpt lat="45.9988039137938" lon="9.292117927465897"><ele>200.5</ele><time>2026-05-03T12:47:54.003Z</time></trkpt><trkpt lat="45.99868385291642" lon="9.292135813093312"><ele>200.0</ele><time>2026-05-03T12:47:55.003Z</time></trkpt><trkpt lat="45.99856186973747" lon="9.292177446057096"><ele>200.0</ele><time>2026-05-03T12:47:56.003Z</time></trkpt><trkpt lat="45.998443525797356" lon="9.292216606003098"><ele>200.0</ele><time>2026-05-03T12:47:57.003Z</time></trkpt><trkpt lat="45.99833607093962" lon="9.292250483390957"><ele>200.0</ele><time>2026-05-03T12:47:58.003Z</time></trkpt><trkpt lat="45.99823126102898" lon="9.292280625477098"><ele>200.0</ele><time>2026-05-03T12:47:59.003Z</time></trkpt><trkpt lat="45.99813667431436" lon="9.292272840328113"><ele>200.0</ele><time>2026-05-03T12:48:00.003Z</time></trkpt><trkpt lat="45.99803500154252" lon="9.292261682315422"><ele>200.2</ele><time>2026-05-03T12:48:01.004Z</time></trkpt><trkpt lat="45.99794249595395" lon="9.292245744873044"><ele>200.4</ele><time>2026-05-03T12:48:02.004Z</time></trkpt><trkpt lat="45.99784740270661" lon="9.292226801000673"><ele>200.60000000000002</ele><time>2026-05-03T12:48:03Z</time></trkpt><trkpt lat="45.997744918340054" lon="9.292204373317551"><ele>200.8</ele><time>2026-05-03T12:48:04Z</time></trkpt><trkpt lat="45.9976376213618" lon="9.292168045442816"><ele>201.0</ele><time>2026-05-03T12:48:05.001Z</time></trkpt><trkpt lat="45.99754100787474" lon="9.292124881644641"><ele>201.5</ele><time>2026-05-03T12:48:06.001Z</time></trkpt><trkpt lat="45.99744721203126" lon="9.292071188007"><ele>202.0</ele><time>2026-05-03T12:48:07Z</time></trkpt><trkpt lat="45.99734570552022" lon="9.292012862996366"><ele>202.5</ele><time>2026-05-03T12:48:08.001Z</time></trkpt><trkpt lat="45.997238377726944" lon="9.291951207523072"><ele>203.0</ele><time>2026-05-03T12:48:09Z</time></trkpt><trkpt lat="45.99711889336311" lon="9.291882642097677"><ele>203.0</ele><time>2026-05-03T12:48:10Z</time></trkpt><trkpt lat="45.996979889017894" lon="9.291802875269788"><ele>203.0</ele><time>2026-05-03T12:48:11.001Z</time></trkpt><trkpt lat="45.99683729359556" lon="9.291723669426824"><ele>203.0</ele><time>2026-05-03T12:48:12Z</time></trkpt><trkpt lat="45.99670317187959" lon="9.291650640635678"><ele>203.0</ele><time>2026-05-03T12:48:13Z</time></trkpt><trkpt lat="45.9965674517617" lon="9.291598409263012"><ele>202.66666666666669</ele><time>2026-05-03T12:48:14Z</time></trkpt><trkpt lat="45.99642347901837" lon="9.291548981126004"><ele>202.33333333333331</ele><time>2026-05-03T12:48:15Z</time></trkpt><trkpt lat="45.99626027547684" lon="9.29154262078958"><ele>202.0</ele><time>2026-05-03T12:48:16Z</time></trkpt><trkpt lat="45.99607620447137" lon="9.291515576815577"><ele>202.0</ele><time>2026-05-03T12:48:17Z</time></trkpt><trkpt lat="45.99588318745925" lon="9.291491148530918"><ele>202.0</ele><time>2026-05-03T12:48:18Z</time></trkpt><trkpt lat="45.995681485329214" lon="9.291442379167266"><ele>202.0</ele><time>2026-05-03T12:48:19.001Z</time></trkpt><trkpt lat="45.995476727194855" lon="9.291387335151006"><ele>201.0</ele><time>2026-05-03T12:48:20.001Z</time></trkpt><trkpt lat="45.99527443634709" lon="9.291332034245379"><ele>200.0</ele><time>2026-05-03T12:48:21.001Z</time></trkpt><trkpt lat="45.99506998956449" lon="9.291295232156644"><ele>199.0</ele><time>2026-05-03T12:48:22.001Z</time></trkpt><trkpt lat="45.994866861147834" lon="9.291236069737085"><ele>199.0</ele><time>2026-05-03T12:48:23.001Z</time></trkpt><trkpt lat="45.99468353325043" lon="9.291155355644921"><ele>199.0</ele><time>2026-05-03T12:48:24.001Z</time></trkpt><trkpt lat="45.99451615799228" lon="9.291106001259758"><ele>199.0</ele><time>2026-05-03T12:48:25.001Z</time></trkpt><trkpt lat="45.994355639395444" lon="9.291061951846627"><ele>199.0</ele><time>2026-05-03T12:48:26.001Z</time></trkpt><trkpt lat="45.9941999193217" lon="9.291045180060827"><ele>199.0</ele><time>2026-05-03T12:48:27.001Z</time></trkpt><trkpt lat="45.99403141693164" lon="9.291096790890938"><ele>199.0</ele><time>2026-05-03T12:48:28.001Z</time></trkpt><trkpt lat="45.99384166831708" lon="9.291121930293276"><ele>199.66666666666666</ele><time>2026-05-03T12:48:29.001Z</time></trkpt><trkpt lat="45.99365152064025" lon="9.29117437734652"><ele>200.33333333333331</ele><time>2026-05-03T12:48:30.001Z</time></trkpt><trkpt lat="45.99345308488973" lon="9.291251365209389"><ele>201.0</ele><time>2026-05-03T12:48:31.001Z</time></trkpt><trkpt lat="45.993245819248784" lon="9.29130789152009"><ele>201.33333333333331</ele><time>2026-05-03T12:48:32.001Z</time></trkpt><trkpt lat="45.993026096690144" lon="9.291347182635828"><ele>201.66666666666666</ele><time>2026-05-03T12:48:33.001Z</time></trkpt><trkpt lat="45.9928072343271" lon="9.291403909428523"><ele>202.0</ele><time>2026-05-03T12:48:34.001Z</time></trkpt><trkpt lat="45.992579821511555" lon="9.291467253503635"><ele>208.5</ele><time>2026-05-03T12:48:35.001Z</time></trkpt><trkpt lat="45.992347119637344" lon="9.29153825068679"><ele>215.0</ele><time>2026-05-03T12:48:36.001Z</time></trkpt><trkpt lat="45.99211226422154" lon="9.291613144442005"><ele>215.0</ele><time>2026-05-03T12:48:37.001Z</time></trkpt><trkpt lat="45.991864131686995" lon="9.291708342128004"><ele>215.0</ele><time>2026-05-03T12:48:38.001Z</time></trkpt><trkpt lat="45.99161290391596" lon="9.291785419049821"><ele>210.0</ele><time>2026-05-03T12:48:39.001Z</time></trkpt><trkpt lat="45.99135076212512" lon="9.29186319752267"><ele>205.0</ele><time>2026-05-03T12:48:40.001Z</time></trkpt><trkpt lat="45.9910817949904" lon="9.291916934924242"><ele>203.0</ele><time>2026-05-03T12:48:41.001Z</time></trkpt><trkpt lat="45.990812269330995" lon="9.291987573397497"><ele>201.0</ele><time>2026-05-03T12:48:42.001Z</time></trkpt><trkpt lat="45.99056659969903" lon="9.292053776699719"><ele>201.0</ele><time>2026-05-03T12:48:43.001Z</time></trkpt><trkpt lat="45.990353594832186" lon="9.292111177555814"><ele>201.0</ele><time>2026-05-03T12:48:44.001Z</time></trkpt><trkpt lat="45.99015978441374" lon="9.292147705666236"><ele>201.0</ele><time>2026-05-03T12:48:45.001Z</time></trkpt><trkpt lat="45.989967529370865" lon="9.29214971406013"><ele>200.33333333333331</ele><time>2026-05-03T12:48:46.001Z</time></trkpt><trkpt lat="45.989769298942335" lon="9.29214017197023"><ele>199.66666666666666</ele><time>2026-05-03T12:48:47.001Z</time></trkpt><trkpt lat="45.9895507736642" lon="9.292122544087112"><ele>199.0</ele><time>2026-05-03T12:48:48.001Z</time></trkpt><trkpt lat="45.98932407590691" lon="9.29210377073528"><ele>198.5</ele><time>2026-05-03T12:48:49.001Z</time></trkpt><trkpt lat="45.98909701523734" lon="9.29209064190707"><ele>198.0</ele><time>2026-05-03T12:48:50.001Z</time></trkpt><trkpt lat="45.988867630503705" lon="9.29213363211109"><ele>198.0</ele><time>2026-05-03T12:48:51.001Z</time></trkpt><trkpt lat="45.9886260182908" lon="9.292149094679251"><ele>198.0</ele><time>2026-05-03T12:48:52.001Z</time></trkpt><trkpt lat="45.988381297139924" lon="9.292169495540483"><ele>198.0</ele><time>2026-05-03T12:48:53.001Z</time></trkpt><trkpt lat="45.98816798000206" lon="9.292191934006793"><ele>198.0</ele><time>2026-05-03T12:48:54.001Z</time></trkpt><trkpt lat="45.98797947032355" lon="9.29218274616968"><ele>198.0</ele><time>2026-05-03T12:48:55.001Z</time></trkpt><trkpt lat="45.98779892248109" lon="9.292197591956105"><ele>198.0</ele><time>2026-05-03T12:48:56.001Z</time></trkpt><trkpt lat="45.987636698329204" lon="9.292213008820122"><ele>198.0</ele><time>2026-05-03T12:48:57.002Z</time></trkpt><trkpt lat="45.9874868887959" lon="9.292228013640777"><ele>198.0</ele><time>2026-05-03T12:48:58.002Z</time></trkpt><trkpt lat="45.987355372443446" lon="9.292239546616338"><ele>198.0</ele><time>2026-05-03T12:48:59.002Z</time></trkpt><trkpt lat="45.987232726082844" lon="9.292250301767663"><ele>204.75</ele><time>2026-05-03T12:49:00.002Z</time></trkpt><trkpt lat="45.98711634167542" lon="9.292262846976083"><ele>211.5</ele><time>2026-05-03T12:49:01.002Z</time></trkpt><trkpt lat="45.98699895301643" lon="9.292282979076015"><ele>218.25</ele><time>2026-05-03T12:49:02.002Z</time></trkpt><trkpt lat="45.98687491425059" lon="9.292354000614631"><ele>225.0</ele><time>2026-05-03T12:49:03.002Z</time></trkpt><trkpt lat="45.98675323528896" lon="9.292433209852206"><ele>221.66666666666669</ele><time>2026-05-03T12:49:04.002Z</time></trkpt><trkpt lat="45.98662534296226" lon="9.292564862742099"><ele>218.33333333333334</ele><time>2026-05-03T12:49:05.002Z</time></trkpt><trkpt lat="45.98648376716137" lon="9.292735694462833"><ele>215.0</ele><time>2026-05-03T12:49:06.002Z</time></trkpt><trkpt lat="45.98633915535276" lon="9.292934513464651"><ele>215.0</ele><time>2026-05-03T12:49:07.002Z</time></trkpt><trkpt lat="45.98620067938048" lon="9.293081231663125"><ele>215.0</ele><time>2026-05-03T12:49:08.002Z</time></trkpt><trkpt lat="45.98606572075496" lon="9.293174333480097"><ele>215.0</ele><time>2026-05-03T12:49:09.002Z</time></trkpt><trkpt lat="45.98593937200685" lon="9.293251621916149"><ele>214.5</ele><time>2026-05-03T12:49:10.002Z</time></trkpt><trkpt lat="45.98582263037134" lon="9.293354174958866"><ele>214.0</ele><time>2026-05-03T12:49:11.002Z</time></trkpt><trkpt lat="45.985698297018956" lon="9.293470252759194"><ele>213.5</ele><time>2026-05-03T12:49:12.002Z</time></trkpt><trkpt lat="45.98559768836461" lon="9.293624948081932"><ele>213.0</ele><time>2026-05-03T12:49:13.002Z</time></trkpt><trkpt lat="45.98547871376876" lon="9.293800193820518"><ele>227.66666666666669</ele><time>2026-05-03T12:49:14.002Z</time></trkpt><trkpt lat="45.98534646776358" lon="9.294012472928488"><ele>242.33333333333334</ele><time>2026-05-03T12:49:15.002Z</time></trkpt><trkpt lat="45.985201104676726" lon="9.294237053610324"><ele>257.0</ele><time>2026-05-03T12:49:16.002Z</time></trkpt><trkpt lat="45.98504068692921" lon="9.29444777758181"><ele>256.33333333333337</ele><time>2026-05-03T12:49:17.002Z</time></trkpt><trkpt lat="45.98487971606006" lon="9.294604197562807"><ele>255.66666666666669</ele><time>2026-05-03T12:49:18.002Z</time></trkpt><trkpt lat="45.98472050439304" lon="9.294705906755206"><ele>255.0</ele><time>2026-05-03T12:49:19.002Z</time></trkpt><trkpt lat="45.9845358747928" lon="9.294791188933074"><ele>255.0</ele><time>2026-05-03T12:49:20.002Z</time></trkpt><trkpt lat="45.984318868767765" lon="9.294880266726949"><ele>255.0</ele><time>2026-05-03T12:49:21.002Z</time></trkpt><trkpt lat="45.98409768680922" lon="9.294965102384102"><ele>244.33333333333331</ele><time>2026-05-03T12:49:22.002Z</time></trkpt><trkpt lat="45.98388748241458" lon="9.295026236985914"><ele>233.66666666666666</ele><time>2026-05-03T12:49:23.002Z</time></trkpt><trkpt lat="45.98372310352467" lon="9.295050494044842"><ele>223.0</ele><time>2026-05-03T12:49:24.002Z</time></trkpt><trkpt lat="45.98358596697337" lon="9.295077912571328"><ele>223.0</ele><time>2026-05-03T12:49:25.002Z</time></trkpt><trkpt lat="45.98344612270711" lon="9.295132028752358"><ele>223.0</ele><time>2026-05-03T12:49:26.002Z</time></trkpt><trkpt lat="45.983304004797006" lon="9.295279122927827"><ele>223.0</ele><time>2026-05-03T12:49:27.002Z</time></trkpt><trkpt lat="45.98315976137877" lon="9.295468331845344"><ele>232.0</ele><time>2026-05-03T12:49:28.002Z</time></trkpt><trkpt lat="45.98299823580776" lon="9.295664492688587"><ele>241.0</ele><time>2026-05-03T12:49:29.002Z</time></trkpt><trkpt lat="45.98284718203692" lon="9.295878009583957"><ele>250.0</ele><time>2026-05-03T12:49:30.002Z</time></trkpt><trkpt lat="45.98269868720839" lon="9.296079971413805"><ele>250.0</ele><time>2026-05-03T12:49:31.002Z</time></trkpt><trkpt lat="45.98255835564022" lon="9.296226671182254"><ele>250.0</ele><time>2026-05-03T12:49:32.003Z</time></trkpt><trkpt lat="45.98240594030566" lon="9.296329656950029"><ele>250.0</ele><time>2026-05-03T12:49:33.003Z</time></trkpt><trkpt lat="45.98222077300878" lon="9.296420741525786"><ele>248.66666666666666</ele><time>2026-05-03T12:49:34.003Z</time></trkpt><trkpt lat="45.982017152324936" lon="9.296521498413467"><ele>247.33333333333331</ele><time>2026-05-03T12:49:35.003Z</time></trkpt><trkpt lat="45.981808241777856" lon="9.296641129062877"><ele>246.0</ele><time>2026-05-03T12:49:36.003Z</time></trkpt><trkpt lat="45.98159549919105" lon="9.296805173863905"><ele>229.5</ele><time>2026-05-03T12:49:37.003Z</time></trkpt><trkpt lat="45.98136927338622" lon="9.296949441069813"><ele>213.0</ele><time>2026-05-03T12:49:38.003Z</time></trkpt><trkpt lat="45.98112716525273" lon="9.297071261106554"><ele>213.0</ele><time>2026-05-03T12:49:39.003Z</time></trkpt><trkpt lat="45.980902712955185" lon="9.297175126744028"><ele>213.0</ele><time>2026-05-03T12:49:40.003Z</time></trkpt><trkpt lat="45.98071357572482" lon="9.297252863471227"><ele>213.0</ele><time>2026-05-03T12:49:41.003Z</time></trkpt><trkpt lat="45.98053765718902" lon="9.297283069671636"><ele>217.0</ele><time>2026-05-03T12:49:42.003Z</time></trkpt><trkpt lat="45.9803403413674" lon="9.297277088795843"><ele>221.0</ele><time>2026-05-03T12:49:43.003Z</time></trkpt><trkpt lat="45.980121307158946" lon="9.29726241839717"><ele>225.0</ele><time>2026-05-03T12:49:44.003Z</time></trkpt><trkpt lat="45.979885008848825" lon="9.29725322556817"><ele>225.0</ele><time>2026-05-03T12:49:45.003Z</time></trkpt><trkpt lat="45.97964091959832" lon="9.297262910239004"><ele>225.0</ele><time>2026-05-03T12:49:46.003Z</time></trkpt><trkpt lat="45.97938989915808" lon="9.297275524969724"><ele>225.0</ele><time>2026-05-03T12:49:47.003Z</time></trkpt><trkpt lat="45.979147620853496" lon="9.29728683820887"><ele>225.0</ele><time>2026-05-03T12:49:48.003Z</time></trkpt><trkpt lat="45.97892685466608" lon="9.297297775008722"><ele>225.0</ele><time>2026-05-03T12:49:49.003Z</time></trkpt><trkpt lat="45.97874479069489" lon="9.297304086429374"><ele>225.0</ele><time>2026-05-03T12:49:50.003Z</time></trkpt><trkpt lat="45.978594949591034" lon="9.297304077651672"><ele>225.0</ele><time>2026-05-03T12:49:51.003Z</time></trkpt><trkpt lat="45.978461998120835" lon="9.297277967432102"><ele>221.0</ele><time>2026-05-03T12:49:52.003Z</time></trkpt><trkpt lat="45.978333632132035" lon="9.297199572362986"><ele>217.0</ele><time>2026-05-03T12:49:53.003Z</time></trkpt><trkpt lat="45.978210858650336" lon="9.297093870235537"><ele>213.0</ele><time>2026-05-03T12:49:54.003Z</time></trkpt><trkpt lat="45.97810370908775" lon="9.296933823157746"><ele>209.0</ele><time>2026-05-03T12:49:55.003Z</time></trkpt><trkpt lat="45.97798437059897" lon="9.296749392278704"><ele>209.0</ele><time>2026-05-03T12:49:56.003Z</time></trkpt><trkpt lat="45.97785144910272" lon="9.296561358423764"><ele>209.0</ele><time>2026-05-03T12:49:57.003Z</time></trkpt><trkpt lat="45.97769442782586" lon="9.296412680415276"><ele>209.0</ele><time>2026-05-03T12:49:58.003Z</time></trkpt><trkpt lat="45.97751767723734" lon="9.296272476011554"><ele>210.66666666666669</ele><time>2026-05-03T12:49:59.003Z</time></trkpt><trkpt lat="45.977361430299496" lon="9.296138241424623"><ele>212.33333333333331</ele><time>2026-05-03T12:50:00.003Z</time></trkpt><trkpt lat="45.97721130423658" lon="9.296075398022623"><ele>214.0</ele><time>2026-05-03T12:50:01.003Z</time></trkpt><trkpt lat="45.977078772262665" lon="9.296033229902935"><ele>214.0</ele><time>2026-05-03T12:50:02.003Z</time></trkpt><trkpt lat="45.97693940910229" lon="9.296037941680076"><ele>214.0</ele><time>2026-05-03T12:50:03.003Z</time></trkpt><trkpt lat="45.97678864304499" lon="9.296080854549732"><ele>214.0</ele><time>2026-05-03T12:50:04.003Z</time></trkpt><trkpt lat="45.97664065170246" lon="9.296165875724432"><ele>213.0</ele><time>2026-05-03T12:50:05.003Z</time></trkpt><trkpt lat="45.97649138925998" lon="9.296301426800396"><ele>212.0</ele><time>2026-05-03T12:50:06.003Z</time></trkpt><trkpt lat="45.97632825840813" lon="9.296451206568037"><ele>211.0</ele><time>2026-05-03T12:50:07.003Z</time></trkpt><trkpt lat="45.976159572849056" lon="9.296610748611366"><ele>211.0</ele><time>2026-05-03T12:50:08.004Z</time></trkpt><trkpt lat="45.97598235550618" lon="9.296778214516937"><ele>211.0</ele><time>2026-05-03T12:50:09.001Z</time></trkpt><trkpt lat="45.97580936922086" lon="9.296925553062215"><ele>211.0</ele><time>2026-05-03T12:50:10.001Z</time></trkpt><trkpt lat="45.97562923281316" lon="9.297049845714811"><ele>211.0</ele><time>2026-05-03T12:50:11.001Z</time></trkpt><trkpt lat="45.97545893752421" lon="9.297144267435154"><ele>211.0</ele><time>2026-05-03T12:50:12.001Z</time></trkpt><trkpt lat="45.97530094380391" lon="9.297255370413534"><ele>211.0</ele><time>2026-05-03T12:50:13.001Z</time></trkpt><trkpt lat="45.975151539109184" lon="9.29735329980756"><ele>212.33333333333331</ele><time>2026-05-03T12:50:14.001Z</time></trkpt><trkpt lat="45.9750189162129" lon="9.297501168689402"><ele>213.66666666666669</ele><time>2026-05-03T12:50:15.001Z</time></trkpt><trkpt lat="45.97489468021778" lon="9.297704001146212"><ele>215.0</ele><time>2026-05-03T12:50:16.001Z</time></trkpt><trkpt lat="45.974776393539194" lon="9.297934798639632"><ele>221.0</ele><time>2026-05-03T12:50:17.001Z</time></trkpt><trkpt lat="45.9746428695281" lon="9.298109302120116"><ele>227.0</ele><time>2026-05-03T12:50:18.001Z</time></trkpt><trkpt lat="45.97448776279957" lon="9.2982437841534"><ele>233.0</ele><time>2026-05-03T12:50:19.001Z</time></trkpt><trkpt lat="45.97430817475926" lon="9.298349940312445"><ele>224.66666666666669</ele><time>2026-05-03T12:50:20.001Z</time></trkpt><trkpt lat="45.97410540274209" lon="9.298448238166118"><ele>216.33333333333331</ele><time>2026-05-03T12:50:21.001Z</time></trkpt><trkpt lat="45.973896164792485" lon="9.298549104108691"><ele>208.0</ele><time>2026-05-03T12:50:22.001Z</time></trkpt><trkpt lat="45.973679295020155" lon="9.298670458853794"><ele>208.0</ele><time>2026-05-03T12:50:23.001Z</time></trkpt><trkpt lat="45.97344517807828" lon="9.298781583492216"><ele>208.0</ele><time>2026-05-03T12:50:24.001Z</time></trkpt><trkpt lat="45.97321069879301" lon="9.298905105484456"><ele>212.5</ele><time>2026-05-03T12:50:25.001Z</time></trkpt><trkpt lat="45.97297240945829" lon="9.299052620261449"><ele>217.0</ele><time>2026-05-03T12:50:26.001Z</time></trkpt><trkpt lat="45.97273926001736" lon="9.29923137880826"><ele>210.0</ele><time>2026-05-03T12:50:27.001Z</time></trkpt><trkpt lat="45.97250696758282" lon="9.299432772271745"><ele>203.0</ele><time>2026-05-03T12:50:28.001Z</time></trkpt><trkpt lat="45.9722702687158" lon="9.29962692043968"><ele>214.5</ele><time>2026-05-03T12:50:29.001Z</time></trkpt><trkpt lat="45.97202007948846" lon="9.299794169645624"><ele>226.0</ele><time>2026-05-03T12:50:30.001Z</time></trkpt><trkpt lat="45.97177354169683" lon="9.299981117707148"><ele>217.0</ele><time>2026-05-03T12:50:31.001Z</time></trkpt><trkpt lat="45.97152620042603" lon="9.300168141148252"><ele>208.0</ele><time>2026-05-03T12:50:32.001Z</time></trkpt><trkpt lat="45.97128336799568" lon="9.300351755289057"><ele>208.0</ele><time>2026-05-03T12:50:33.001Z</time></trkpt><trkpt lat="45.97107791389318" lon="9.30050556591146"><ele>208.0</ele><time>2026-05-03T12:50:34.001Z</time></trkpt><trkpt lat="45.97090841357361" lon="9.30065593158622"><ele>208.0</ele><time>2026-05-03T12:50:35.001Z</time></trkpt><trkpt lat="45.97073499310374" lon="9.300754817551462"><ele>209.66666666666666</ele><time>2026-05-03T12:50:36.001Z</time></trkpt><trkpt lat="45.97057298913827" lon="9.3008324018033"><ele>211.33333333333331</ele><time>2026-05-03T12:50:37.001Z</time></trkpt><trkpt lat="45.97041443786192" lon="9.300880310840572"><ele>213.0</ele><time>2026-05-03T12:50:38.001Z</time></trkpt><trkpt lat="45.9702476969906" lon="9.300951630719615"><ele>213.0</ele><time>2026-05-03T12:50:39.001Z</time></trkpt><trkpt lat="45.97009013450984" lon="9.301028139245023"><ele>213.0</ele><time>2026-05-03T12:50:40.001Z</time></trkpt><trkpt lat="45.96995042614845" lon="9.301148857368373"><ele>213.0</ele><time>2026-05-03T12:50:41.001Z</time></trkpt><trkpt lat="45.969810796708884" lon="9.301324391320625"><ele>215.66666666666669</ele><time>2026-05-03T12:50:42.001Z</time></trkpt><trkpt lat="45.96965890264944" lon="9.301487682430853"><ele>218.33333333333334</ele><time>2026-05-03T12:50:43.001Z</time></trkpt><trkpt lat="45.9695219935637" lon="9.301643463567084"><ele>221.0</ele><time>2026-05-03T12:50:44.001Z</time></trkpt><trkpt lat="45.96941628664922" lon="9.301791286293634"><ele>221.0</ele><time>2026-05-03T12:50:45.001Z</time></trkpt><trkpt lat="45.96930944250468" lon="9.301909351568238"><ele>221.0</ele><time>2026-05-03T12:50:46.001Z</time></trkpt><trkpt lat="45.969202267420656" lon="9.30202926843727"><ele>221.0</ele><time>2026-05-03T12:50:47.001Z</time></trkpt><trkpt lat="45.969080853159156" lon="9.302150944060282"><ele>221.0</ele><time>2026-05-03T12:50:48.001Z</time></trkpt><trkpt lat="45.96893840447969" lon="9.30225292651782"><ele>220.33333333333334</ele><time>2026-05-03T12:50:49.001Z</time></trkpt><trkpt lat="45.96878722089473" lon="9.302365351173556"><ele>219.66666666666669</ele><time>2026-05-03T12:50:50.001Z</time></trkpt><trkpt lat="45.96862476046412" lon="9.302483610996811"><ele>219.0</ele><time>2026-05-03T12:50:51.001Z</time></trkpt><trkpt lat="45.96845243913949" lon="9.302613316873712"><ele>218.33333333333331</ele><time>2026-05-03T12:50:52.001Z</time></trkpt><trkpt lat="45.96826670454981" lon="9.302756311428741"><ele>217.66666666666666</ele><time>2026-05-03T12:50:53.001Z</time></trkpt><trkpt lat="45.968071091698704" lon="9.30292145417228"><ele>217.0</ele><time>2026-05-03T12:50:54.001Z</time></trkpt><trkpt lat="45.96786981453745" lon="9.303101904247853"><ele>217.0</ele><time>2026-05-03T12:50:55.001Z</time></trkpt><trkpt lat="45.967675120240976" lon="9.30329517170277"><ele>217.0</ele><time>2026-05-03T12:50:56.001Z</time></trkpt><trkpt lat="45.96748972931957" lon="9.303448644871851"><ele>214.0</ele><time>2026-05-03T12:50:57.001Z</time></trkpt><trkpt lat="45.96731096858406" lon="9.303540795931594"><ele>211.0</ele><time>2026-05-03T12:50:58.001Z</time></trkpt><trkpt lat="45.96714268480494" lon="9.303621990382267"><ele>208.0</ele><time>2026-05-03T12:50:59.001Z</time></trkpt><trkpt lat="45.96698487491489" lon="9.30367346704413"><ele>208.0</ele><time>2026-05-03T12:51:00.001Z</time></trkpt><trkpt lat="45.966830774483306" lon="9.303685931770374"><ele>208.0</ele><time>2026-05-03T12:51:01.001Z</time></trkpt><trkpt lat="45.96666394778042" lon="9.30367729801379"><ele>208.0</ele><time>2026-05-03T12:51:02.001Z</time></trkpt><trkpt lat="45.9665029089093" lon="9.30362447913091"><ele>207.25</ele><time>2026-05-03T12:51:03.001Z</time></trkpt><trkpt lat="45.966365860839666" lon="9.303543808092655"><ele>206.5</ele><time>2026-05-03T12:51:04.001Z</time></trkpt><trkpt lat="45.96624514781496" lon="9.303453254386792"><ele>205.75</ele><time>2026-05-03T12:51:05.001Z</time></trkpt><trkpt lat="45.966134066076336" lon="9.303365822966397"><ele>205.0</ele><time>2026-05-03T12:51:06.001Z</time></trkpt><trkpt lat="45.9660286842741" lon="9.303280144157112"><ele>205.0</ele><time>2026-05-03T12:51:07.001Z</time></trkpt><trkpt lat="45.96592550287815" lon="9.303196295989103"><ele>205.0</ele><time>2026-05-03T12:51:08.001Z</time></trkpt><trkpt lat="45.96581346068102" lon="9.303129186534377"><ele>205.0</ele><time>2026-05-03T12:51:09.001Z</time></trkpt><trkpt lat="45.965709122688295" lon="9.303037057639749"><ele>205.0</ele><time>2026-05-03T12:51:10.001Z</time></trkpt><trkpt lat="45.96561000375382" lon="9.30295348900252"><ele>205.4</ele><time>2026-05-03T12:51:11.002Z</time></trkpt><trkpt lat="45.96551736272407" lon="9.302884007420607"><ele>205.8</ele><time>2026-05-03T12:51:12.002Z</time></trkpt><trkpt lat="45.965425626420625" lon="9.302814629594623"><ele>206.2</ele><time>2026-05-03T12:51:13.002Z</time></trkpt><trkpt lat="45.96534996924087" lon="9.302727962002015"><ele>206.6</ele><time>2026-05-03T12:51:14.002Z</time></trkpt><trkpt lat="45.965268842539395" lon="9.30268869112601"><ele>207.0</ele><time>2026-05-03T12:51:15.002Z</time></trkpt><trkpt lat="45.96520402775815" lon="9.302629022247443"><ele>207.0</ele><time>2026-05-03T12:51:16.002Z</time></trkpt><trkpt lat="45.96510304784058" lon="9.302542543528762"><ele>207.0</ele><time>2026-05-03T12:51:18.002Z</time></trkpt><trkpt lat="45.96504666425546" lon="9.302487871200949"><ele>207.0</ele><time>2026-05-03T12:51:19.002Z</time></trkpt><trkpt lat="45.96497818220988" lon="9.302429994281004"><ele>207.0</ele><time>2026-05-03T12:51:20.002Z</time></trkpt><trkpt lat="45.96489558387622" lon="9.302369387312849"><ele>207.0</ele><time>2026-05-03T12:51:21.002Z</time></trkpt><trkpt lat="45.964802290289995" lon="9.30233449695469"><ele>206.25</ele><time>2026-05-03T12:51:22.002Z</time></trkpt><trkpt lat="45.964701985004666" lon="9.302280445152713"><ele>205.5</ele><time>2026-05-03T12:51:23.002Z</time></trkpt><trkpt lat="45.96457639433047" lon="9.302236181512672"><ele>204.75</ele><time>2026-05-03T12:51:24.002Z</time></trkpt><trkpt lat="45.96444118752926" lon="9.302169482192069"><ele>204.0</ele><time>2026-05-03T12:51:25.002Z</time></trkpt><trkpt lat="45.96429259839023" lon="9.3021180218166"><ele>206.33333333333331</ele><time>2026-05-03T12:51:26.002Z</time></trkpt><trkpt lat="45.96412257352277" lon="9.302058484542567"><ele>208.66666666666666</ele><time>2026-05-03T12:51:27.002Z</time></trkpt><trkpt lat="45.963955806790494" lon="9.301998846446148"><ele>211.0</ele><time>2026-05-03T12:51:28.002Z</time></trkpt><trkpt lat="45.96378215321046" lon="9.301929514263044"><ele>211.0</ele><time>2026-05-03T12:51:29.002Z</time></trkpt><trkpt lat="45.96359168661745" lon="9.301858245781666"><ele>211.0</ele><time>2026-05-03T12:51:30.002Z</time></trkpt><trkpt lat="45.9634164259579" lon="9.301796440417593"><ele>211.0</ele><time>2026-05-03T12:51:31.002Z</time></trkpt><trkpt lat="45.963249762225956" lon="9.30173709017402"><ele>213.25</ele><time>2026-05-03T12:51:32.002Z</time></trkpt><trkpt lat="45.96310286059429" lon="9.301684783041413"><ele>215.5</ele><time>2026-05-03T12:51:33.002Z</time></trkpt><trkpt lat="45.962964747022276" lon="9.30163977020283"><ele>217.75</ele><time>2026-05-03T12:51:34.002Z</time></trkpt><trkpt lat="45.962825153089454" lon="9.301589647353602"><ele>220.0</ele><time>2026-05-03T12:51:35.002Z</time></trkpt><trkpt lat="45.96272132167731" lon="9.301536877725104"><ele>220.0</ele><time>2026-05-03T12:51:36.002Z</time></trkpt><trkpt lat="45.962611134712915" lon="9.301495805805649"><ele>220.0</ele><time>2026-05-03T12:51:37.002Z</time></trkpt><trkpt lat="45.96249530472754" lon="9.301453675375914"><ele>220.0</ele><time>2026-05-03T12:51:38.002Z</time></trkpt><trkpt lat="45.96236265003247" lon="9.301435622875578"><ele>220.0</ele><time>2026-05-03T12:51:39.002Z</time></trkpt><trkpt lat="45.96222722400181" lon="9.30141373782576"><ele>220.66666666666666</ele><time>2026-05-03T12:51:40.002Z</time></trkpt><trkpt lat="45.96207568657152" lon="9.301388989029668"><ele>221.33333333333331</ele><time>2026-05-03T12:51:41.002Z</time></trkpt><trkpt lat="45.961908070877136" lon="9.301402641141406"><ele>222.0</ele><time>2026-05-03T12:51:42.002Z</time></trkpt><trkpt lat="45.961732523849356" lon="9.301425473271244"><ele>220.0</ele><time>2026-05-03T12:51:43.002Z</time></trkpt><trkpt lat="45.96154481541668" lon="9.301450266519574"><ele>218.0</ele><time>2026-05-03T12:51:44.002Z</time></trkpt><trkpt lat="45.96134589737282" lon="9.301480522334018"><ele>216.0</ele><time>2026-05-03T12:51:45.002Z</time></trkpt><trkpt lat="45.96114581593344" lon="9.301512473915196"><ele>216.0</ele><time>2026-05-03T12:51:46.002Z</time></trkpt><trkpt lat="45.96094349340945" lon="9.301543605622685"><ele>216.0</ele><time>2026-05-03T12:51:47.002Z</time></trkpt><trkpt lat="45.96073156150283" lon="9.301594550530545"><ele>216.0</ele><time>2026-05-03T12:51:48.003Z</time></trkpt><trkpt lat="45.96051527895539" lon="9.301591042367148"><ele>214.66666666666669</ele><time>2026-05-03T12:51:49.003Z</time></trkpt><trkpt lat="45.960305747963574" lon="9.301586753638283"><ele>213.33333333333334</ele><time>2026-05-03T12:51:50.003Z</time></trkpt><trkpt lat="45.960102420899794" lon="9.301574651259598"><ele>212.0</ele><time>2026-05-03T12:51:51.003Z</time></trkpt><trkpt lat="45.959914094354716" lon="9.301562840952498"><ele>212.0</ele><time>2026-05-03T12:51:52.003Z</time></trkpt><trkpt lat="45.95973312759416" lon="9.301550283046286"><ele>212.0</ele><time>2026-05-03T12:51:53.003Z</time></trkpt><trkpt lat="45.959541747244295" lon="9.301552691045384"><ele>212.0</ele><time>2026-05-03T12:51:54.003Z</time></trkpt><trkpt lat="45.9593409426136" lon="9.30159580572962"><ele>212.0</ele><time>2026-05-03T12:51:55.003Z</time></trkpt><trkpt lat="45.95913006591972" lon="9.301625994222297"><ele>212.0</ele><time>2026-05-03T12:51:56.003Z</time></trkpt><trkpt lat="45.95891279786749" lon="9.301680465395417"><ele>212.0</ele><time>2026-05-03T12:51:57.003Z</time></trkpt><trkpt lat="45.95871351101441" lon="9.30169300635404"><ele>212.0</ele><time>2026-05-03T12:51:58.003Z</time></trkpt><trkpt lat="45.9585369978141" lon="9.30172581267108"><ele>212.0</ele><time>2026-05-03T12:51:59.003Z</time></trkpt><trkpt lat="45.95836993718345" lon="9.301756840277244"><ele>212.0</ele><time>2026-05-03T12:52:00.003Z</time></trkpt><trkpt lat="45.95821455697529" lon="9.301786809259577"><ele>210.5</ele><time>2026-05-03T12:52:01.003Z</time></trkpt><trkpt lat="45.95806433769685" lon="9.301815576887066"><ele>209.0</ele><time>2026-05-03T12:52:02.003Z</time></trkpt><trkpt lat="45.95792521143681" lon="9.30185825999975"><ele>207.5</ele><time>2026-05-03T12:52:03.003Z</time></trkpt><trkpt lat="45.95779562190262" lon="9.30188323626823"><ele>206.0</ele><time>2026-05-03T12:52:04.003Z</time></trkpt><trkpt lat="45.957674859654155" lon="9.301886669488198"><ele>206.0</ele><time>2026-05-03T12:52:05.003Z</time></trkpt><trkpt lat="45.95755700254942" lon="9.301921827757676"><ele>206.0</ele><time>2026-05-03T12:52:06.003Z</time></trkpt><trkpt lat="45.95743967309441" lon="9.301932389913144"><ele>206.0</ele><time>2026-05-03T12:52:07.003Z</time></trkpt><trkpt lat="45.95731112599585" lon="9.30194418213632"><ele>206.0</ele><time>2026-05-03T12:52:08.003Z</time></trkpt><trkpt lat="45.95715391748413" lon="9.30193662988495"><ele>207.33333333333334</ele><time>2026-05-03T12:52:09.003Z</time></trkpt><trkpt lat="45.95697690704835" lon="9.301949602324362"><ele>208.66666666666669</ele><time>2026-05-03T12:52:10.003Z</time></trkpt><trkpt lat="45.95679816619718" lon="9.301962846045031"><ele>210.0</ele><time>2026-05-03T12:52:11.003Z</time></trkpt><trkpt lat="45.9566305156603" lon="9.301988843282665"><ele>206.66666666666669</ele><time>2026-05-03T12:52:12.003Z</time></trkpt><trkpt lat="45.95647206245746" lon="9.302005786770941"><ele>203.33333333333334</ele><time>2026-05-03T12:52:13.003Z</time></trkpt><trkpt lat="45.956320777663684" lon="9.302005560727048"><ele>200.0</ele><time>2026-05-03T12:52:14.003Z</time></trkpt><trkpt lat="45.95617051382745" lon="9.302003454108341"><ele>200.0</ele><time>2026-05-03T12:52:15Z</time></trkpt><trkpt lat="45.95600024754961" lon="9.301963167517233"><ele>200.0</ele><time>2026-05-03T12:52:16Z</time></trkpt><trkpt lat="45.9558308657787" lon="9.301933693859532"><ele>200.0</ele><time>2026-05-03T12:52:17Z</time></trkpt><trkpt lat="45.955650884575036" lon="9.301927740269827"><ele>201.0</ele><time>2026-05-03T12:52:18Z</time></trkpt><trkpt lat="45.95545194227199" lon="9.30186894808474"><ele>202.0</ele><time>2026-05-03T12:52:19Z</time></trkpt><trkpt lat="45.955249794013234" lon="9.301831814813331"><ele>203.0</ele><time>2026-05-03T12:52:20Z</time></trkpt><trkpt lat="45.955050921024046" lon="9.301804814027314"><ele>204.33333333333334</ele><time>2026-05-03T12:52:21Z</time></trkpt><trkpt lat="45.95486102345655" lon="9.301815353047933"><ele>205.66666666666669</ele><time>2026-05-03T12:52:22Z</time></trkpt><trkpt lat="45.954684706664885" lon="9.301830185170473"><ele>207.0</ele><time>2026-05-03T12:52:23Z</time></trkpt><trkpt lat="45.954524873586635" lon="9.301817538118316"><ele>207.0</ele><time>2026-05-03T12:52:24Z</time></trkpt><trkpt lat="45.95437690040317" lon="9.30181383377363"><ele>207.0</ele><time>2026-05-03T12:52:25Z</time></trkpt><trkpt lat="45.95423762054715" lon="9.301782253619548"><ele>207.0</ele><time>2026-05-03T12:52:26Z</time></trkpt><trkpt lat="45.95408041555131" lon="9.301730936599732"><ele>209.0</ele><time>2026-05-03T12:52:27Z</time></trkpt><trkpt lat="45.95391820484512" lon="9.301663768664673"><ele>211.0</ele><time>2026-05-03T12:52:28Z</time></trkpt><trkpt lat="45.95374625653637" lon="9.301587576573906"><ele>213.0</ele><time>2026-05-03T12:52:29Z</time></trkpt><trkpt lat="45.95356417122176" lon="9.301505880130291"><ele>213.0</ele><time>2026-05-03T12:52:30Z</time></trkpt><trkpt lat="45.95337245603157" lon="9.301419863145663"><ele>213.0</ele><time>2026-05-03T12:52:31.001Z</time></trkpt><trkpt lat="45.95317013617047" lon="9.301329088133567"><ele>213.0</ele><time>2026-05-03T12:52:32.001Z</time></trkpt><trkpt lat="45.952968539077816" lon="9.301238637434885"><ele>210.0</ele><time>2026-05-03T12:52:33.001Z</time></trkpt><trkpt lat="45.95277610240887" lon="9.301153592643551"><ele>207.0</ele><time>2026-05-03T12:52:34.001Z</time></trkpt><trkpt lat="45.95261653226454" lon="9.301092996317829"><ele>204.0</ele><time>2026-05-03T12:52:35.001Z</time></trkpt><trkpt lat="45.952477762736635" lon="9.301076363535952"><ele>204.0</ele><time>2026-05-03T12:52:36.001Z</time></trkpt><trkpt lat="45.95231278777392" lon="9.301090541722223"><ele>204.0</ele><time>2026-05-03T12:52:37.001Z</time></trkpt><trkpt lat="45.95211780994855" lon="9.301114186055136"><ele>204.0</ele><time>2026-05-03T12:52:38.001Z</time></trkpt><trkpt lat="45.95193507611143" lon="9.301151085553967"><ele>204.0</ele><time>2026-05-03T12:52:39.001Z</time></trkpt><trkpt lat="45.95179441537884" lon="9.301176481649806"><ele>204.0</ele><time>2026-05-03T12:52:40.001Z</time></trkpt><trkpt lat="45.95167958835855" lon="9.301195297271889"><ele>204.0</ele><time>2026-05-03T12:52:41.001Z</time></trkpt><trkpt lat="45.951590454483274" lon="9.30120979300455"><ele>204.0</ele><time>2026-05-03T12:52:42.001Z</time></trkpt><trkpt lat="45.951496151627204" lon="9.301225129378745"><ele>204.0</ele><time>2026-05-03T12:52:44.001Z</time></trkpt><trkpt lat="45.951432382046995" lon="9.30125309380995"><ele>204.0</ele><time>2026-05-03T12:52:47.001Z</time></trkpt><trkpt lat="45.95130165787726" lon="9.30125498417914"><ele>204.0</ele><time>2026-05-03T12:53:40.002Z</time></trkpt><trkpt lat="45.95117914497895" lon="9.301272667456315"><ele>204.0</ele><time>2026-05-03T12:53:41.002Z</time></trkpt><trkpt lat="45.951029336776195" lon="9.301295621243428"><ele>204.0</ele><time>2026-05-03T12:53:42.002Z</time></trkpt><trkpt lat="45.950852381865715" lon="9.301325779005401"><ele>203.0</ele><time>2026-05-03T12:53:43.002Z</time></trkpt><trkpt lat="45.95065824056578" lon="9.301368994183756"><ele>202.0</ele><time>2026-05-03T12:53:44.002Z</time></trkpt><trkpt lat="45.95047741301938" lon="9.301448947876153"><ele>201.0</ele><time>2026-05-03T12:53:45.002Z</time></trkpt><trkpt lat="45.950297758140294" lon="9.30151514606735"><ele>203.33333333333331</ele><time>2026-05-03T12:53:46.002Z</time></trkpt><trkpt lat="45.95010710716777" lon="9.301626399568049"><ele>205.66666666666666</ele><time>2026-05-03T12:53:47.002Z</time></trkpt><trkpt lat="45.94991479268865" lon="9.301769827410345"><ele>208.0</ele><time>2026-05-03T12:53:48.003Z</time></trkpt><trkpt lat="45.94970939215198" lon="9.30192475924616"><ele>208.0</ele><time>2026-05-03T12:53:49.003Z</time></trkpt><trkpt lat="45.949524854923325" lon="9.302081901496585"><ele>208.0</ele><time>2026-05-03T12:53:50.003Z</time></trkpt><trkpt lat="45.94935439089427" lon="9.302296606272424"><ele>208.0</ele><time>2026-05-03T12:53:51.003Z</time></trkpt><trkpt lat="45.94919371758171" lon="9.302540982479409"><ele>207.33333333333331</ele><time>2026-05-03T12:53:52.003Z</time></trkpt><trkpt lat="45.949047393174084" lon="9.302740078829366"><ele>206.66666666666669</ele><time>2026-05-03T12:53:53.003Z</time></trkpt><trkpt lat="45.94890925145852" lon="9.302853781437024"><ele>206.0</ele><time>2026-05-03T12:53:54.003Z</time></trkpt><trkpt lat="45.94878002805635" lon="9.302949656668858"><ele>206.0</ele><time>2026-05-03T12:53:55.003Z</time></trkpt><trkpt lat="45.948645912304855" lon="9.303014800804016"><ele>206.0</ele><time>2026-05-03T12:53:56.003Z</time></trkpt><trkpt lat="45.94853331400698" lon="9.303106062782977"><ele>206.0</ele><time>2026-05-03T12:53:57.003Z</time></trkpt><trkpt lat="45.948425526120594" lon="9.303226039363265"><ele>206.0</ele><time>2026-05-03T12:53:58.003Z</time></trkpt><trkpt lat="45.948324238291136" lon="9.303382413937992"><ele>207.0</ele><time>2026-05-03T12:53:59.003Z</time></trkpt><trkpt lat="45.94821589925735" lon="9.303539231714536"><ele>208.0</ele><time>2026-05-03T12:54:00.003Z</time></trkpt><trkpt lat="45.94812122187331" lon="9.303696361466113"><ele>209.0</ele><time>2026-05-03T12:54:01.003Z</time></trkpt><trkpt lat="45.94802511917641" lon="9.303843127471948"><ele>210.0</ele><time>2026-05-03T12:54:02.003Z</time></trkpt><trkpt lat="45.94792256133207" lon="9.303983270573294"><ele>215.0</ele><time>2026-05-03T12:54:03.003Z</time></trkpt><trkpt lat="45.94782891588752" lon="9.304096703421674"><ele>220.0</ele><time>2026-05-03T12:54:04.003Z</time></trkpt><trkpt lat="45.94772644171845" lon="9.304235605082614"><ele>225.0</ele><time>2026-05-03T12:54:05.003Z</time></trkpt><trkpt lat="45.94764215909932" lon="9.304361200303969"><ele>230.0</ele><time>2026-05-03T12:54:06.003Z</time></trkpt><trkpt lat="45.94754354296717" lon="9.30446260366902"><ele>230.0</ele><time>2026-05-03T12:54:07.003Z</time></trkpt><trkpt lat="45.9474440362956" lon="9.304562022346532"><ele>230.0</ele><time>2026-05-03T12:54:08.003Z</time></trkpt><trkpt lat="45.94736118392416" lon="9.304602855898873"><ele>230.0</ele><time>2026-05-03T12:54:09.003Z</time></trkpt><trkpt lat="45.94723108595707" lon="9.304672670661825"><ele>230.0</ele><time>2026-05-03T12:54:10.003Z</time></trkpt><trkpt lat="45.947077580324994" lon="9.304731098509096"><ele>229.0</ele><time>2026-05-03T12:54:11.003Z</time></trkpt><trkpt lat="45.94692627741239" lon="9.304756345730716"><ele>228.0</ele><time>2026-05-03T12:54:12.003Z</time></trkpt><trkpt lat="45.94680851563693" lon="9.304834895667073"><ele>227.0</ele><time>2026-05-03T12:54:13.003Z</time></trkpt><trkpt lat="45.946691841623675" lon="9.304909697186144"><ele>226.0</ele><time>2026-05-03T12:54:14.003Z</time></trkpt><trkpt lat="45.946565238580085" lon="9.305002199533321"><ele>226.0</ele><time>2026-05-03T12:54:15.003Z</time></trkpt><trkpt lat="45.946439304847175" lon="9.305112048148978"><ele>226.0</ele><time>2026-05-03T12:54:16.003Z</time></trkpt><trkpt lat="45.94635312270241" lon="9.305276157095953"><ele>226.0</ele><time>2026-05-03T12:54:17.003Z</time></trkpt><trkpt lat="45.94627312158761" lon="9.30545495718404"><ele>226.0</ele><time>2026-05-03T12:54:18.003Z</time></trkpt><trkpt lat="45.94618720265875" lon="9.305594200913916"><ele>243.33333333333331</ele><time>2026-05-03T12:54:19.003Z</time></trkpt><trkpt lat="45.9461011131469" lon="9.305793061372391"><ele>260.6666666666667</ele><time>2026-05-03T12:54:20.003Z</time></trkpt><trkpt lat="45.94599854033179" lon="9.306027391420505"><ele>278.0</ele><time>2026-05-03T12:54:21.001Z</time></trkpt><trkpt lat="45.9459372985638" lon="9.306256819788722"><ele>270.33333333333337</ele><time>2026-05-03T12:54:22.001Z</time></trkpt><trkpt lat="45.94585029821037" lon="9.306486410163664"><ele>262.6666666666667</ele><time>2026-05-03T12:54:23.001Z</time></trkpt><trkpt lat="45.94579327223802" lon="9.306641266192141"><ele>255.0</ele><time>2026-05-03T12:54:24.001Z</time></trkpt><trkpt lat="45.94569667467674" lon="9.3068497735167"><ele>255.0</ele><time>2026-05-03T12:54:25.001Z</time></trkpt><trkpt lat="45.94555630788285" lon="9.30711602434103"><ele>255.0</ele><time>2026-05-03T12:54:26.001Z</time></trkpt><trkpt lat="45.94549021650523" lon="9.307325246794912"><ele>255.0</ele><time>2026-05-03T12:54:27.001Z</time></trkpt><trkpt lat="45.94530873657727" lon="9.307512795075192"><ele>265.3333333333333</ele><time>2026-05-03T12:54:28.001Z</time></trkpt><trkpt lat="45.94521999624408" lon="9.307610036895147"><ele>275.66666666666663</ele><time>2026-05-03T12:54:29.001Z</time></trkpt><trkpt lat="45.945056033246175" lon="9.30781702386293"><ele>286.0</ele><time>2026-05-03T12:54:30.001Z</time></trkpt><trkpt lat="45.94497452328576" lon="9.30795221762376"><ele>274.0</ele><time>2026-05-03T12:54:31.001Z</time></trkpt><trkpt lat="45.944911708220275" lon="9.308081605288569"><ele>262.0</ele><time>2026-05-03T12:54:32.001Z</time></trkpt><trkpt lat="45.94486855520773" lon="9.308180470658206"><ele>250.0</ele><time>2026-05-03T12:54:33.001Z</time></trkpt><trkpt lat="45.94481593486512" lon="9.30832007888996"><ele>238.0</ele><time>2026-05-03T12:54:34.001Z</time></trkpt><trkpt lat="45.944741331430755" lon="9.308511499407766"><ele>238.0</ele><time>2026-05-03T12:54:35.001Z</time></trkpt><trkpt lat="45.94466568943228" lon="9.308628397876191"><ele>238.0</ele><time>2026-05-03T12:54:36.001Z</time></trkpt><trkpt lat="45.944602250031025" lon="9.308805194139564"><ele>238.0</ele><time>2026-05-03T12:54:37.001Z</time></trkpt><trkpt lat="45.94444786000372" lon="9.308900754917309"><ele>238.0</ele><time>2026-05-03T12:54:38.001Z</time></trkpt><trkpt lat="45.94423184845652" lon="9.309077620131896"><ele>233.66666666666666</ele><time>2026-05-03T12:54:39.001Z</time></trkpt><trkpt lat="45.94403311529918" lon="9.309229736421667"><ele>229.33333333333331</ele><time>2026-05-03T12:54:40.001Z</time></trkpt><trkpt lat="45.943866781614716" lon="9.309360788292155"><ele>225.0</ele><time>2026-05-03T12:54:41.001Z</time></trkpt><trkpt lat="45.94366866085758" lon="9.309530603262248"><ele>225.0</ele><time>2026-05-03T12:54:42.001Z</time></trkpt><trkpt lat="45.94355240303578" lon="9.309626275628085"><ele>225.0</ele><time>2026-05-03T12:54:43.001Z</time></trkpt><trkpt lat="45.94344595460857" lon="9.309713468475362"><ele>225.0</ele><time>2026-05-03T12:54:44.001Z</time></trkpt><trkpt lat="45.9432375579906" lon="9.309879629495137"><ele>223.33333333333331</ele><time>2026-05-03T12:54:45.001Z</time></trkpt><trkpt lat="45.94317967178328" lon="9.309937316049945"><ele>221.66666666666666</ele><time>2026-05-03T12:54:46.001Z</time></trkpt><trkpt lat="45.942998825341775" lon="9.310109585472567"><ele>220.0</ele><time>2026-05-03T12:54:47.001Z</time></trkpt><trkpt lat="45.942850861468976" lon="9.310274637338333"><ele>220.0</ele><time>2026-05-03T12:54:48.001Z</time></trkpt><trkpt lat="45.94268306759379" lon="9.310467983911542"><ele>220.0</ele><time>2026-05-03T12:54:49.001Z</time></trkpt><trkpt lat="45.942493862131776" lon="9.310635719028948"><ele>220.0</ele><time>2026-05-03T12:54:50.001Z</time></trkpt><trkpt lat="45.942314504001516" lon="9.310824288589"><ele>221.0</ele><time>2026-05-03T12:54:51.001Z</time></trkpt><trkpt lat="45.94210862275919" lon="9.311016413821958"><ele>222.0</ele><time>2026-05-03T12:54:52.001Z</time></trkpt><trkpt lat="45.94188463367948" lon="9.311227682941595"><ele>222.0</ele><time>2026-05-03T12:54:53.001Z</time></trkpt><trkpt lat="45.941655768699476" lon="9.311429677794921"><ele>222.0</ele><time>2026-05-03T12:54:54.001Z</time></trkpt><trkpt lat="45.94142935483605" lon="9.31165148602278"><ele>222.0</ele><time>2026-05-03T12:54:55.001Z</time></trkpt><trkpt lat="45.94120378209565" lon="9.311853004275937"><ele>222.0</ele><time>2026-05-03T12:54:56.001Z</time></trkpt><trkpt lat="45.94099479270371" lon="9.312010458592443"><ele>222.33333333333331</ele><time>2026-05-03T12:54:57.001Z</time></trkpt><trkpt lat="45.94082877037421" lon="9.312156634827952"><ele>222.66666666666666</ele><time>2026-05-03T12:54:58.001Z</time></trkpt><trkpt lat="45.94068335994907" lon="9.312309540262188"><ele>223.0</ele><time>2026-05-03T12:54:59.001Z</time></trkpt><trkpt lat="45.94054760462098" lon="9.312429512794035"><ele>223.0</ele><time>2026-05-03T12:55:00.001Z</time></trkpt><trkpt lat="45.94042641412293" lon="9.312530026808354"><ele>223.0</ele><time>2026-05-03T12:55:01.001Z</time></trkpt><trkpt lat="45.94030661753988" lon="9.312578006119647"><ele>223.0</ele><time>2026-05-03T12:55:02.001Z</time></trkpt><trkpt lat="45.940184069182386" lon="9.312619405980472"><ele>223.0</ele><time>2026-05-03T12:55:03.001Z</time></trkpt><trkpt lat="45.940062695861066" lon="9.312633383585789"><ele>218.25</ele><time>2026-05-03T12:55:04.001Z</time></trkpt><trkpt lat="45.939931858470096" lon="9.312623292517635"><ele>213.5</ele><time>2026-05-03T12:55:05.001Z</time></trkpt><trkpt lat="45.93980199302479" lon="9.312594690277368"><ele>208.75</ele><time>2026-05-03T12:55:06.001Z</time></trkpt><trkpt lat="45.93966951108056" lon="9.312574846515906"><ele>204.0</ele><time>2026-05-03T12:55:07.001Z</time></trkpt><trkpt lat="45.93953686163616" lon="9.312552523824092"><ele>204.0</ele><time>2026-05-03T12:55:08.001Z</time></trkpt><trkpt lat="45.93939434390585" lon="9.312549852846098"><ele>204.0</ele><time>2026-05-03T12:55:09.001Z</time></trkpt><trkpt lat="45.93923429507016" lon="9.31254432741693"><ele>204.0</ele><time>2026-05-03T12:55:10.001Z</time></trkpt><trkpt lat="45.93906086296519" lon="9.312562025646915"><ele>204.33333333333331</ele><time>2026-05-03T12:55:11.001Z</time></trkpt><trkpt lat="45.93887987797887" lon="9.312581878935712"><ele>204.66666666666666</ele><time>2026-05-03T12:55:12.001Z</time></trkpt><trkpt lat="45.938703247380225" lon="9.312604082294328"><ele>205.0</ele><time>2026-05-03T12:55:13.001Z</time></trkpt><trkpt lat="45.938550322915084" lon="9.31262922763152"><ele>205.0</ele><time>2026-05-03T12:55:14.001Z</time></trkpt><trkpt lat="45.938408305619824" lon="9.312654984229205"><ele>205.0</ele><time>2026-05-03T12:55:15.002Z</time></trkpt><trkpt lat="45.938290727924475" lon="9.31269402480102"><ele>205.0</ele><time>2026-05-03T12:55:16.002Z</time></trkpt><trkpt lat="45.93819649203914" lon="9.312703531920699"><ele>205.0</ele><time>2026-05-03T12:55:17.002Z</time></trkpt><trkpt lat="45.93812098232337" lon="9.312712947021359"><ele>205.0</ele><time>2026-05-03T12:55:18.002Z</time></trkpt><trkpt lat="45.93805766167653" lon="9.312722830086587"><ele>204.8</ele><time>2026-05-03T12:55:19.002Z</time></trkpt><trkpt lat="45.93796386031141" lon="9.312720872265604"><ele>204.6</ele><time>2026-05-03T12:55:21.002Z</time></trkpt><trkpt lat="45.93787024794954" lon="9.312723968957874"><ele>204.39999999999998</ele><time>2026-05-03T12:55:24.002Z</time></trkpt><trkpt lat="45.93780544056088" lon="9.312732867672883"><ele>204.2</ele><time>2026-05-03T12:55:25.002Z</time></trkpt><trkpt lat="45.93771311401938" lon="9.31274047472753"><ele>204.0</ele><time>2026-05-03T12:55:26.002Z</time></trkpt><trkpt lat="45.93760427855975" lon="9.31274304315348"><ele>203.25</ele><time>2026-05-03T12:55:27.002Z</time></trkpt><trkpt lat="45.937482331969065" lon="9.31274983933982"><ele>202.5</ele><time>2026-05-03T12:55:28.002Z</time></trkpt><trkpt lat="45.93735730677036" lon="9.312762234563142"><ele>201.75</ele><time>2026-05-03T12:55:29.002Z</time></trkpt><trkpt lat="45.93722534623422" lon="9.31277379959567"><ele>201.0</ele><time>2026-05-03T12:55:30.002Z</time></trkpt><trkpt lat="45.937089456188" lon="9.312782167072914"><ele>201.0</ele><time>2026-05-03T12:55:31.002Z</time></trkpt><trkpt lat="45.93694998823964" lon="9.31279000063723"><ele>201.0</ele><time>2026-05-03T12:55:32.002Z</time></trkpt><trkpt lat="45.93680562474327" lon="9.312800608976467"><ele>201.0</ele><time>2026-05-03T12:55:33.002Z</time></trkpt><trkpt lat="45.9366409680471" lon="9.31281632068757"><ele>201.0</ele><time>2026-05-03T12:55:34.002Z</time></trkpt><trkpt lat="45.93645699127317" lon="9.312833194917046"><ele>201.0</ele><time>2026-05-03T12:55:35.002Z</time></trkpt><trkpt lat="45.93625814401626" lon="9.312845593396172"><ele>201.0</ele><time>2026-05-03T12:55:36.002Z</time></trkpt><trkpt lat="45.93604627344243" lon="9.312854576204964"><ele>201.0</ele><time>2026-05-03T12:55:37.002Z</time></trkpt><trkpt lat="45.93582374650705" lon="9.312865082731003"><ele>200.5</ele><time>2026-05-03T12:55:38.002Z</time></trkpt><trkpt lat="45.93559407365966" lon="9.312864873838306"><ele>200.0</ele><time>2026-05-03T12:55:39.002Z</time></trkpt><trkpt lat="45.93535406827659" lon="9.312806412834867"><ele>200.0</ele><time>2026-05-03T12:55:40.002Z</time></trkpt><trkpt lat="45.935108295255354" lon="9.312779401516876"><ele>200.0</ele><time>2026-05-03T12:55:41.002Z</time></trkpt><trkpt lat="45.93485819274108" lon="9.312721683713058"><ele>201.0</ele><time>2026-05-03T12:55:42.002Z</time></trkpt><trkpt lat="45.93460249563082" lon="9.312670583694874"><ele>202.0</ele><time>2026-05-03T12:55:43.002Z</time></trkpt><trkpt lat="45.93433899865596" lon="9.312619897241756"><ele>205.0</ele><time>2026-05-03T12:55:44.002Z</time></trkpt><trkpt lat="45.93407413289664" lon="9.312568721743704"><ele>208.0</ele><time>2026-05-03T12:55:45.002Z</time></trkpt><trkpt lat="45.93380478451872" lon="9.312528598142057"><ele>208.0</ele><time>2026-05-03T12:55:46.002Z</time></trkpt><trkpt lat="45.93353435456603" lon="9.312517148182454"><ele>208.0</ele><time>2026-05-03T12:55:47.002Z</time></trkpt><trkpt lat="45.9332735040517" lon="9.31252387700822"><ele>208.33333333333331</ele><time>2026-05-03T12:55:48.002Z</time></trkpt><trkpt lat="45.933032556334375" lon="9.312534309634568"><ele>208.66666666666669</ele><time>2026-05-03T12:55:49.002Z</time></trkpt><trkpt lat="45.93282731256876" lon="9.312516678662314"><ele>209.0</ele><time>2026-05-03T12:55:50.002Z</time></trkpt><trkpt lat="45.93266277001169" lon="9.312483973883417"><ele>211.0</ele><time>2026-05-03T12:55:51.002Z</time></trkpt><trkpt lat="45.932509144055686" lon="9.31241387575315"><ele>213.0</ele><time>2026-05-03T12:55:52.002Z</time></trkpt><trkpt lat="45.93234776977188" lon="9.312292186427218"><ele>215.0</ele><time>2026-05-03T12:55:53.002Z</time></trkpt><trkpt lat="45.93213834341692" lon="9.312206402998761"><ele>213.66666666666669</ele><time>2026-05-03T12:55:54.002Z</time></trkpt><trkpt lat="45.93200713800756" lon="9.311929456719817"><ele>212.33333333333331</ele><time>2026-05-03T12:55:55.003Z</time></trkpt><trkpt lat="45.93186529384053" lon="9.311733971968962"><ele>211.0</ele><time>2026-05-03T12:55:56.003Z</time></trkpt><trkpt lat="45.931715022184335" lon="9.31162375847612"><ele>211.0</ele><time>2026-05-03T12:55:57.003Z</time></trkpt><trkpt lat="45.93154182053793" lon="9.311571235526383"><ele>211.0</ele><time>2026-05-03T12:55:58.003Z</time></trkpt><trkpt lat="45.93135948073649" lon="9.311582810081447"><ele>211.0</ele><time>2026-05-03T12:55:59.003Z</time></trkpt><trkpt lat="45.931165364486496" lon="9.311648905448305"><ele>211.0</ele><time>2026-05-03T12:56:00.003Z</time></trkpt><trkpt lat="45.930968966840055" lon="9.311764446808832"><ele>211.0</ele><time>2026-05-03T12:56:01.003Z</time></trkpt><trkpt lat="45.93079454704871" lon="9.31187151531509"><ele>211.0</ele><time>2026-05-03T12:56:02.003Z</time></trkpt><trkpt lat="45.93065505820081" lon="9.311935796580997"><ele>209.75</ele><time>2026-05-03T12:56:03.003Z</time></trkpt><trkpt lat="45.93052734148726" lon="9.3120034649609"><ele>208.5</ele><time>2026-05-03T12:56:04.003Z</time></trkpt><trkpt lat="45.93041291592529" lon="9.312097046748987"><ele>207.25</ele><time>2026-05-03T12:56:05.003Z</time></trkpt><trkpt lat="45.93029687982129" lon="9.312229677960465"><ele>206.0</ele><time>2026-05-03T12:56:06.003Z</time></trkpt><trkpt lat="45.93017065642265" lon="9.312384941035328"><ele>208.0</ele><time>2026-05-03T12:56:07.003Z</time></trkpt><trkpt lat="45.93005713640668" lon="9.31250082211083"><ele>210.0</ele><time>2026-05-03T12:56:08.003Z</time></trkpt><trkpt lat="45.92995667960684" lon="9.312594572242645"><ele>212.0</ele><time>2026-05-03T12:56:09.003Z</time></trkpt><trkpt lat="45.929848985383835" lon="9.312644996138571"><ele>214.0</ele><time>2026-05-03T12:56:10.003Z</time></trkpt><trkpt lat="45.9297424051074" lon="9.312696104808204"><ele>214.0</ele><time>2026-05-03T12:56:11.003Z</time></trkpt><trkpt lat="45.92964605249392" lon="9.312724194441692"><ele>213.99999999999997</ele><time>2026-05-03T12:56:12.003Z</time></trkpt><trkpt lat="45.929539061171305" lon="9.312736332718908"><ele>213.99999999999997</ele><time>2026-05-03T12:56:13.003Z</time></trkpt><trkpt lat="45.92943280256968" lon="9.31272616346126"><ele>214.0</ele><time>2026-05-03T12:56:14.003Z</time></trkpt><trkpt lat="45.92930512917201" lon="9.312692337278701"><ele>214.0</ele><time>2026-05-03T12:56:15.003Z</time></trkpt><trkpt lat="45.92915002064586" lon="9.3126305444186"><ele>212.33333333333331</ele><time>2026-05-03T12:56:16.003Z</time></trkpt><trkpt lat="45.92896391512849" lon="9.312552400720701"><ele>210.66666666666669</ele><time>2026-05-03T12:56:17.003Z</time></trkpt><trkpt lat="45.9287612162938" lon="9.312489192324364"><ele>209.0</ele><time>2026-05-03T12:56:18.003Z</time></trkpt><trkpt lat="45.92854960217536" lon="9.312382893148467"><ele>210.66666666666669</ele><time>2026-05-03T12:56:19.003Z</time></trkpt><trkpt lat="45.92833229660129" lon="9.312292442174874"><ele>212.33333333333331</ele><time>2026-05-03T12:56:20.003Z</time></trkpt><trkpt lat="45.92812727325404" lon="9.312226159396506"><ele>214.0</ele><time>2026-05-03T12:56:21.003Z</time></trkpt><trkpt lat="45.927954366147944" lon="9.312133337567678"><ele>212.0</ele><time>2026-05-03T12:56:22.003Z</time></trkpt><trkpt lat="45.927785454793266" lon="9.31206636162834"><ele>210.0</ele><time>2026-05-03T12:56:23.003Z</time></trkpt><trkpt lat="45.92758692484346" lon="9.311992243744667"><ele>208.0</ele><time>2026-05-03T12:56:24.003Z</time></trkpt><trkpt lat="45.92736852141814" lon="9.311952948753184"><ele>208.0</ele><time>2026-05-03T12:56:25.003Z</time></trkpt><trkpt lat="45.927141051727375" lon="9.311890900342526"><ele>208.0</ele><time>2026-05-03T12:56:26.003Z</time></trkpt><trkpt lat="45.92692927065888" lon="9.311877038746154"><ele>208.0</ele><time>2026-05-03T12:56:27Z</time></trkpt><trkpt lat="45.92673476210226" lon="9.311874168434889"><ele>209.66666666666666</ele><time>2026-05-03T12:56:28Z</time></trkpt><trkpt lat="45.92653686908876" lon="9.311882182584913"><ele>211.33333333333331</ele><time>2026-05-03T12:56:29Z</time></trkpt><trkpt lat="45.9263280787811" lon="9.311894472387335"><ele>213.0</ele><time>2026-05-03T12:56:30Z</time></trkpt><trkpt lat="45.92611716989521" lon="9.311908343395425"><ele>213.0</ele><time>2026-05-03T12:56:31Z</time></trkpt><trkpt lat="45.925900240501356" lon="9.311927950715473"><ele>213.0</ele><time>2026-05-03T12:56:32Z</time></trkpt><trkpt lat="45.92567153423037" lon="9.31196937368874"><ele>213.0</ele><time>2026-05-03T12:56:33Z</time></trkpt><trkpt lat="45.92544145864015" lon="9.312021297454844"><ele>213.0</ele><time>2026-05-03T12:56:34Z</time></trkpt><trkpt lat="45.92520785158013" lon="9.312081893853565"><ele>213.0</ele><time>2026-05-03T12:56:35Z</time></trkpt><trkpt lat="45.92496614920817" lon="9.312147720497423"><ele>213.0</ele><time>2026-05-03T12:56:36Z</time></trkpt><trkpt lat="45.92472468506586" lon="9.312210819225207"><ele>213.0</ele><time>2026-05-03T12:56:37Z</time></trkpt><trkpt lat="45.924517035353134" lon="9.312273277496619"><ele>215.33333333333331</ele><time>2026-05-03T12:56:38Z</time></trkpt><trkpt lat="45.92432215697935" lon="9.312318383590208"><ele>217.66666666666666</ele><time>2026-05-03T12:56:39Z</time></trkpt><trkpt lat="45.92413810184134" lon="9.312362317036916"><ele>220.0</ele><time>2026-05-03T12:56:40Z</time></trkpt><trkpt lat="45.92396515355206" lon="9.312403458011575"><ele>220.0</ele><time>2026-05-03T12:56:41Z</time></trkpt><trkpt lat="45.92378208917484" lon="9.312452513858798"><ele>220.0</ele><time>2026-05-03T12:56:42Z</time></trkpt><trkpt lat="45.923602324554736" lon="9.312502046702441"><ele>220.0</ele><time>2026-05-03T12:56:43Z</time></trkpt><trkpt lat="45.92341737132328" lon="9.312550153478616"><ele>219.66666666666666</ele><time>2026-05-03T12:56:44Z</time></trkpt><trkpt lat="45.92322997791734" lon="9.312592342106866"><ele>219.33333333333331</ele><time>2026-05-03T12:56:45Z</time></trkpt><trkpt lat="45.923031338008386" lon="9.312643757205132"><ele>219.0</ele><time>2026-05-03T12:56:46Z</time></trkpt><trkpt lat="45.922819044791105" lon="9.312692649240288"><ele>219.0</ele><time>2026-05-03T12:56:47Z</time></trkpt><trkpt lat="45.92260109398406" lon="9.31275507373949"><ele>219.0</ele><time>2026-05-03T12:56:48Z</time></trkpt><trkpt lat="45.92237447589487" lon="9.312820851340707"><ele>218.0</ele><time>2026-05-03T12:56:49Z</time></trkpt><trkpt lat="45.92214294878141" lon="9.312878882937207"><ele>217.0</ele><time>2026-05-03T12:56:50Z</time></trkpt><trkpt lat="45.9219293287688" lon="9.312937766259541"><ele>217.0</ele><time>2026-05-03T12:56:51Z</time></trkpt><trkpt lat="45.92173559350921" lon="9.312992077375435"><ele>217.0</ele><time>2026-05-03T12:56:52Z</time></trkpt><trkpt lat="45.921557691300194" lon="9.313059561150373"><ele>217.0</ele><time>2026-05-03T12:56:53Z</time></trkpt><trkpt lat="45.921381818848396" lon="9.313123348774392"><ele>218.0</ele><time>2026-05-03T12:56:54Z</time></trkpt><trkpt lat="45.92123212535964" lon="9.313209106291685"><ele>219.0</ele><time>2026-05-03T12:56:55Z</time></trkpt><trkpt lat="45.92108547619217" lon="9.313313049099133"><ele>220.0</ele><time>2026-05-03T12:56:56Z</time></trkpt><trkpt lat="45.92094655522229" lon="9.313423821366033"><ele>219.0</ele><time>2026-05-03T12:56:57Z</time></trkpt><trkpt lat="45.92082303631471" lon="9.31353344728704"><ele>218.0</ele><time>2026-05-03T12:56:58Z</time></trkpt><trkpt lat="45.92070992888678" lon="9.313635665334926"><ele>217.0</ele><time>2026-05-03T12:56:59Z</time></trkpt><trkpt lat="45.92060014270767" lon="9.313733035102443"><ele>216.0</ele><time>2026-05-03T12:57:00Z</time></trkpt><trkpt lat="45.92050994436365" lon="9.313815410553673"><ele>216.0</ele><time>2026-05-03T12:57:01Z</time></trkpt><trkpt lat="45.92045003325637" lon="9.31386160974654"><ele>216.00000000000003</ele><time>2026-05-03T12:57:02.001Z</time></trkpt><trkpt lat="45.92037254251919" lon="9.313833181246194"><ele>216.00000000000003</ele><time>2026-05-03T12:57:04.001Z</time></trkpt><trkpt lat="45.920352512249195" lon="9.313697383605794"><ele>216.0</ele><time>2026-05-03T12:57:06.001Z</time></trkpt><trkpt lat="45.92020233651312" lon="9.313743141044664"><ele>216.0</ele><time>2026-05-03T12:57:10.001Z</time></trkpt><trkpt lat="45.920144963424846" lon="9.31380317165959"><ele>216.0</ele><time>2026-05-03T12:57:15.001Z</time></trkpt><trkpt lat="45.9201623791374" lon="9.313706549008511"><ele>216.00000000000003</ele><time>2026-05-03T12:57:18.001Z</time></trkpt><trkpt lat="45.92023074139172" lon="9.313636323312384"><ele>216.00000000000003</ele><time>2026-05-03T13:01:31.002Z</time></trkpt><trkpt lat="45.9202716093697" lon="9.313749251084992"><ele>216.0</ele><time>2026-05-03T13:01:33.002Z</time></trkpt><trkpt lat="45.92021496761894" lon="9.313909791067069"><ele>216.0</ele><time>2026-05-03T13:01:35.002Z</time></trkpt><trkpt lat="45.92013901842238" lon="9.313979918919967"><ele>215.8</ele><time>2026-05-03T13:01:36.002Z</time></trkpt><trkpt lat="45.92005552228799" lon="9.314069050363585"><ele>215.60000000000002</ele><time>2026-05-03T13:01:38.002Z</time></trkpt><trkpt lat="45.92002128894681" lon="9.314147055877234"><ele>215.4</ele><time>2026-05-03T13:01:39.002Z</time></trkpt><trkpt lat="45.919975814496155" lon="9.314270464500458"><ele>215.2</ele><time>2026-05-03T13:01:40.002Z</time></trkpt><trkpt lat="45.91987467977733" lon="9.314381120569845"><ele>215.0</ele><time>2026-05-03T13:01:41.002Z</time></trkpt><trkpt lat="45.91974563248274" lon="9.314498352276498"><ele>215.0</ele><time>2026-05-03T13:01:42.002Z</time></trkpt><trkpt lat="45.919604587197156" lon="9.314623743754648"><ele>215.0</ele><time>2026-05-03T13:01:43.002Z</time></trkpt><trkpt lat="45.91945178638835" lon="9.314782791654094"><ele>215.0</ele><time>2026-05-03T13:01:44.002Z</time></trkpt><trkpt lat="45.91930123219723" lon="9.31494682512208"><ele>214.8</ele><time>2026-05-03T13:01:45.002Z</time></trkpt><trkpt lat="45.919175496900074" lon="9.315075184432123"><ele>214.6</ele><time>2026-05-03T13:01:46.002Z</time></trkpt><trkpt lat="45.91907931174778" lon="9.315156173420363"><ele>214.39999999999998</ele><time>2026-05-03T13:01:47.002Z</time></trkpt><trkpt lat="45.91899105764104" lon="9.315193965388398"><ele>214.2</ele><time>2026-05-03T13:01:48.002Z</time></trkpt><trkpt lat="45.91891236440926" lon="9.315203639370223"><ele>214.0</ele><time>2026-05-03T13:01:49.002Z</time></trkpt><trkpt lat="45.918847482728296" lon="9.315239638063202"><ele>214.0</ele><time>2026-05-03T13:01:50.002Z</time></trkpt><trkpt lat="45.918797387376365" lon="9.315338118052633"><ele>213.99999999999997</ele><time>2026-05-03T13:01:51.002Z</time></trkpt><trkpt lat="45.91876162332957" lon="9.315472951833907"><ele>213.99999999999997</ele><time>2026-05-03T13:01:52.002Z</time></trkpt><trkpt lat="45.918709222920114" lon="9.315620641743376"><ele>214.0</ele><time>2026-05-03T13:01:53.002Z</time></trkpt><trkpt lat="45.918635159671865" lon="9.315739691223786"><ele>214.0</ele><time>2026-05-03T13:01:54.002Z</time></trkpt><trkpt lat="45.91854685512866" lon="9.315851801581726"><ele>214.5</ele><time>2026-05-03T13:01:55.002Z</time></trkpt><trkpt lat="45.91845364743158" lon="9.31597138481324"><ele>215.0</ele><time>2026-05-03T13:01:56.002Z</time></trkpt><trkpt lat="45.91835851850936" lon="9.316103723082765"><ele>215.5</ele><time>2026-05-03T13:01:57.002Z</time></trkpt><trkpt lat="45.91826651996927" lon="9.31624104280857"><ele>216.0</ele><time>2026-05-03T13:01:58.002Z</time></trkpt><trkpt lat="45.91816834342394" lon="9.31638998589025"><ele>216.25</ele><time>2026-05-03T13:01:59.002Z</time></trkpt><trkpt lat="45.91807291637314" lon="9.316534687700411"><ele>216.5</ele><time>2026-05-03T13:02:00.002Z</time></trkpt><trkpt lat="45.91798167603635" lon="9.316691144204395"><ele>216.75</ele><time>2026-05-03T13:02:01.002Z</time></trkpt><trkpt lat="45.91788660809856" lon="9.316841578762206"><ele>217.0</ele><time>2026-05-03T13:02:02.002Z</time></trkpt><trkpt lat="45.91778840646353" lon="9.316993791653095"><ele>217.0</ele><time>2026-05-03T13:02:03.002Z</time></trkpt><trkpt lat="45.917691471853296" lon="9.317153622776281"><ele>217.0</ele><time>2026-05-03T13:02:04.003Z</time></trkpt><trkpt lat="45.91759996894843" lon="9.31731770815891"><ele>217.0</ele><time>2026-05-03T13:02:05.003Z</time></trkpt><trkpt lat="45.917513787602715" lon="9.317482837077305"><ele>217.0</ele><time>2026-05-03T13:02:06.003Z</time></trkpt><trkpt lat="45.9174290657592" lon="9.317647049889297"><ele>217.25</ele><time>2026-05-03T13:02:07.003Z</time></trkpt><trkpt lat="45.917344248562216" lon="9.317810132423254"><ele>217.5</ele><time>2026-05-03T13:02:08.003Z</time></trkpt><trkpt lat="45.917257791062035" lon="9.317964787428593"><ele>217.75</ele><time>2026-05-03T13:02:09.003Z</time></trkpt><trkpt lat="45.917175033196926" lon="9.318102344499389"><ele>218.0</ele><time>2026-05-03T13:02:10.003Z</time></trkpt><trkpt lat="45.91708114815416" lon="9.3182264348906"><ele>218.0</ele><time>2026-05-03T13:02:11.003Z</time></trkpt><trkpt lat="45.91697357743535" lon="9.318342015599525"><ele>218.0</ele><time>2026-05-03T13:02:12.003Z</time></trkpt><trkpt lat="45.91684553821156" lon="9.318453896250086"><ele>218.0</ele><time>2026-05-03T13:02:13.003Z</time></trkpt><trkpt lat="45.916710931628195" lon="9.318565000844917"><ele>218.0</ele><time>2026-05-03T13:02:14.003Z</time></trkpt><trkpt lat="45.91658510126355" lon="9.318667313103054"><ele>217.4</ele><time>2026-05-03T13:02:15.003Z</time></trkpt><trkpt lat="45.916485165364996" lon="9.318760268887626"><ele>216.8</ele><time>2026-05-03T13:02:16.003Z</time></trkpt><trkpt lat="45.916397701953805" lon="9.318861299973912"><ele>216.2</ele><time>2026-05-03T13:02:17.003Z</time></trkpt><trkpt lat="45.916322447198496" lon="9.318970154568476"><ele>215.6</ele><time>2026-05-03T13:02:18.003Z</time></trkpt><trkpt lat="45.91626271572614" lon="9.31908962932448"><ele>215.0</ele><time>2026-05-03T13:02:19.003Z</time></trkpt><trkpt lat="45.916205399581024" lon="9.319202834174959"><ele>215.0</ele><time>2026-05-03T13:02:20.003Z</time></trkpt><trkpt lat="45.91614806043247" lon="9.319317391712007"><ele>215.0</ele><time>2026-05-03T13:02:21.003Z</time></trkpt><trkpt lat="45.91608940631685" lon="9.319437496312217"><ele>215.0</ele><time>2026-05-03T13:02:22.003Z</time></trkpt><trkpt lat="45.91603263385132" lon="9.319558813998391"><ele>215.0</ele><time>2026-05-03T13:02:23.003Z</time></trkpt><trkpt lat="45.9159723773222" lon="9.31968221012283"><ele>215.0</ele><time>2026-05-03T13:02:24.003Z</time></trkpt><trkpt lat="45.91590767023732" lon="9.319811746960626"><ele>214.6</ele><time>2026-05-03T13:02:25.003Z</time></trkpt><trkpt lat="45.915839765247746" lon="9.319939111572898"><ele>214.2</ele><time>2026-05-03T13:02:26.003Z</time></trkpt><trkpt lat="45.915771663364424" lon="9.320059815075538"><ele>213.8</ele><time>2026-05-03T13:02:27.003Z</time></trkpt><trkpt lat="45.91571018268454" lon="9.320185979166704"><ele>213.4</ele><time>2026-05-03T13:02:28.003Z</time></trkpt><trkpt lat="45.915644782117596" lon="9.320315403052186"><ele>213.0</ele><time>2026-05-03T13:02:29.003Z</time></trkpt><trkpt lat="45.91558352608892" lon="9.320430354110023"><ele>213.0</ele><time>2026-05-03T13:02:30.003Z</time></trkpt><trkpt lat="45.915522459988466" lon="9.320544144807148"><ele>213.0</ele><time>2026-05-03T13:02:31.003Z</time></trkpt><trkpt lat="45.91546482568834" lon="9.320659502916538"><ele>213.0</ele><time>2026-05-03T13:02:32.003Z</time></trkpt><trkpt lat="45.91540591948962" lon="9.320773596792757"><ele>213.0</ele><time>2026-05-03T13:02:33.003Z</time></trkpt><trkpt lat="45.91533944894704" lon="9.320893061749423"><ele>213.0</ele><time>2026-05-03T13:02:34.003Z</time></trkpt><trkpt lat="45.915264354068846" lon="9.321023807273315"><ele>213.0</ele><time>2026-05-03T13:02:35.003Z</time></trkpt><trkpt lat="45.91518565565295" lon="9.321158096133493"><ele>213.0</ele><time>2026-05-03T13:02:36.003Z</time></trkpt><trkpt lat="45.91512419245752" lon="9.321270454671653"><ele>213.0</ele><time>2026-05-03T13:02:37.003Z</time></trkpt><trkpt lat="45.91506494281233" lon="9.32137482465288"><ele>213.0</ele><time>2026-05-03T13:02:38.003Z</time></trkpt><trkpt lat="45.91500454634615" lon="9.321480784488452"><ele>213.0</ele><time>2026-05-03T13:02:39.003Z</time></trkpt><trkpt lat="45.91493520381363" lon="9.32160842906953"><ele>213.2</ele><time>2026-05-03T13:02:40.004Z</time></trkpt><trkpt lat="45.914862014959816" lon="9.321747727248159"><ele>213.4</ele><time>2026-05-03T13:02:41.004Z</time></trkpt><trkpt lat="45.9147871426245" lon="9.321883665219277"><ele>213.59999999999997</ele><time>2026-05-03T13:02:42.004Z</time></trkpt><trkpt lat="45.914720607509395" lon="9.322006087979208"><ele>213.79999999999998</ele><time>2026-05-03T13:02:43.004Z</time></trkpt><trkpt lat="45.914669668130436" lon="9.322110035861773"><ele>214.0</ele><time>2026-05-03T13:02:44.004Z</time></trkpt><trkpt lat="45.914615232100715" lon="9.322219984456234"><ele>213.66666666666666</ele><time>2026-05-03T13:02:45.001Z</time></trkpt><trkpt lat="45.91456650929727" lon="9.322311037548056"><ele>213.33333333333331</ele><time>2026-05-03T13:02:46.001Z</time></trkpt><trkpt lat="45.914515282278224" lon="9.322411030092846"><ele>213.0</ele><time>2026-05-03T13:02:47.001Z</time></trkpt><trkpt lat="45.91446755691669" lon="9.322501269723544"><ele>212.66666666666669</ele><time>2026-05-03T13:02:48.001Z</time></trkpt><trkpt lat="45.914421205367375" lon="9.322586299829682"><ele>212.33333333333334</ele><time>2026-05-03T13:02:49.001Z</time></trkpt><trkpt lat="45.914378455085945" lon="9.322668318962267"><ele>212.0</ele><time>2026-05-03T13:02:50.001Z</time></trkpt><trkpt lat="45.91434137392924" lon="9.32274460216814"><ele>212.0</ele><time>2026-05-03T13:02:51.001Z</time></trkpt><trkpt lat="45.914260867935674" lon="9.322894450156639"><ele>212.0</ele><time>2026-05-03T13:02:53.001Z</time></trkpt><trkpt lat="45.91418996893368" lon="9.322989066200597"><ele>212.0</ele><time>2026-05-03T13:02:54.001Z</time></trkpt><trkpt lat="45.91410064122813" lon="9.323087137291832"><ele>212.0</ele><time>2026-05-03T13:02:55.001Z</time></trkpt><trkpt lat="45.913969780298835" lon="9.323177374584008"><ele>211.66666666666669</ele><time>2026-05-03T13:02:56.001Z</time></trkpt><trkpt lat="45.91381436411873" lon="9.323245808409032"><ele>211.33333333333331</ele><time>2026-05-03T13:02:57.001Z</time></trkpt><trkpt lat="45.91365144995259" lon="9.323320858384783"><ele>211.0</ele><time>2026-05-03T13:02:58.001Z</time></trkpt><trkpt lat="45.91346928781872" lon="9.323452417556473"><ele>209.0</ele><time>2026-05-03T13:02:59.001Z</time></trkpt><trkpt lat="45.91328893972534" lon="9.323548562418381"><ele>207.0</ele><time>2026-05-03T13:03:00.001Z</time></trkpt><trkpt lat="45.91311648365433" lon="9.323648004694395"><ele>205.0</ele><time>2026-05-03T13:03:01.001Z</time></trkpt><trkpt lat="45.912963212292695" lon="9.323726019532241"><ele>205.0</ele><time>2026-05-03T13:03:02.001Z</time></trkpt><trkpt lat="45.91280391373079" lon="9.32381306225189"><ele>205.0</ele><time>2026-05-03T13:03:03.001Z</time></trkpt><trkpt lat="45.91263014373944" lon="9.323872696199775"><ele>205.0</ele><time>2026-05-03T13:03:04.001Z</time></trkpt><trkpt lat="45.91246530488269" lon="9.323969801618043"><ele>205.0</ele><time>2026-05-03T13:03:05.001Z</time></trkpt><trkpt lat="45.91229689185538" lon="9.324044169717597"><ele>205.0</ele><time>2026-05-03T13:03:06.001Z</time></trkpt><trkpt lat="45.912142375210536" lon="9.32412692800198"><ele>205.0</ele><time>2026-05-03T13:03:07.001Z</time></trkpt><trkpt lat="45.91200581031618" lon="9.32420494473333"><ele>205.0</ele><time>2026-05-03T13:03:08.001Z</time></trkpt><trkpt lat="45.911878582189786" lon="9.32427212278631"><ele>205.0</ele><time>2026-05-03T13:03:09.001Z</time></trkpt><trkpt lat="45.91175914820718" lon="9.324340133458985"><ele>205.0</ele><time>2026-05-03T13:03:10.001Z</time></trkpt><trkpt lat="45.91164606294759" lon="9.324400227416342"><ele>205.0</ele><time>2026-05-03T13:03:11.001Z</time></trkpt><trkpt lat="45.911536203594565" lon="9.324473716823483"><ele>204.25</ele><time>2026-05-03T13:03:12.001Z</time></trkpt><trkpt lat="45.91142805520969" lon="9.324584127692797"><ele>203.5</ele><time>2026-05-03T13:03:13.001Z</time></trkpt><trkpt lat="45.91133877293658" lon="9.324734802123643"><ele>202.75</ele><time>2026-05-03T13:03:14.001Z</time></trkpt><trkpt lat="45.911268647322785" lon="9.32490617522809"><ele>202.0</ele><time>2026-05-03T13:03:15.001Z</time></trkpt><trkpt lat="45.9112195610018" lon="9.325085426477258"><ele>205.5</ele><time>2026-05-03T13:03:16.001Z</time></trkpt><trkpt lat="45.91117154539727" lon="9.32525114829249"><ele>209.0</ele><time>2026-05-03T13:03:17.001Z</time></trkpt><trkpt lat="45.91112222681504" lon="9.325410659945272"><ele>212.5</ele><time>2026-05-03T13:03:18.001Z</time></trkpt><trkpt lat="45.9110729035447" lon="9.325563308463066"><ele>216.0</ele><time>2026-05-03T13:03:19.001Z</time></trkpt><trkpt lat="45.91101924955918" lon="9.325724312393572"><ele>215.0</ele><time>2026-05-03T13:03:20.001Z</time></trkpt><trkpt lat="45.91096045734852" lon="9.325871928994042"><ele>214.0</ele><time>2026-05-03T13:03:21.001Z</time></trkpt><trkpt lat="45.91088743545185" lon="9.326007529961043"><ele>213.0</ele><time>2026-05-03T13:03:22.001Z</time></trkpt><trkpt lat="45.91078034766446" lon="9.326090172996023"><ele>212.0</ele><time>2026-05-03T13:03:23.001Z</time></trkpt><trkpt lat="45.910663019361046" lon="9.326175182913243"><ele>212.0</ele><time>2026-05-03T13:03:24.001Z</time></trkpt><trkpt lat="45.91051675621568" lon="9.326236556525433"><ele>212.0</ele><time>2026-05-03T13:03:25.001Z</time></trkpt><trkpt lat="45.9103783566458" lon="9.326280437127096"><ele>212.0</ele><time>2026-05-03T13:03:26.001Z</time></trkpt><trkpt lat="45.910255155811214" lon="9.326315639381399"><ele>212.0</ele><time>2026-05-03T13:03:27.001Z</time></trkpt><trkpt lat="45.91013928123327" lon="9.326349606291751"><ele>211.2</ele><time>2026-05-03T13:03:28.001Z</time></trkpt><trkpt lat="45.9100344004365" lon="9.326399288621161"><ele>210.39999999999998</ele><time>2026-05-03T13:03:29.001Z</time></trkpt><trkpt lat="45.90993560709848" lon="9.326433783017682"><ele>209.60000000000002</ele><time>2026-05-03T13:03:30.001Z</time></trkpt><trkpt lat="45.90984268537664" lon="9.326471546796315"><ele>208.8</ele><time>2026-05-03T13:03:31.001Z</time></trkpt><trkpt lat="45.90974573025633" lon="9.326529407518128"><ele>208.0</ele><time>2026-05-03T13:03:32.001Z</time></trkpt><trkpt lat="45.909631066302516" lon="9.326606817663535"><ele>208.0</ele><time>2026-05-03T13:03:33.001Z</time></trkpt><trkpt lat="45.909505893911216" lon="9.326712222445153"><ele>208.0</ele><time>2026-05-03T13:03:34.001Z</time></trkpt><trkpt lat="45.90936862039932" lon="9.326851079051963"><ele>208.0</ele><time>2026-05-03T13:03:35.001Z</time></trkpt><trkpt lat="45.909239580972" lon="9.326990608081186"><ele>208.33333333333331</ele><time>2026-05-03T13:03:36.001Z</time></trkpt><trkpt lat="45.90911456619356" lon="9.32712704230996"><ele>208.66666666666669</ele><time>2026-05-03T13:03:37.001Z</time></trkpt><trkpt lat="45.908967198842625" lon="9.32724943162325"><ele>209.0</ele><time>2026-05-03T13:03:38.001Z</time></trkpt><trkpt lat="45.90879479464743" lon="9.327339565164298"><ele>209.0</ele><time>2026-05-03T13:03:39.001Z</time></trkpt><trkpt lat="45.90863824071402" lon="9.32738726768749"><ele>209.0</ele><time>2026-05-03T13:03:40.001Z</time></trkpt><trkpt lat="45.90851812571396" lon="9.32742117520936"><ele>209.0</ele><time>2026-05-03T13:03:41.001Z</time></trkpt><trkpt lat="45.908411105951025" lon="9.327471474087826"><ele>209.0</ele><time>2026-05-03T13:03:42.002Z</time></trkpt><trkpt lat="45.90831016019513" lon="9.327503047728781"><ele>207.75</ele><time>2026-05-03T13:03:43.002Z</time></trkpt><trkpt lat="45.908203178776496" lon="9.327544513856443"><ele>206.5</ele><time>2026-05-03T13:03:44.002Z</time></trkpt><trkpt lat="45.90810143473184" lon="9.327608337467325"><ele>205.25</ele><time>2026-05-03T13:03:45.002Z</time></trkpt><trkpt lat="45.907994216009854" lon="9.327701285328416"><ele>204.0</ele><time>2026-05-03T13:03:46.002Z</time></trkpt><trkpt lat="45.90788547638122" lon="9.327805898050777"><ele>204.0</ele><time>2026-05-03T13:03:47.002Z</time></trkpt><trkpt lat="45.90777940136651" lon="9.327880297075449"><ele>204.0</ele><time>2026-05-03T13:03:48.002Z</time></trkpt><trkpt lat="45.907686490049336" lon="9.327967083870242"><ele>204.0</ele><time>2026-05-03T13:03:49.002Z</time></trkpt><trkpt lat="45.907594458125466" lon="9.328047020194337"><ele>204.0</ele><time>2026-05-03T13:03:50.002Z</time></trkpt><trkpt lat="45.90749214790118" lon="9.328116986369942"><ele>206.25</ele><time>2026-05-03T13:03:51.002Z</time></trkpt><trkpt lat="45.90737520823866" lon="9.328165753207445"><ele>208.5</ele><time>2026-05-03T13:03:52.002Z</time></trkpt><trkpt lat="45.90724961047223" lon="9.328212192651606"><ele>210.75</ele><time>2026-05-03T13:03:53.002Z</time></trkpt><trkpt lat="45.90714065677201" lon="9.328249487654222"><ele>213.0</ele><time>2026-05-03T13:03:54.002Z</time></trkpt><trkpt lat="45.90703142929336" lon="9.328288332069398"><ele>213.0</ele><time>2026-05-03T13:03:55.002Z</time></trkpt><trkpt lat="45.90690919557137" lon="9.328333836207598"><ele>213.0</ele><time>2026-05-03T13:03:56.002Z</time></trkpt><trkpt lat="45.906763911017215" lon="9.328389151848787"><ele>213.0</ele><time>2026-05-03T13:03:57.002Z</time></trkpt><trkpt lat="45.906592479633815" lon="9.328453826185982"><ele>210.66666666666669</ele><time>2026-05-03T13:03:58.002Z</time></trkpt><trkpt lat="45.906407694142494" lon="9.328522431785458"><ele>208.33333333333334</ele><time>2026-05-03T13:03:59.002Z</time></trkpt><trkpt lat="45.906233472491174" lon="9.328587115478394"><ele>206.0</ele><time>2026-05-03T13:04:00.002Z</time></trkpt><trkpt lat="45.90605198247011" lon="9.328658086065952"><ele>207.0</ele><time>2026-05-03T13:04:01.002Z</time></trkpt><trkpt lat="45.90588163568181" lon="9.328759202279873"><ele>208.0</ele><time>2026-05-03T13:04:02.002Z</time></trkpt><trkpt lat="45.905730050927396" lon="9.328832360801496"><ele>209.0</ele><time>2026-05-03T13:04:03.002Z</time></trkpt><trkpt lat="45.90559116018423" lon="9.328928614856562"><ele>209.0</ele><time>2026-05-03T13:04:04.002Z</time></trkpt><trkpt lat="45.90545779653151" lon="9.329039639374681"><ele>209.0</ele><time>2026-05-03T13:04:05.002Z</time></trkpt><trkpt lat="45.90533033729434" lon="9.329165428672184"><ele>209.0</ele><time>2026-05-03T13:04:06.002Z</time></trkpt><trkpt lat="45.90520186049445" lon="9.329311132968474"><ele>209.0</ele><time>2026-05-03T13:04:07.002Z</time></trkpt><trkpt lat="45.90506568949371" lon="9.329481504614781"><ele>209.0</ele><time>2026-05-03T13:04:08.002Z</time></trkpt><trkpt lat="45.90494220428335" lon="9.32966717148483"><ele>209.0</ele><time>2026-05-03T13:04:09.002Z</time></trkpt><trkpt lat="45.90481247029902" lon="9.329866905876536"><ele>209.0</ele><time>2026-05-03T13:04:10.002Z</time></trkpt><trkpt lat="45.90465208741478" lon="9.33005932929769"><ele>209.0</ele><time>2026-05-03T13:04:11.002Z</time></trkpt><trkpt lat="45.904492722652535" lon="9.330280800970332"><ele>209.0</ele><time>2026-05-03T13:04:12.002Z</time></trkpt><trkpt lat="45.90432512806635" lon="9.330514043154439"><ele>209.5</ele><time>2026-05-03T13:04:13.002Z</time></trkpt><trkpt lat="45.90415683446882" lon="9.330766373298692"><ele>210.0</ele><time>2026-05-03T13:04:14.002Z</time></trkpt><trkpt lat="45.90399238529235" lon="9.33099540254333"><ele>210.0</ele><time>2026-05-03T13:04:15.002Z</time></trkpt><trkpt lat="45.90384451397887" lon="9.331190310280762"><ele>210.0</ele><time>2026-05-03T13:04:16.002Z</time></trkpt><trkpt lat="45.903718434255545" lon="9.33134859674023"><ele>210.0</ele><time>2026-05-03T13:04:17.002Z</time></trkpt><trkpt lat="45.90359993405995" lon="9.33146011409727"><ele>209.8</ele><time>2026-05-03T13:04:18.002Z</time></trkpt><trkpt lat="45.903487614690334" lon="9.331530168259748"><ele>209.6</ele><time>2026-05-03T13:04:19.002Z</time></trkpt><trkpt lat="45.9033928806214" lon="9.331563820888958"><ele>209.39999999999998</ele><time>2026-05-03T13:04:20.002Z</time></trkpt><trkpt lat="45.90332308159263" lon="9.331583605018318"><ele>209.2</ele><time>2026-05-03T13:04:21.002Z</time></trkpt><trkpt lat="45.90321337522778" lon="9.331621863607475"><ele>209.0</ele><time>2026-05-03T13:04:23.002Z</time></trkpt><trkpt lat="45.90310114992112" lon="9.331660692964954"><ele>209.0</ele><time>2026-05-03T13:04:25.003Z</time></trkpt><trkpt lat="45.90301812179735" lon="9.331696720202734"><ele>209.0</ele><time>2026-05-03T13:04:27.003Z</time></trkpt><trkpt lat="45.90292129524829" lon="9.331735136374876"><ele>209.0</ele><time>2026-05-03T13:04:29.003Z</time></trkpt><trkpt lat="45.902840940338216" lon="9.331757696023782"><ele>209.0</ele><time>2026-05-03T13:04:31.003Z</time></trkpt><trkpt lat="45.902748260845954" lon="9.331758703424013"><ele>209.0</ele><time>2026-05-03T13:04:33.003Z</time></trkpt><trkpt lat="45.90262071676514" lon="9.331815402706242"><ele>208.75</ele><time>2026-05-03T13:04:35.003Z</time></trkpt><trkpt lat="45.90253435240039" lon="9.331876119115234"><ele>208.5</ele><time>2026-05-03T13:04:36.003Z</time></trkpt><trkpt lat="45.902419991606784" lon="9.331941735341536"><ele>208.25</ele><time>2026-05-03T13:04:37.003Z</time></trkpt><trkpt lat="45.90227725227132" lon="9.331978654745466"><ele>208.0</ele><time>2026-05-03T13:04:38.003Z</time></trkpt><trkpt lat="45.902129238368026" lon="9.33202503417308"><ele>208.0</ele><time>2026-05-03T13:04:39.003Z</time></trkpt><trkpt lat="45.901952619866485" lon="9.332070566301336"><ele>208.0</ele><time>2026-05-03T13:04:40.003Z</time></trkpt><trkpt lat="45.901764994246236" lon="9.332084658964854"><ele>208.0</ele><time>2026-05-03T13:04:41.003Z</time></trkpt><trkpt lat="45.901599022663866" lon="9.33209172229245"><ele>207.0</ele><time>2026-05-03T13:04:42.003Z</time></trkpt><trkpt lat="45.901457535173265" lon="9.33206922335356"><ele>206.0</ele><time>2026-05-03T13:04:43.003Z</time></trkpt><trkpt lat="45.9013179091522" lon="9.332047692261517"><ele>205.0</ele><time>2026-05-03T13:04:44.003Z</time></trkpt><trkpt lat="45.90117746238294" lon="9.332011505374973"><ele>204.0</ele><time>2026-05-03T13:04:45.003Z</time></trkpt><trkpt lat="45.90103935698883" lon="9.331983000805398"><ele>204.25</ele><time>2026-05-03T13:04:46.003Z</time></trkpt><trkpt lat="45.900910881944704" lon="9.331956301064016"><ele>204.5</ele><time>2026-05-03T13:04:47.003Z</time></trkpt><trkpt lat="45.90078819021728" lon="9.331929975019099"><ele>204.75</ele><time>2026-05-03T13:04:48.003Z</time></trkpt><trkpt lat="45.90065279846846" lon="9.33191288294887"><ele>205.0</ele><time>2026-05-03T13:04:49.003Z</time></trkpt><trkpt lat="45.90052408353015" lon="9.331900978574529"><ele>205.0</ele><time>2026-05-03T13:04:50.003Z</time></trkpt><trkpt lat="45.90041097660255" lon="9.331903045344573"><ele>205.0</ele><time>2026-05-03T13:04:51Z</time></trkpt><trkpt lat="45.90028729526923" lon="9.331911571104975"><ele>205.0</ele><time>2026-05-03T13:04:52Z</time></trkpt><trkpt lat="45.9001694237806" lon="9.331916849611282"><ele>205.0</ele><time>2026-05-03T13:04:53Z</time></trkpt><trkpt lat="45.90004209945805" lon="9.331946883567996"><ele>205.0</ele><time>2026-05-03T13:04:54Z</time></trkpt><trkpt lat="45.89992292529669" lon="9.331988751729487"><ele>205.0</ele><time>2026-05-03T13:04:55Z</time></trkpt><trkpt lat="45.899798008013626" lon="9.332027419195708"><ele>205.0</ele><time>2026-05-03T13:04:56Z</time></trkpt><trkpt lat="45.89967444253996" lon="9.332068237844842"><ele>205.0</ele><time>2026-05-03T13:04:57Z</time></trkpt><trkpt lat="45.89954841986625" lon="9.332115899044208"><ele>205.0</ele><time>2026-05-03T13:04:58Z</time></trkpt><trkpt lat="45.899425290778744" lon="9.332163520021307"><ele>205.0</ele><time>2026-05-03T13:04:59Z</time></trkpt><trkpt lat="45.89930363179977" lon="9.332213524663482"><ele>205.0</ele><time>2026-05-03T13:05:00Z</time></trkpt><trkpt lat="45.89918312393152" lon="9.33225905456246"><ele>205.0</ele><time>2026-05-03T13:05:01Z</time></trkpt><trkpt lat="45.899062087755716" lon="9.3323005681332"><ele>206.5</ele><time>2026-05-03T13:05:02Z</time></trkpt><trkpt lat="45.8989435005863" lon="9.33234445141907"><ele>208.0</ele><time>2026-05-03T13:05:03Z</time></trkpt><trkpt lat="45.89881977738036" lon="9.332390454810827"><ele>209.5</ele><time>2026-05-03T13:05:04Z</time></trkpt><trkpt lat="45.898711357520284" lon="9.33242578009294"><ele>211.0</ele><time>2026-05-03T13:05:05Z</time></trkpt><trkpt lat="45.89860191651559" lon="9.332458390839586"><ele>211.0</ele><time>2026-05-03T13:05:06Z</time></trkpt><trkpt lat="45.89849055607942" lon="9.332494776095036"><ele>211.0</ele><time>2026-05-03T13:05:07Z</time></trkpt><trkpt lat="45.89837377046912" lon="9.332537409965948"><ele>211.0</ele><time>2026-05-03T13:05:08Z</time></trkpt><trkpt lat="45.89825458258568" lon="9.332577043408815"><ele>211.0</ele><time>2026-05-03T13:05:09Z</time></trkpt><trkpt lat="45.89813471208211" lon="9.332615501783575"><ele>211.0</ele><time>2026-05-03T13:05:10Z</time></trkpt><trkpt lat="45.89801706494899" lon="9.332656734206822"><ele>211.0</ele><time>2026-05-03T13:05:11Z</time></trkpt><trkpt lat="45.89790018491115" lon="9.332698876312655"><ele>211.0</ele><time>2026-05-03T13:05:12Z</time></trkpt><trkpt lat="45.897781111151495" lon="9.332743127022884"><ele>211.0</ele><time>2026-05-03T13:05:13Z</time></trkpt><trkpt lat="45.89765769103809" lon="9.332782403620184"><ele>210.5</ele><time>2026-05-03T13:05:14Z</time></trkpt><trkpt lat="45.89752344951762" lon="9.332824413670124"><ele>210.0</ele><time>2026-05-03T13:05:15Z</time></trkpt><trkpt lat="45.897389933316624" lon="9.33287345327029"><ele>209.5</ele><time>2026-05-03T13:05:16Z</time></trkpt><trkpt lat="45.89726484148887" lon="9.33292898355807"><ele>209.0</ele><time>2026-05-03T13:05:17Z</time></trkpt><trkpt lat="45.89714021246548" lon="9.332996273523618"><ele>210.0</ele><time>2026-05-03T13:05:18Z</time></trkpt><trkpt lat="45.89701570944893" lon="9.333069310278976"><ele>211.0</ele><time>2026-05-03T13:05:19Z</time></trkpt><trkpt lat="45.896891439564875" lon="9.333146472443088"><ele>212.0</ele><time>2026-05-03T13:05:20Z</time></trkpt><trkpt lat="45.896769344719225" lon="9.33322637174012"><ele>213.0</ele><time>2026-05-03T13:05:21Z</time></trkpt><trkpt lat="45.8966439965889" lon="9.333327392818573"><ele>213.0</ele><time>2026-05-03T13:05:22Z</time></trkpt><trkpt lat="45.89648546009073" lon="9.333430586269264"><ele>213.0</ele><time>2026-05-03T13:05:23Z</time></trkpt><trkpt lat="45.89631515533164" lon="9.333572341800586"><ele>213.0</ele><time>2026-05-03T13:05:24Z</time></trkpt><trkpt lat="45.89613850589549" lon="9.33372610550015"><ele>213.0</ele><time>2026-05-03T13:05:25Z</time></trkpt><trkpt lat="45.895986109545795" lon="9.333884293540228"><ele>213.0</ele><time>2026-05-03T13:05:26Z</time></trkpt><trkpt lat="45.89583018997009" lon="9.333997590558726"><ele>213.0</ele><time>2026-05-03T13:05:27Z</time></trkpt><trkpt lat="45.89568768114516" lon="9.334121552553158"><ele>213.25</ele><time>2026-05-03T13:05:28.001Z</time></trkpt><trkpt lat="45.895572909163555" lon="9.334230298377486"><ele>213.5</ele><time>2026-05-03T13:05:29.001Z</time></trkpt><trkpt lat="45.895473626576184" lon="9.334322986029566"><ele>213.75</ele><time>2026-05-03T13:05:30.001Z</time></trkpt><trkpt lat="45.8953882258931" lon="9.334417826509265"><ele>214.0</ele><time>2026-05-03T13:05:31.001Z</time></trkpt><trkpt lat="45.89529816637159" lon="9.33453763088089"><ele>214.0</ele><time>2026-05-03T13:05:32.001Z</time></trkpt><trkpt lat="45.895227132213684" lon="9.33469276820464"><ele>214.0</ele><time>2026-05-03T13:05:33.001Z</time></trkpt><trkpt lat="45.895168388488" lon="9.334865291613538"><ele>214.0</ele><time>2026-05-03T13:05:34.001Z</time></trkpt><trkpt lat="45.89509925384391" lon="9.335068111364095"><ele>214.0</ele><time>2026-05-03T13:05:35.001Z</time></trkpt><trkpt lat="45.89506150881205" lon="9.335330740803197"><ele>214.33333333333331</ele><time>2026-05-03T13:05:36.001Z</time></trkpt><trkpt lat="45.895011203260204" lon="9.335607246923745"><ele>214.66666666666669</ele><time>2026-05-03T13:05:37.001Z</time></trkpt><trkpt lat="45.89495894268623" lon="9.335893634717676"><ele>215.0</ele><time>2026-05-03T13:05:38.001Z</time></trkpt><trkpt lat="45.894903266775685" lon="9.33619772948166"><ele>213.66666666666669</ele><time>2026-05-03T13:05:39.001Z</time></trkpt><trkpt lat="45.89485528849883" lon="9.33651140082028"><ele>212.33333333333331</ele><time>2026-05-03T13:05:40.001Z</time></trkpt><trkpt lat="45.89480549604426" lon="9.336786494374014"><ele>211.0</ele><time>2026-05-03T13:05:41.001Z</time></trkpt><trkpt lat="45.894760109324096" lon="9.337036111238843"><ele>211.25</ele><time>2026-05-03T13:05:42.001Z</time></trkpt><trkpt lat="45.89472465627528" lon="9.337263952183957"><ele>211.5</ele><time>2026-05-03T13:05:43.001Z</time></trkpt><trkpt lat="45.89469099931366" lon="9.337449238843023"><ele>211.75</ele><time>2026-05-03T13:05:44.001Z</time></trkpt><trkpt lat="45.89466149442784" lon="9.337605997863577"><ele>212.0</ele><time>2026-05-03T13:05:45.001Z</time></trkpt><trkpt lat="45.8946336089733" lon="9.337745901171836"><ele>212.00000000000003</ele><time>2026-05-03T13:05:46.001Z</time></trkpt><trkpt lat="45.89460769749273" lon="9.337878151984373"><ele>212.0</ele><time>2026-05-03T13:05:47.001Z</time></trkpt><trkpt lat="45.894586057504696" lon="9.33800234189612"><ele>212.0</ele><time>2026-05-03T13:05:48.001Z</time></trkpt><trkpt lat="45.89456502271729" lon="9.338121256290806"><ele>212.0</ele><time>2026-05-03T13:05:49.001Z</time></trkpt><trkpt lat="45.89454065706577" lon="9.338232879438173"><ele>212.00000000000003</ele><time>2026-05-03T13:05:50.001Z</time></trkpt><trkpt lat="45.89451749088149" lon="9.33834864731612"><ele>212.0</ele><time>2026-05-03T13:05:51.001Z</time></trkpt><trkpt lat="45.89448689938483" lon="9.33849435488548"><ele>212.0</ele><time>2026-05-03T13:05:52.001Z</time></trkpt><trkpt lat="45.89445749626861" lon="9.338670200825506"><ele>212.0</ele><time>2026-05-03T13:05:53.001Z</time></trkpt><trkpt lat="45.89443527222271" lon="9.338868090881153"><ele>212.0</ele><time>2026-05-03T13:05:54.001Z</time></trkpt><trkpt lat="45.894432263276116" lon="9.339102646077919"><ele>212.0</ele><time>2026-05-03T13:05:55.001Z</time></trkpt><trkpt lat="45.894447547293595" lon="9.339330505608727"><ele>212.25</ele><time>2026-05-03T13:05:56.001Z</time></trkpt><trkpt lat="45.89446729157862" lon="9.339534482477246"><ele>212.5</ele><time>2026-05-03T13:05:57.001Z</time></trkpt><trkpt lat="45.89448886597943" lon="9.339712503758177"><ele>212.75</ele><time>2026-05-03T13:05:58.001Z</time></trkpt><trkpt lat="45.894506227119884" lon="9.339879415633165"><ele>213.0</ele><time>2026-05-03T13:05:59.001Z</time></trkpt><trkpt lat="45.894521365624406" lon="9.340048799224935"><ele>213.2</ele><time>2026-05-03T13:06:00.001Z</time></trkpt><trkpt lat="45.89453990889609" lon="9.340211649748126"><ele>213.4</ele><time>2026-05-03T13:06:01.001Z</time></trkpt><trkpt lat="45.89455997279769" lon="9.340361131588892"><ele>213.59999999999997</ele><time>2026-05-03T13:06:02.001Z</time></trkpt><trkpt lat="45.89458854036882" lon="9.340510027783393"><ele>213.79999999999998</ele><time>2026-05-03T13:06:03.001Z</time></trkpt><trkpt lat="45.894627052305644" lon="9.34065719022563"><ele>214.0</ele><time>2026-05-03T13:06:04.001Z</time></trkpt><trkpt lat="45.89466934722561" lon="9.340791890278869"><ele>213.25</ele><time>2026-05-03T13:06:05.001Z</time></trkpt><trkpt lat="45.89471822012867" lon="9.340927305525156"><ele>212.5</ele><time>2026-05-03T13:06:06.001Z</time></trkpt><trkpt lat="45.89477219928171" lon="9.341074696413887"><ele>211.75</ele><time>2026-05-03T13:06:07.001Z</time></trkpt><trkpt lat="45.89484212117111" lon="9.341219942810705"><ele>211.0</ele><time>2026-05-03T13:06:08.002Z</time></trkpt><trkpt lat="45.89491375350087" lon="9.341336609418153"><ele>212.25</ele><time>2026-05-03T13:06:09.002Z</time></trkpt><trkpt lat="45.894988963814264" lon="9.341446991604242"><ele>213.5</ele><time>2026-05-03T13:06:10.002Z</time></trkpt><trkpt lat="45.89506855043339" lon="9.341562679993297"><ele>214.75</ele><time>2026-05-03T13:06:11.002Z</time></trkpt><trkpt lat="45.89514418772351" lon="9.341691220773251"><ele>216.0</ele><time>2026-05-03T13:06:12.002Z</time></trkpt><trkpt lat="45.895221869615895" lon="9.341816669916003"><ele>216.0</ele><time>2026-05-03T13:06:13.002Z</time></trkpt><trkpt lat="45.895304688454885" lon="9.341934258993968"><ele>216.0</ele><time>2026-05-03T13:06:14.002Z</time></trkpt><trkpt lat="45.89538281423069" lon="9.342056727268577"><ele>216.0</ele><time>2026-05-03T13:06:15.002Z</time></trkpt><trkpt lat="45.89546514906424" lon="9.342177122632553"><ele>216.0</ele><time>2026-05-03T13:06:16.002Z</time></trkpt><trkpt lat="45.89554825597967" lon="9.342296368786135"><ele>214.0</ele><time>2026-05-03T13:06:17.002Z</time></trkpt><trkpt lat="45.89563114385321" lon="9.34241672087093"><ele>212.0</ele><time>2026-05-03T13:06:18.002Z</time></trkpt><trkpt lat="45.89571485357" lon="9.342538717243983"><ele>210.0</ele><time>2026-05-03T13:06:19.002Z</time></trkpt><trkpt lat="45.89580191739155" lon="9.34265845518914"><ele>208.0</ele><time>2026-05-03T13:06:20.002Z</time></trkpt><trkpt lat="45.89588601399721" lon="9.342775923237582"><ele>221.5</ele><time>2026-05-03T13:06:21.002Z</time></trkpt><trkpt lat="45.89596669310892" lon="9.342898400571165"><ele>235.0</ele><time>2026-05-03T13:06:22.002Z</time></trkpt><trkpt lat="45.896049035369884" lon="9.343021262300528"><ele>248.5</ele><time>2026-05-03T13:06:23.002Z</time></trkpt><trkpt lat="45.896128833738466" lon="9.343139270481318"><ele>262.0</ele><time>2026-05-03T13:06:24.002Z</time></trkpt><trkpt lat="45.896212510102785" lon="9.343262046164279"><ele>262.0</ele><time>2026-05-03T13:06:25.002Z</time></trkpt><trkpt lat="45.896307056839355" lon="9.343406050535089"><ele>262.0</ele><time>2026-05-03T13:06:26.002Z</time></trkpt><trkpt lat="45.89640069485619" lon="9.343521808699307"><ele>262.0</ele><time>2026-05-03T13:06:27.002Z</time></trkpt><trkpt lat="45.8964896331655" lon="9.343677222730957"><ele>262.0</ele><time>2026-05-03T13:06:28.073Z</time></trkpt><trkpt lat="45.89651177476694" lon="9.343801682553606"><ele>310.75</ele><time>2026-05-03T13:06:29.066Z</time></trkpt><trkpt lat="45.896530202003085" lon="9.343928701795456"><ele>359.5</ele><time>2026-05-03T13:06:30.061Z</time></trkpt><trkpt lat="45.89655148435298" lon="9.3440698928789"><ele>408.25</ele><time>2026-05-03T13:06:31.059Z</time></trkpt><trkpt lat="45.89656969817644" lon="9.344190726796054"><ele>457.0</ele><time>2026-05-03T13:06:32.033Z</time></trkpt><trkpt lat="45.89766739908878" lon="9.345206611332122"><ele>208.0</ele><time>2026-05-03T13:06:44.059Z</time></trkpt><trkpt lat="45.89548310113085" lon="9.34653590821395"><ele>208.0</ele><time>2026-05-03T13:06:48.002Z</time></trkpt><trkpt lat="45.895399064221415" lon="9.346759379339797"><ele>208.0</ele><time>2026-05-03T13:06:49.003Z</time></trkpt><trkpt lat="45.89527022084375" lon="9.3470356560121"><ele>208.0</ele><time>2026-05-03T13:06:50.003Z</time></trkpt><trkpt lat="45.895153252611365" lon="9.347290432296054"><ele>205.5</ele><time>2026-05-03T13:06:51.003Z</time></trkpt><trkpt lat="45.895013854725725" lon="9.347581256490736"><ele>203.0</ele><time>2026-05-03T13:06:52.003Z</time></trkpt><trkpt lat="45.89486564935741" lon="9.3478862212219"><ele>207.0</ele><time>2026-05-03T13:06:53.003Z</time></trkpt><trkpt lat="45.89472990490839" lon="9.348179487274535"><ele>211.0</ele><time>2026-05-03T13:06:54.003Z</time></trkpt><trkpt lat="45.89461198902196" lon="9.348487172331218"><ele>211.0</ele><time>2026-05-03T13:06:55.003Z</time></trkpt><trkpt lat="45.89449873983784" lon="9.348795670485726"><ele>211.0</ele><time>2026-05-03T13:06:56.003Z</time></trkpt><trkpt lat="45.89438920233578" lon="9.349110146451455"><ele>208.5</ele><time>2026-05-03T13:06:56.999Z</time></trkpt><trkpt lat="45.89429350281349" lon="9.349457408965796"><ele>206.0</ele><time>2026-05-03T13:06:57.999Z</time></trkpt><trkpt lat="45.89419769866672" lon="9.349790484626016"><ele>206.0</ele><time>2026-05-03T13:06:58.999Z</time></trkpt><trkpt lat="45.894100124909414" lon="9.350116281538714"><ele>206.0</ele><time>2026-05-03T13:06:59.999Z</time></trkpt><trkpt lat="45.894006654163505" lon="9.350441719026614"><ele>209.5</ele><time>2026-05-03T13:07:00.999Z</time></trkpt><trkpt lat="45.89391839701879" lon="9.350754403636172"><ele>213.0</ele><time>2026-05-03T13:07:01.999Z</time></trkpt><trkpt lat="45.89382969292324" lon="9.351071010586953"><ele>223.0</ele><time>2026-05-03T13:07:02.999Z</time></trkpt><trkpt lat="45.89373455931073" lon="9.351380563964895"><ele>233.0</ele><time>2026-05-03T13:07:03.999Z</time></trkpt><trkpt lat="45.893639035502474" lon="9.351687095244449"><ele>233.0</ele><time>2026-05-03T13:07:04.999Z</time></trkpt><trkpt lat="45.89354890123812" lon="9.351986931379033"><ele>233.0</ele><time>2026-05-03T13:07:05.999Z</time></trkpt><trkpt lat="45.89344720894797" lon="9.352285604832849"><ele>219.0</ele><time>2026-05-03T13:07:06.999Z</time></trkpt><trkpt lat="45.89333105086608" lon="9.352572209263316"><ele>205.0</ele><time>2026-05-03T13:07:07.999Z</time></trkpt><trkpt lat="45.89320221338698" lon="9.352843286533368"><ele>216.0</ele><time>2026-05-03T13:07:08.999Z</time></trkpt><trkpt lat="45.89308156572074" lon="9.353125654404051"><ele>227.0</ele><time>2026-05-03T13:07:09.999Z</time></trkpt><trkpt lat="45.89293100696802" lon="9.353382439840551"><ele>227.0</ele><time>2026-05-03T13:07:10.999Z</time></trkpt><trkpt lat="45.892764103818024" lon="9.353626465301726"><ele>227.0</ele><time>2026-05-03T13:07:12Z</time></trkpt><trkpt lat="45.89258048964944" lon="9.353836694499387"><ele>219.0</ele><time>2026-05-03T13:07:13Z</time></trkpt><trkpt lat="45.89239164607949" lon="9.354054702025397"><ele>211.0</ele><time>2026-05-03T13:07:14Z</time></trkpt><trkpt lat="45.89220336352946" lon="9.354257173954908"><ele>211.0</ele><time>2026-05-03T13:07:15Z</time></trkpt><trkpt lat="45.892018987171774" lon="9.354436168588439"><ele>211.0</ele><time>2026-05-03T13:07:16Z</time></trkpt><trkpt lat="45.89184670215487" lon="9.354611791965109"><ele>211.0</ele><time>2026-05-03T13:07:17Z</time></trkpt><trkpt lat="45.891680101119775" lon="9.354796017850695"><ele>210.0</ele><time>2026-05-03T13:07:18Z</time></trkpt><trkpt lat="45.89152765110396" lon="9.354993917681389"><ele>209.0</ele><time>2026-05-03T13:07:19Z</time></trkpt><trkpt lat="45.891386075844984" lon="9.355220496476148"><ele>208.0</ele><time>2026-05-03T13:07:20Z</time></trkpt><trkpt lat="45.89125165286498" lon="9.355472482766633"><ele>206.33333333333331</ele><time>2026-05-03T13:07:21Z</time></trkpt><trkpt lat="45.89112583708335" lon="9.355732046218787"><ele>204.66666666666669</ele><time>2026-05-03T13:07:22Z</time></trkpt><trkpt lat="45.891007415305715" lon="9.355995048575837"><ele>203.0</ele><time>2026-05-03T13:07:23Z</time></trkpt><trkpt lat="45.89089547951556" lon="9.356260305753858"><ele>205.66666666666669</ele><time>2026-05-03T13:07:24Z</time></trkpt><trkpt lat="45.890783190398096" lon="9.356514147870612"><ele>208.33333333333331</ele><time>2026-05-03T13:07:25Z</time></trkpt><trkpt lat="45.89067087470607" lon="9.356761458563456"><ele>211.0</ele><time>2026-05-03T13:07:26Z</time></trkpt><trkpt lat="45.89054700480001" lon="9.356997673208419"><ele>216.33333333333331</ele><time>2026-05-03T13:07:27Z</time></trkpt><trkpt lat="45.89041301499257" lon="9.357230658765934"><ele>221.66666666666669</ele><time>2026-05-03T13:07:28Z</time></trkpt><trkpt lat="45.89027288412487" lon="9.357436218898421"><ele>227.0</ele><time>2026-05-03T13:07:29Z</time></trkpt><trkpt lat="45.89012814366354" lon="9.357610602328545"><ele>227.0</ele><time>2026-05-03T13:07:30Z</time></trkpt><trkpt lat="45.889984795789005" lon="9.357757904791994"><ele>227.0</ele><time>2026-05-03T13:07:31Z</time></trkpt><trkpt lat="45.88983463843489" lon="9.357905858310058"><ele>227.0</ele><time>2026-05-03T13:07:32Z</time></trkpt><trkpt lat="45.88967570873898" lon="9.35804912529304"><ele>227.0</ele><time>2026-05-03T13:07:33Z</time></trkpt><trkpt lat="45.889529980426296" lon="9.358171913078182"><ele>227.0</ele><time>2026-05-03T13:07:34Z</time></trkpt><trkpt lat="45.88938716443502" lon="9.358270472191165"><ele>227.0</ele><time>2026-05-03T13:07:35Z</time></trkpt><trkpt lat="45.889244568932064" lon="9.35835822332266"><ele>222.75</ele><time>2026-05-03T13:07:36Z</time></trkpt><trkpt lat="45.88911293299221" lon="9.358433077779944"><ele>218.5</ele><time>2026-05-03T13:07:37Z</time></trkpt><trkpt lat="45.88897997232588" lon="9.358503716425394"><ele>214.25</ele><time>2026-05-03T13:07:38Z</time></trkpt><trkpt lat="45.88884401902361" lon="9.35856771892569"><ele>210.0</ele><time>2026-05-03T13:07:39Z</time></trkpt><trkpt lat="45.888701137583105" lon="9.358634993223715"><ele>210.0</ele><time>2026-05-03T13:07:40Z</time></trkpt><trkpt lat="45.888551069187145" lon="9.358704200560986"><ele>210.0</ele><time>2026-05-03T13:07:41Z</time></trkpt><trkpt lat="45.88839252931572" lon="9.358780381981044"><ele>210.0</ele><time>2026-05-03T13:07:42.001Z</time></trkpt><trkpt lat="45.8882369588076" lon="9.358854345258612"><ele>214.0</ele><time>2026-05-03T13:07:43.001Z</time></trkpt><trkpt lat="45.88808671076603" lon="9.358926619713968"><ele>218.0</ele><time>2026-05-03T13:07:44.001Z</time></trkpt><trkpt lat="45.88793496050773" lon="9.358999776695757"><ele>222.0</ele><time>2026-05-03T13:07:45.001Z</time></trkpt><trkpt lat="45.887792338049614" lon="9.35907259595421"><ele>222.0</ele><time>2026-05-03T13:07:46.001Z</time></trkpt><trkpt lat="45.887647647598385" lon="9.3591477425482"><ele>222.0</ele><time>2026-05-03T13:07:47.001Z</time></trkpt><trkpt lat="45.887503088667124" lon="9.359233817976842"><ele>222.0</ele><time>2026-05-03T13:07:48.001Z</time></trkpt><trkpt lat="45.8873585532381" lon="9.359327621704159"><ele>217.0</ele><time>2026-05-03T13:07:49.001Z</time></trkpt><trkpt lat="45.887211920104754" lon="9.359437109127668"><ele>212.0</ele><time>2026-05-03T13:07:50.001Z</time></trkpt><trkpt lat="45.88706113350564" lon="9.359557924273066"><ele>207.0</ele><time>2026-05-03T13:07:51.001Z</time></trkpt><trkpt lat="45.88691329765307" lon="9.35966502535833"><ele>209.0</ele><time>2026-05-03T13:07:52.001Z</time></trkpt><trkpt lat="45.88675984268097" lon="9.35976339792334"><ele>211.0</ele><time>2026-05-03T13:07:53.001Z</time></trkpt><trkpt lat="45.88660762549573" lon="9.359867325253589"><ele>213.0</ele><time>2026-05-03T13:07:54.001Z</time></trkpt><trkpt lat="45.886461238489204" lon="9.359968488410642"><ele>213.0</ele><time>2026-05-03T13:07:55.001Z</time></trkpt><trkpt lat="45.88630632024175" lon="9.360074505287992"><ele>213.0</ele><time>2026-05-03T13:07:56.001Z</time></trkpt><trkpt lat="45.88615495103537" lon="9.360184553465302"><ele>213.0</ele><time>2026-05-03T13:07:57.001Z</time></trkpt><trkpt lat="45.88600267430443" lon="9.36029029803743"><ele>216.33333333333331</ele><time>2026-05-03T13:07:58.001Z</time></trkpt><trkpt lat="45.885841874021025" lon="9.360405561654686"><ele>219.66666666666666</ele><time>2026-05-03T13:07:59.001Z</time></trkpt><trkpt lat="45.885680659798325" lon="9.360525375771008"><ele>223.0</ele><time>2026-05-03T13:08:00.001Z</time></trkpt><trkpt lat="45.88551991187356" lon="9.360637832317833"><ele>223.0</ele><time>2026-05-03T13:08:01.001Z</time></trkpt><trkpt lat="45.88535225639648" lon="9.360760625525272"><ele>223.0</ele><time>2026-05-03T13:08:02.001Z</time></trkpt><trkpt lat="45.88519086596035" lon="9.360884784916848"><ele>223.0</ele><time>2026-05-03T13:08:03.001Z</time></trkpt><trkpt lat="45.88503540887142" lon="9.361016043853862"><ele>226.33333333333331</ele><time>2026-05-03T13:08:04.001Z</time></trkpt><trkpt lat="45.88489345477157" lon="9.361158015693174"><ele>229.66666666666669</ele><time>2026-05-03T13:08:05.001Z</time></trkpt><trkpt lat="45.884766036522954" lon="9.361306357311477"><ele>233.0</ele><time>2026-05-03T13:08:06.001Z</time></trkpt><trkpt lat="45.88464154371306" lon="9.36146707998699"><ele>233.0</ele><time>2026-05-03T13:08:07.001Z</time></trkpt><trkpt lat="45.88453488845888" lon="9.361625548855569"><ele>233.0</ele><time>2026-05-03T13:08:08.001Z</time></trkpt><trkpt lat="45.88442830703224" lon="9.361798185477697"><ele>233.0</ele><time>2026-05-03T13:08:09.001Z</time></trkpt><trkpt lat="45.88432721009532" lon="9.361964502188307"><ele>229.66666666666669</ele><time>2026-05-03T13:08:10.001Z</time></trkpt><trkpt lat="45.8842213152396" lon="9.362137280381331"><ele>226.33333333333331</ele><time>2026-05-03T13:08:11.001Z</time></trkpt><trkpt lat="45.88411073427092" lon="9.362306731930206"><ele>223.0</ele><time>2026-05-03T13:08:12.001Z</time></trkpt><trkpt lat="45.884005067348546" lon="9.362474308696113"><ele>223.0</ele><time>2026-05-03T13:08:13.001Z</time></trkpt><trkpt lat="45.88389551503672" lon="9.362649852954982"><ele>223.0</ele><time>2026-05-03T13:08:14.001Z</time></trkpt><trkpt lat="45.88378723075169" lon="9.362825150497091"><ele>223.0</ele><time>2026-05-03T13:08:15.001Z</time></trkpt><trkpt lat="45.88367580320449" lon="9.363005915871808"><ele>219.33333333333331</ele><time>2026-05-03T13:08:16.001Z</time></trkpt><trkpt lat="45.88357333697585" lon="9.36317968049916"><ele>215.66666666666669</ele><time>2026-05-03T13:08:17.001Z</time></trkpt><trkpt lat="45.88346381048522" lon="9.363357521538331"><ele>212.0</ele><time>2026-05-03T13:08:18.001Z</time></trkpt><trkpt lat="45.88336925842664" lon="9.363534085771683"><ele>212.0</ele><time>2026-05-03T13:08:19.001Z</time></trkpt><trkpt lat="45.88327388607196" lon="9.363710103626895"><ele>212.0</ele><time>2026-05-03T13:08:20.002Z</time></trkpt><trkpt lat="45.883187394397126" lon="9.36389301966655"><ele>212.0</ele><time>2026-05-03T13:08:21.002Z</time></trkpt><trkpt lat="45.88311383713881" lon="9.364092410463233"><ele>217.66666666666669</ele><time>2026-05-03T13:08:22.002Z</time></trkpt><trkpt lat="45.88302794850121" lon="9.364281152845217"><ele>223.33333333333331</ele><time>2026-05-03T13:08:23.002Z</time></trkpt><trkpt lat="45.88294709893515" lon="9.364479290205741"><ele>229.0</ele><time>2026-05-03T13:08:24.002Z</time></trkpt><trkpt lat="45.882864377674665" lon="9.364681321970803"><ele>233.33333333333331</ele><time>2026-05-03T13:08:25.002Z</time></trkpt><trkpt lat="45.88276831059475" lon="9.364883453942888"><ele>237.66666666666669</ele><time>2026-05-03T13:08:26.002Z</time></trkpt><trkpt lat="45.882674383824" lon="9.365075154684677"><ele>242.0</ele><time>2026-05-03T13:08:27.002Z</time></trkpt><trkpt lat="45.88257468998429" lon="9.365265174503838"><ele>234.33333333333334</ele><time>2026-05-03T13:08:28.002Z</time></trkpt><trkpt lat="45.882469697711805" lon="9.36545867148921"><ele>226.66666666666669</ele><time>2026-05-03T13:08:29.002Z</time></trkpt><trkpt lat="45.8823687458029" lon="9.365638543277521"><ele>219.0</ele><time>2026-05-03T13:08:30.002Z</time></trkpt><trkpt lat="45.88226677062087" lon="9.365821830734378"><ele>219.0</ele><time>2026-05-03T13:08:31.002Z</time></trkpt><trkpt lat="45.882166852831226" lon="9.365995848715848"><ele>219.0</ele><time>2026-05-03T13:08:32.002Z</time></trkpt><trkpt lat="45.882059448880796" lon="9.366165026055153"><ele>219.0</ele><time>2026-05-03T13:08:33.002Z</time></trkpt><trkpt lat="45.881942879839414" lon="9.366319096845025"><ele>216.33333333333331</ele><time>2026-05-03T13:08:34.002Z</time></trkpt><trkpt lat="45.88182011312961" lon="9.366480897739184"><ele>213.66666666666666</ele><time>2026-05-03T13:08:35.002Z</time></trkpt><trkpt lat="45.88169868434062" lon="9.366656594802702"><ele>211.0</ele><time>2026-05-03T13:08:36.002Z</time></trkpt><trkpt lat="45.88158702948128" lon="9.366858063479048"><ele>211.0</ele><time>2026-05-03T13:08:37.002Z</time></trkpt><trkpt lat="45.88147672028371" lon="9.367070589732224"><ele>211.0</ele><time>2026-05-03T13:08:38.002Z</time></trkpt><trkpt lat="45.88136674679586" lon="9.36728137519208"><ele>211.0</ele><time>2026-05-03T13:08:39.002Z</time></trkpt><trkpt lat="45.88125544930251" lon="9.367488692148829"><ele>210.33333333333331</ele><time>2026-05-03T13:08:40.002Z</time></trkpt><trkpt lat="45.881140914540666" lon="9.367697724827948"><ele>209.66666666666669</ele><time>2026-05-03T13:08:41.002Z</time></trkpt><trkpt lat="45.881028663199416" lon="9.36790140097744"><ele>209.0</ele><time>2026-05-03T13:08:42.002Z</time></trkpt><trkpt lat="45.88091503772411" lon="9.368111509360157"><ele>209.0</ele><time>2026-05-03T13:08:43.002Z</time></trkpt><trkpt lat="45.88080582233682" lon="9.36831850135722"><ele>209.0</ele><time>2026-05-03T13:08:44.002Z</time></trkpt><trkpt lat="45.88069599458318" lon="9.368527306048668"><ele>209.0</ele><time>2026-05-03T13:08:45.002Z</time></trkpt><trkpt lat="45.88058939393324" lon="9.368736607778493"><ele>213.33333333333334</ele><time>2026-05-03T13:08:46.002Z</time></trkpt><trkpt lat="45.880477715286254" lon="9.368944317232188"><ele>217.66666666666669</ele><time>2026-05-03T13:08:47.002Z</time></trkpt><trkpt lat="45.88037187766852" lon="9.369152949076431"><ele>222.0</ele><time>2026-05-03T13:08:48.002Z</time></trkpt><trkpt lat="45.880265147828766" lon="9.369361165400433"><ele>222.0</ele><time>2026-05-03T13:08:49.002Z</time></trkpt><trkpt lat="45.88015439902944" lon="9.369565987200387"><ele>222.0</ele><time>2026-05-03T13:08:50.002Z</time></trkpt><trkpt lat="45.88004671265471" lon="9.36976787932954"><ele>222.0</ele><time>2026-05-03T13:08:51.002Z</time></trkpt><trkpt lat="45.8799389025933" lon="9.369977423292916"><ele>220.0</ele><time>2026-05-03T13:08:52.002Z</time></trkpt><trkpt lat="45.87982846084074" lon="9.370173566377984"><ele>218.0</ele><time>2026-05-03T13:08:53.002Z</time></trkpt><trkpt lat="45.87971612478018" lon="9.370364546675857"><ele>216.0</ele><time>2026-05-03T13:08:54.002Z</time></trkpt><trkpt lat="45.879594736565394" lon="9.37052659001554"><ele>216.0</ele><time>2026-05-03T13:08:55.002Z</time></trkpt><trkpt lat="45.87946062184934" lon="9.37067362054049"><ele>216.0</ele><time>2026-05-03T13:08:56.002Z</time></trkpt><trkpt lat="45.87932311012304" lon="9.370820235457558"><ele>216.0</ele><time>2026-05-03T13:08:57.002Z</time></trkpt><trkpt lat="45.879176553705854" lon="9.370955133712693"><ele>213.0</ele><time>2026-05-03T13:08:58.002Z</time></trkpt><trkpt lat="45.879028039367306" lon="9.37107606929801"><ele>210.0</ele><time>2026-05-03T13:08:59.003Z</time></trkpt><trkpt lat="45.87888570723338" lon="9.371189117126665"><ele>207.0</ele><time>2026-05-03T13:09:00.003Z</time></trkpt><trkpt lat="45.87874088135753" lon="9.371299739054205"><ele>207.66666666666669</ele><time>2026-05-03T13:09:01.003Z</time></trkpt><trkpt lat="45.87859350695571" lon="9.371425860889364"><ele>208.33333333333334</ele><time>2026-05-03T13:09:01.999Z</time></trkpt><trkpt lat="45.87844501425401" lon="9.371546433376391"><ele>209.0</ele><time>2026-05-03T13:09:02.999Z</time></trkpt><trkpt lat="45.87828488599859" lon="9.371659104096857"><ele>209.0</ele><time>2026-05-03T13:09:03.999Z</time></trkpt><trkpt lat="45.878134221842195" lon="9.37175180600157"><ele>209.0</ele><time>2026-05-03T13:09:04.999Z</time></trkpt><trkpt lat="45.877984379472615" lon="9.371864297511689"><ele>209.0</ele><time>2026-05-03T13:09:05.999Z</time></trkpt><trkpt lat="45.87784612614641" lon="9.37201676515494"><ele>207.66666666666669</ele><time>2026-05-03T13:09:06.999Z</time></trkpt><trkpt lat="45.877717518805206" lon="9.372200456219437"><ele>206.33333333333331</ele><time>2026-05-03T13:09:07.999Z</time></trkpt><trkpt lat="45.87761094971137" lon="9.372417263480129"><ele>205.0</ele><time>2026-05-03T13:09:08.999Z</time></trkpt><trkpt lat="45.87751995381596" lon="9.372654073047185"><ele>205.0</ele><time>2026-05-03T13:09:09.999Z</time></trkpt><trkpt lat="45.87743373785109" lon="9.37291635155174"><ele>205.0</ele><time>2026-05-03T13:09:10.999Z</time></trkpt><trkpt lat="45.877320285406924" lon="9.373168420045424"><ele>205.0</ele><time>2026-05-03T13:09:11.999Z</time></trkpt><trkpt lat="45.877233468301085" lon="9.373441666962451"><ele>207.0</ele><time>2026-05-03T13:09:12.999Z</time></trkpt><trkpt lat="45.87712773123219" lon="9.373701615280083"><ele>209.0</ele><time>2026-05-03T13:09:13.999Z</time></trkpt><trkpt lat="45.877018487103" lon="9.373967790129065"><ele>211.0</ele><time>2026-05-03T13:09:14.999Z</time></trkpt><trkpt lat="45.87689694616693" lon="9.374213822275088"><ele>209.33333333333331</ele><time>2026-05-03T13:09:15.999Z</time></trkpt><trkpt lat="45.876755850093616" lon="9.374448097736101"><ele>207.66666666666669</ele><time>2026-05-03T13:09:16.999Z</time></trkpt><trkpt lat="45.87660181388456" lon="9.374670071307657"><ele>206.0</ele><time>2026-05-03T13:09:17.999Z</time></trkpt><trkpt lat="45.876445689863296" lon="9.374888017509898"><ele>210.0</ele><time>2026-05-03T13:09:18.999Z</time></trkpt><trkpt lat="45.876286871314505" lon="9.375098014896647"><ele>214.0</ele><time>2026-05-03T13:09:19.999Z</time></trkpt><trkpt lat="45.876132030064994" lon="9.375322589176253"><ele>218.0</ele><time>2026-05-03T13:09:20.999Z</time></trkpt><trkpt lat="45.875988139068205" lon="9.375554301302273"><ele>215.0</ele><time>2026-05-03T13:09:21.999Z</time></trkpt><trkpt lat="45.87587184361131" lon="9.375782854995812"><ele>212.0</ele><time>2026-05-03T13:09:22.999Z</time></trkpt><trkpt lat="45.87575431266648" lon="9.376006922107333"><ele>209.0</ele><time>2026-05-03T13:09:23.999Z</time></trkpt><trkpt lat="45.87564113124294" lon="9.376212077095941"><ele>213.66666666666669</ele><time>2026-05-03T13:09:25Z</time></trkpt><trkpt lat="45.87553126040737" lon="9.376403567686772"><ele>218.33333333333331</ele><time>2026-05-03T13:09:26Z</time></trkpt><trkpt lat="45.87541648735372" lon="9.376588296453855"><ele>223.0</ele><time>2026-05-03T13:09:27Z</time></trkpt><trkpt lat="45.875279034733246" lon="9.376719649576987"><ele>223.0</ele><time>2026-05-03T13:09:28Z</time></trkpt><trkpt lat="45.8751285652453" lon="9.376839782885988"><ele>223.0</ele><time>2026-05-03T13:09:29Z</time></trkpt><trkpt lat="45.8749534689746" lon="9.376934658874754"><ele>223.0</ele><time>2026-05-03T13:09:30Z</time></trkpt><trkpt lat="45.87476592055679" lon="9.377038126683074"><ele>224.33333333333331</ele><time>2026-05-03T13:09:31Z</time></trkpt><trkpt lat="45.874571597142356" lon="9.377143446029356"><ele>225.66666666666669</ele><time>2026-05-03T13:09:32Z</time></trkpt><trkpt lat="45.87437336921481" lon="9.377266393739129"><ele>227.0</ele><time>2026-05-03T13:09:33Z</time></trkpt><trkpt lat="45.874155123647625" lon="9.37735638648073"><ele>220.5</ele><time>2026-05-03T13:09:34Z</time></trkpt><trkpt lat="45.87392612113046" lon="9.377434625038177"><ele>214.0</ele><time>2026-05-03T13:09:35Z</time></trkpt><trkpt lat="45.87368993536561" lon="9.377508786426423"><ele>214.0</ele><time>2026-05-03T13:09:36Z</time></trkpt><trkpt lat="45.87344777972552" lon="9.377565906373965"><ele>214.0</ele><time>2026-05-03T13:09:37Z</time></trkpt><trkpt lat="45.873197898627055" lon="9.377599540001784"><ele>210.0</ele><time>2026-05-03T13:09:38Z</time></trkpt><trkpt lat="45.87294192041443" lon="9.37761642728773"><ele>206.0</ele><time>2026-05-03T13:09:39Z</time></trkpt><trkpt lat="45.87268152118109" lon="9.377634688333904"><ele>204.5</ele><time>2026-05-03T13:09:40Z</time></trkpt><trkpt lat="45.8724083436254" lon="9.377671296182932"><ele>203.0</ele><time>2026-05-03T13:09:41Z</time></trkpt><trkpt lat="45.8721381733504" lon="9.377729259452511"><ele>203.0</ele><time>2026-05-03T13:09:42Z</time></trkpt><trkpt lat="45.87187131487373" lon="9.377801078434794"><ele>203.0</ele><time>2026-05-03T13:09:43Z</time></trkpt><trkpt lat="45.871606999523145" lon="9.377890532467173"><ele>201.5</ele><time>2026-05-03T13:09:44Z</time></trkpt><trkpt lat="45.87134217809753" lon="9.377993783367907"><ele>200.0</ele><time>2026-05-03T13:09:45Z</time></trkpt><trkpt lat="45.87106822744174" lon="9.378097103099007"><ele>211.0</ele><time>2026-05-03T13:09:46Z</time></trkpt><trkpt lat="45.87079126098276" lon="9.378148039609968"><ele>222.0</ele><time>2026-05-03T13:09:47Z</time></trkpt><trkpt lat="45.87050891955677" lon="9.378147077618607"><ele>222.0</ele><time>2026-05-03T13:09:48Z</time></trkpt><trkpt lat="45.870218885381085" lon="9.378127877477207"><ele>222.0</ele><time>2026-05-03T13:09:49Z</time></trkpt><trkpt lat="45.86993438969747" lon="9.378106556215512"><ele>221.5</ele><time>2026-05-03T13:09:50Z</time></trkpt><trkpt lat="45.86964494681344" lon="9.378114821789366"><ele>221.0</ele><time>2026-05-03T13:09:51Z</time></trkpt><trkpt lat="45.86935817800997" lon="9.378156075901277"><ele>216.0</ele><time>2026-05-03T13:09:52Z</time></trkpt><trkpt lat="45.86907063727574" lon="9.378212121246504"><ele>211.0</ele><time>2026-05-03T13:09:53Z</time></trkpt><trkpt lat="45.868793147531974" lon="9.378267464629149"><ele>211.0</ele><time>2026-05-03T13:09:54.001Z</time></trkpt><trkpt lat="45.86854572977558" lon="9.378320881678226"><ele>211.0</ele><time>2026-05-03T13:09:55.001Z</time></trkpt><trkpt lat="45.86832182577061" lon="9.378381597961882"><ele>208.0</ele><time>2026-05-03T13:09:56.001Z</time></trkpt><trkpt lat="45.86811587214634" lon="9.378469497480591"><ele>205.0</ele><time>2026-05-03T13:09:57.001Z</time></trkpt><trkpt lat="45.86793681832448" lon="9.37858720142518"><ele>202.0</ele><time>2026-05-03T13:09:58.001Z</time></trkpt><trkpt lat="45.86777872704445" lon="9.378722323764883"><ele>201.66666666666666</ele><time>2026-05-03T13:09:59.001Z</time></trkpt><trkpt lat="45.86763578344359" lon="9.378881723400323"><ele>201.33333333333331</ele><time>2026-05-03T13:10:00.001Z</time></trkpt><trkpt lat="45.867502568042134" lon="9.379066727006776"><ele>201.0</ele><time>2026-05-03T13:10:01.001Z</time></trkpt><trkpt lat="45.86738403389676" lon="9.379293570123977"><ele>201.0</ele><time>2026-05-03T13:10:02.001Z</time></trkpt><trkpt lat="45.8672816439271" lon="9.379551024600918"><ele>201.0</ele><time>2026-05-03T13:10:03.001Z</time></trkpt><trkpt lat="45.86718087581017" lon="9.37982098662148"><ele>201.0</ele><time>2026-05-03T13:10:04.001Z</time></trkpt><trkpt lat="45.86708138577846" lon="9.380099708563334"><ele>201.66666666666669</ele><time>2026-05-03T13:10:05.001Z</time></trkpt><trkpt lat="45.866981254086696" lon="9.38037225921481"><ele>202.33333333333334</ele><time>2026-05-03T13:10:06.001Z</time></trkpt><trkpt lat="45.866872961766795" lon="9.38064075934635"><ele>203.0</ele><time>2026-05-03T13:10:07.001Z</time></trkpt><trkpt lat="45.866752840108234" lon="9.380894412844276"><ele>203.0</ele><time>2026-05-03T13:10:08.001Z</time></trkpt><trkpt lat="45.8666117418294" lon="9.381125002450926"><ele>203.0</ele><time>2026-05-03T13:10:09.001Z</time></trkpt><trkpt lat="45.86646167471872" lon="9.381340417430026"><ele>203.0</ele><time>2026-05-03T13:10:10.001Z</time></trkpt><trkpt lat="45.86630438030789" lon="9.381539214836558"><ele>202.33333333333334</ele><time>2026-05-03T13:10:11.001Z</time></trkpt><trkpt lat="45.866151084750356" lon="9.381719668921107"><ele>201.66666666666669</ele><time>2026-05-03T13:10:12.001Z</time></trkpt><trkpt lat="45.86599138073195" lon="9.38186632062621"><ele>201.0</ele><time>2026-05-03T13:10:13.001Z</time></trkpt><trkpt lat="45.865809782700026" lon="9.381992888216926"><ele>201.0</ele><time>2026-05-03T13:10:14.001Z</time></trkpt><trkpt lat="45.86563102522853" lon="9.382096746072248"><ele>201.0</ele><time>2026-05-03T13:10:15.001Z</time></trkpt><trkpt lat="45.86545452440045" lon="9.382150216756898"><ele>201.0</ele><time>2026-05-03T13:10:16.001Z</time></trkpt><trkpt lat="45.86527051559642" lon="9.382200974329585"><ele>203.66666666666669</ele><time>2026-05-03T13:10:17.001Z</time></trkpt><trkpt lat="45.865071481160776" lon="9.382227625771735"><ele>206.33333333333334</ele><time>2026-05-03T13:10:18.001Z</time></trkpt><trkpt lat="45.864875341553514" lon="9.382227596892939"><ele>209.0</ele><time>2026-05-03T13:10:19.001Z</time></trkpt><trkpt lat="45.864703788066194" lon="9.382218359836596"><ele>209.0</ele><time>2026-05-03T13:10:20.001Z</time></trkpt><trkpt lat="45.86454269779954" lon="9.38222511399963"><ele>209.0</ele><time>2026-05-03T13:10:21.001Z</time></trkpt><trkpt lat="45.864389943513395" lon="9.38220772913655"><ele>209.0</ele><time>2026-05-03T13:10:22.001Z</time></trkpt><trkpt lat="45.86424615204171" lon="9.38220242202482"><ele>208.5</ele><time>2026-05-03T13:10:23.001Z</time></trkpt><trkpt lat="45.86411181349831" lon="9.38220407127777"><ele>208.0</ele><time>2026-05-03T13:10:24.001Z</time></trkpt><trkpt lat="45.863984729069536" lon="9.382209586551049"><ele>207.5</ele><time>2026-05-03T13:10:25.001Z</time></trkpt><trkpt lat="45.863862522686375" lon="9.382223885100151"><ele>207.0</ele><time>2026-05-03T13:10:26.001Z</time></trkpt><trkpt lat="45.86374843295542" lon="9.3822205059796"><ele>207.0</ele><time>2026-05-03T13:10:27.001Z</time></trkpt><trkpt lat="45.863642237474956" lon="9.38223680166796"><ele>207.0</ele><time>2026-05-03T13:10:28.001Z</time></trkpt><trkpt lat="45.8635487129394" lon="9.382260933758111"><ele>207.0</ele><time>2026-05-03T13:10:29.002Z</time></trkpt><trkpt lat="45.86345487990933" lon="9.382291911823524"><ele>207.0</ele><time>2026-05-03T13:10:30.002Z</time></trkpt><trkpt lat="45.863362113343506" lon="9.382321032449747"><ele>207.0</ele><time>2026-05-03T13:10:31.002Z</time></trkpt><trkpt lat="45.86325649447769" lon="9.38235334079746"><ele>207.2</ele><time>2026-05-03T13:10:32.002Z</time></trkpt><trkpt lat="45.86314974353569" lon="9.382385995414326"><ele>207.39999999999998</ele><time>2026-05-03T13:10:33.002Z</time></trkpt><trkpt lat="45.86304763860311" lon="9.382417531483524"><ele>207.60000000000002</ele><time>2026-05-03T13:10:34.002Z</time></trkpt><trkpt lat="45.862944596745635" lon="9.382450565079967"><ele>207.8</ele><time>2026-05-03T13:10:35.002Z</time></trkpt><trkpt lat="45.862848672415105" lon="9.382481316903144"><ele>208.0</ele><time>2026-05-03T13:10:36.002Z</time></trkpt><trkpt lat="45.86275058491304" lon="9.38251276223619"><ele>208.0</ele><time>2026-05-03T13:10:37.002Z</time></trkpt><trkpt lat="45.86265780885784" lon="9.382542347761248"><ele>208.0</ele><time>2026-05-03T13:10:38.002Z</time></trkpt><trkpt lat="45.862559427826056" lon="9.382573431165945"><ele>208.0</ele><time>2026-05-03T13:10:39.002Z</time></trkpt><trkpt lat="45.86246945769274" lon="9.382601857187625"><ele>208.0</ele><time>2026-05-03T13:10:40.002Z</time></trkpt><trkpt lat="45.8623753097858" lon="9.382631603111003"><ele>208.0</ele><time>2026-05-03T13:10:41.002Z</time></trkpt><trkpt lat="45.86228544256333" lon="9.382680975071382"><ele>206.8</ele><time>2026-05-03T13:10:42.002Z</time></trkpt><trkpt lat="45.86219682992628" lon="9.382704721682503"><ele>205.60000000000002</ele><time>2026-05-03T13:10:43.002Z</time></trkpt><trkpt lat="45.86210610300017" lon="9.382730982567157"><ele>204.39999999999998</ele><time>2026-05-03T13:10:44.002Z</time></trkpt><trkpt lat="45.86202951129083" lon="9.382760555692679"><ele>203.2</ele><time>2026-05-03T13:10:45.002Z</time></trkpt><trkpt lat="45.86191677006648" lon="9.382797767244053"><ele>202.0</ele><time>2026-05-03T13:10:47.002Z</time></trkpt><trkpt lat="45.86182474974652" lon="9.382818433220146"><ele>201.49999999999997</ele><time>2026-05-03T13:10:49.002Z</time></trkpt><trkpt lat="45.8617503372295" lon="9.382849875375008"><ele>201.0</ele><time>2026-05-03T13:10:53.002Z</time></trkpt><trkpt lat="45.861676780295" lon="9.382885024707905"><ele>200.5</ele><time>2026-05-03T13:11:01.002Z</time></trkpt><trkpt lat="45.86158340727293" lon="9.382896049868865"><ele>200.0</ele><time>2026-05-03T13:11:03.002Z</time></trkpt><trkpt lat="45.861511568911084" lon="9.382920215539848"><ele>199.49999999999997</ele><time>2026-05-03T13:11:04.002Z</time></trkpt><trkpt lat="45.86144317380238" lon="9.382966665275351"><ele>199.0</ele><time>2026-05-03T13:11:05.003Z</time></trkpt><trkpt lat="45.86136832058129" lon="9.38299295286893"><ele>199.6</ele><time>2026-05-03T13:11:06.003Z</time></trkpt><trkpt lat="45.86128063911658" lon="9.383023121643038"><ele>200.2</ele><time>2026-05-03T13:11:07.003Z</time></trkpt><trkpt lat="45.86118466832289" lon="9.38305537758958"><ele>200.79999999999998</ele><time>2026-05-03T13:11:07.998Z</time></trkpt><trkpt lat="45.86108204087233" lon="9.38309195281655"><ele>201.39999999999998</ele><time>2026-05-03T13:11:08.998Z</time></trkpt><trkpt lat="45.86098589509446" lon="9.383134062429072"><ele>202.0</ele><time>2026-05-03T13:11:09.998Z</time></trkpt><trkpt lat="45.86089138466271" lon="9.383181874324812"><ele>202.0</ele><time>2026-05-03T13:11:10.998Z</time></trkpt><trkpt lat="45.86079525895852" lon="9.383226363717199"><ele>202.0</ele><time>2026-05-03T13:11:11.998Z</time></trkpt><trkpt lat="45.860693407688615" lon="9.383274674154386"><ele>202.0</ele><time>2026-05-03T13:11:12.998Z</time></trkpt><trkpt lat="45.860593146854065" lon="9.383328293673895"><ele>202.0</ele><time>2026-05-03T13:11:13.998Z</time></trkpt><trkpt lat="45.86048850110239" lon="9.383382761657531"><ele>202.0</ele><time>2026-05-03T13:11:14.998Z</time></trkpt><trkpt lat="45.860384367829965" lon="9.38344010547372"><ele>202.0</ele><time>2026-05-03T13:11:15.998Z</time></trkpt><trkpt lat="45.860287674350346" lon="9.383493065640335"><ele>202.0</ele><time>2026-05-03T13:11:16.998Z</time></trkpt><trkpt lat="45.86021202635579" lon="9.383564541674065"><ele>202.0</ele><time>2026-05-03T13:11:17.998Z</time></trkpt><trkpt lat="45.860135632542004" lon="9.383656206088862"><ele>202.0</ele><time>2026-05-03T13:11:18.998Z</time></trkpt><trkpt lat="45.86006188498699" lon="9.383754682179678"><ele>202.0</ele><time>2026-05-03T13:11:19.998Z</time></trkpt><trkpt lat="45.86000164220658" lon="9.383840803326"><ele>202.49999999999997</ele><time>2026-05-03T13:11:20.998Z</time></trkpt><trkpt lat="45.85995997041967" lon="9.383909416608894"><ele>203.0</ele><time>2026-05-03T13:11:21.998Z</time></trkpt><trkpt lat="45.85991471568477" lon="9.384004039967586"><ele>203.5</ele><time>2026-05-03T13:11:24.998Z</time></trkpt><trkpt lat="45.859870651897644" lon="9.384085336898929"><ele>204.0</ele><time>2026-05-03T13:11:27.998Z</time></trkpt><trkpt lat="45.85978855312105" lon="9.384233108206088"><ele>204.49999999999997</ele><time>2026-05-03T13:11:29.999Z</time></trkpt><trkpt lat="45.85973316776031" lon="9.38431057915934"><ele>205.0</ele><time>2026-05-03T13:11:30.999Z</time></trkpt><trkpt lat="45.85966881711852" lon="9.38440536480567"><ele>205.0</ele><time>2026-05-03T13:11:31.999Z</time></trkpt><trkpt lat="45.85958285629485" lon="9.384500123932115"><ele>205.0</ele><time>2026-05-03T13:11:32.999Z</time></trkpt><trkpt lat="45.859474764708175" lon="9.38462636125779"><ele>205.0</ele><time>2026-05-03T13:11:33.999Z</time></trkpt><trkpt lat="45.85936982439061" lon="9.384736950759656"><ele>205.0</ele><time>2026-05-03T13:11:34.999Z</time></trkpt><trkpt lat="45.859281425151416" lon="9.384849186247067"><ele>205.6</ele><time>2026-05-03T13:11:35.999Z</time></trkpt><trkpt lat="45.859188375038656" lon="9.384940621506585"><ele>206.2</ele><time>2026-05-03T13:11:36.999Z</time></trkpt><trkpt lat="45.85909558860874" lon="9.385035919968129"><ele>206.8</ele><time>2026-05-03T13:11:37.999Z</time></trkpt><trkpt lat="45.85902120471623" lon="9.385118104098854"><ele>207.4</ele><time>2026-05-03T13:11:38.999Z</time></trkpt><trkpt lat="45.858923632019035" lon="9.385205358664665"><ele>208.0</ele><time>2026-05-03T13:11:39.999Z</time></trkpt><trkpt lat="45.85882810509935" lon="9.385262347416958"><ele>207.99999999999997</ele><time>2026-05-03T13:11:40.999Z</time></trkpt><trkpt lat="45.85874804867574" lon="9.385322434003955"><ele>208.0</ele><time>2026-05-03T13:11:41.999Z</time></trkpt><trkpt lat="45.85868027090915" lon="9.385351907411067"><ele>208.0</ele><time>2026-05-03T13:11:42.999Z</time></trkpt><trkpt lat="45.85859770731046" lon="9.385359455190986"><ele>208.0</ele><time>2026-05-03T13:11:43.999Z</time></trkpt><trkpt lat="45.85850568712622" lon="9.385331306725844"><ele>207.99999999999997</ele><time>2026-05-03T13:11:44.999Z</time></trkpt><trkpt lat="45.85842230849572" lon="9.385307430390034"><ele>208.0</ele><time>2026-05-03T13:11:45.999Z</time></trkpt><trkpt lat="45.858342667423095" lon="9.385269452980381"><ele>206.8</ele><time>2026-05-03T13:11:46.999Z</time></trkpt><trkpt lat="45.85824394373512" lon="9.385208341341311"><ele>205.60000000000002</ele><time>2026-05-03T13:11:47.999Z</time></trkpt><trkpt lat="45.85816262765192" lon="9.385105639148565"><ele>204.39999999999998</ele><time>2026-05-03T13:11:48.999Z</time></trkpt><trkpt lat="45.85808133978783" lon="9.385005230835008"><ele>203.2</ele><time>2026-05-03T13:11:49.999Z</time></trkpt><trkpt lat="45.85801240549633" lon="9.384920632276101"><ele>202.0</ele><time>2026-05-03T13:11:51Z</time></trkpt><trkpt lat="45.8579289969403" lon="9.384837467553725"><ele>201.99999999999997</ele><time>2026-05-03T13:11:52Z</time></trkpt><trkpt lat="45.857840546851484" lon="9.384737282218618"><ele>202.0</ele><time>2026-05-03T13:11:53Z</time></trkpt><trkpt lat="45.857763506455" lon="9.384653508703234"><ele>202.0</ele><time>2026-05-03T13:11:54Z</time></trkpt><trkpt lat="45.857701947808785" lon="9.384586248523956"><ele>202.0</ele><time>2026-05-03T13:11:55Z</time></trkpt><trkpt lat="45.85763921973597" lon="9.384523756965072"><ele>201.99999999999997</ele><time>2026-05-03T13:11:56Z</time></trkpt><trkpt lat="45.857576833867626" lon="9.384473781483967"><ele>202.0</ele><time>2026-05-03T13:11:57Z</time></trkpt><trkpt lat="45.85750045904755" lon="9.384440135148644"><ele>201.33333333333331</ele><time>2026-05-03T13:11:58Z</time></trkpt><trkpt lat="45.857415682855155" lon="9.384421444310155"><ele>200.66666666666666</ele><time>2026-05-03T13:11:59Z</time></trkpt><trkpt lat="45.857336829216145" lon="9.384406882796725"><ele>200.0</ele><time>2026-05-03T13:12:00Z</time></trkpt><trkpt lat="45.85727214781544" lon="9.384403111884241"><ele>199.33333333333331</ele><time>2026-05-03T13:12:01Z</time></trkpt><trkpt lat="45.85715953206211" lon="9.384440656798573"><ele>198.66666666666666</ele><time>2026-05-03T13:12:03Z</time></trkpt><trkpt lat="45.857083250803086" lon="9.384470724181647"><ele>198.0</ele><time>2026-05-03T13:12:04Z</time></trkpt><trkpt lat="45.85701907608155" lon="9.384506363364187"><ele>198.0</ele><time>2026-05-03T13:12:05Z</time></trkpt><trkpt lat="45.85695852981019" lon="9.384550501910658"><ele>198.0</ele><time>2026-05-03T13:12:06Z</time></trkpt><trkpt lat="45.85690072144351" lon="9.384607525266498"><ele>198.0</ele><time>2026-05-03T13:12:07Z</time></trkpt><trkpt lat="45.85684596795527" lon="9.384676017766097"><ele>198.0</ele><time>2026-05-03T13:12:08Z</time></trkpt><trkpt lat="45.856797738887444" lon="9.384754910806162"><ele>198.0</ele><time>2026-05-03T13:12:09Z</time></trkpt><trkpt lat="45.85675530953596" lon="9.384844987020745"><ele>198.0</ele><time>2026-05-03T13:12:10Z</time></trkpt><trkpt lat="45.85671817098456" lon="9.38494212952779"><ele>198.0</ele><time>2026-05-03T13:12:11Z</time></trkpt><trkpt lat="45.8566820639414" lon="9.385043262930914"><ele>198.2857142857143</ele><time>2026-05-03T13:12:12Z</time></trkpt><trkpt lat="45.85664140619622" lon="9.385146695017207"><ele>198.57142857142856</ele><time>2026-05-03T13:12:13Z</time></trkpt><trkpt lat="45.85659836239294" lon="9.385254595257381"><ele>198.85714285714286</ele><time>2026-05-03T13:12:14Z</time></trkpt><trkpt lat="45.856565408052376" lon="9.385352850299926"><ele>199.14285714285717</ele><time>2026-05-03T13:12:15Z</time></trkpt><trkpt lat="45.85653549132899" lon="9.385443488845011"><ele>199.42857142857144</ele><time>2026-05-03T13:12:16Z</time></trkpt><trkpt lat="45.85650744380194" lon="9.385525134079678"><ele>199.71428571428572</ele><time>2026-05-03T13:12:17Z</time></trkpt><trkpt lat="45.85647728575668" lon="9.385607575098096"><ele>200.0</ele><time>2026-05-03T13:12:18Z</time></trkpt><trkpt lat="45.856444228739676" lon="9.385685967106985"><ele>201.0</ele><time>2026-05-03T13:12:19Z</time></trkpt><trkpt lat="45.85639134693035" lon="9.38583046823284"><ele>202.0</ele><time>2026-05-03T13:12:21.001Z</time></trkpt><trkpt lat="45.85634153910032" lon="9.385962603916004"><ele>203.0</ele><time>2026-05-03T13:12:23.001Z</time></trkpt><trkpt lat="45.85629273203079" lon="9.38610053701275"><ele>204.0</ele><time>2026-05-03T13:12:25.001Z</time></trkpt><trkpt lat="45.856236967986426" lon="9.386253924639533"><ele>205.0</ele><time>2026-05-03T13:12:27.001Z</time></trkpt><trkpt lat="45.856184047278184" lon="9.386391843025596"><ele>206.0</ele><time>2026-05-03T13:12:29.001Z</time></trkpt><trkpt lat="45.856134605873606" lon="9.386528874801812"><ele>207.0</ele><time>2026-05-03T13:12:31.001Z</time></trkpt><trkpt lat="45.85610729007695" lon="9.386616470629205"><ele>208.0</ele><time>2026-05-03T13:12:32.001Z</time></trkpt><trkpt lat="45.856083377351375" lon="9.386709713857856"><ele>209.0</ele><time>2026-05-03T13:12:33.001Z</time></trkpt><trkpt lat="45.85603781905211" lon="9.386784229828505"><ele>210.0</ele><time>2026-05-03T13:12:34.001Z</time></trkpt><trkpt lat="45.85600736257419" lon="9.386868541333367"><ele>211.0</ele><time>2026-05-03T13:12:35.001Z</time></trkpt><trkpt lat="45.85597841407063" lon="9.386953772280492"><ele>212.0</ele><time>2026-05-03T13:12:36.001Z</time></trkpt><trkpt lat="45.85595381808975" lon="9.387048729762254"><ele>210.33333333333334</ele><time>2026-05-03T13:12:37.001Z</time></trkpt><trkpt lat="45.85593462529425" lon="9.387152898597849"><ele>208.66666666666669</ele><time>2026-05-03T13:12:38.001Z</time></trkpt><trkpt lat="45.85591870441991" lon="9.387256911067556"><ele>207.0</ele><time>2026-05-03T13:12:39.001Z</time></trkpt><trkpt lat="45.85590788126593" lon="9.387366890413778"><ele>205.33333333333331</ele><time>2026-05-03T13:12:40.001Z</time></trkpt><trkpt lat="45.85590095280853" lon="9.387462037545184"><ele>203.66666666666666</ele><time>2026-05-03T13:12:41.001Z</time></trkpt><trkpt lat="45.85589203484621" lon="9.387602236230881"><ele>202.0</ele><time>2026-05-03T13:12:43.001Z</time></trkpt><trkpt lat="45.855884862922245" lon="9.387714985545397"><ele>201.83333333333331</ele><time>2026-05-03T13:12:45.001Z</time></trkpt><trkpt lat="45.8558755864499" lon="9.387834607588067"><ele>201.66666666666666</ele><time>2026-05-03T13:12:48.001Z</time></trkpt><trkpt lat="45.855864551514294" lon="9.387937105673215"><ele>201.5</ele><time>2026-05-03T13:12:53.002Z</time></trkpt><trkpt lat="45.85586458296254" lon="9.38803581997493"><ele>201.33333333333331</ele><time>2026-05-03T13:13:16.997Z</time></trkpt><trkpt lat="45.855846071614764" lon="9.388136398826724"><ele>201.16666666666666</ele><time>2026-05-03T13:13:21.998Z</time></trkpt><trkpt lat="45.85581798850227" lon="9.388241894096158"><ele>201.0</ele><time>2026-05-03T13:13:26.998Z</time></trkpt><trkpt lat="45.855785248484054" lon="9.388360089878477"><ele>200.83333333333334</ele><time>2026-05-03T13:13:29.999Z</time></trkpt><trkpt lat="45.855750197174984" lon="9.388450502427135"><ele>200.66666666666669</ele><time>2026-05-03T13:13:31.999Z</time></trkpt><trkpt lat="45.85570079880167" lon="9.388558666405688"><ele>200.5</ele><time>2026-05-03T13:13:34.999Z</time></trkpt><trkpt lat="45.85566246517303" lon="9.38863314061095"><ele>200.33333333333334</ele><time>2026-05-03T13:13:36.999Z</time></trkpt><trkpt lat="45.85559875925793" lon="9.388741493313567"><ele>200.16666666666669</ele><time>2026-05-03T13:13:39Z</time></trkpt><trkpt lat="45.85553529162227" lon="9.388821305843834"><ele>200.0</ele><time>2026-05-03T13:13:41Z</time></trkpt><trkpt lat="45.8554815286652" lon="9.38889056465138"><ele>200.71428571428572</ele><time>2026-05-03T13:13:44Z</time></trkpt><trkpt lat="45.85542425813755" lon="9.388943431996928"><ele>201.42857142857144</ele><time>2026-05-03T13:13:48Z</time></trkpt><trkpt lat="45.855351139334054" lon="9.38899695678903"><ele>202.14285714285717</ele><time>2026-05-03T13:13:50Z</time></trkpt><trkpt lat="45.855285533995634" lon="9.38903094311324"><ele>202.85714285714286</ele><time>2026-05-03T13:13:52Z</time></trkpt><trkpt lat="45.855226593711684" lon="9.389079338653435"><ele>203.57142857142856</ele><time>2026-05-03T13:13:54Z</time></trkpt><trkpt lat="45.85516917110413" lon="9.389141572500504"><ele>204.2857142857143</ele><time>2026-05-03T13:13:56.001Z</time></trkpt><trkpt lat="45.85510756790992" lon="9.389174651587387"><ele>205.0</ele><time>2026-05-03T13:13:58.001Z</time></trkpt><trkpt lat="45.85504301898136" lon="9.38918426727744"><ele>204.99999999999997</ele><time>2026-05-03T13:14:01.001Z</time></trkpt><trkpt lat="45.85496234766896" lon="9.389204962255524"><ele>205.0</ele><time>2026-05-03T13:14:03.001Z</time></trkpt><trkpt lat="45.85486917156639" lon="9.389193487323793"><ele>205.0</ele><time>2026-05-03T13:14:05.001Z</time></trkpt><trkpt lat="45.854779288127425" lon="9.389201389948044"><ele>205.0</ele><time>2026-05-03T13:14:07.001Z</time></trkpt><trkpt lat="45.85470219858749" lon="9.389185650726239"><ele>204.99999999999997</ele><time>2026-05-03T13:14:09.001Z</time></trkpt><trkpt lat="45.85463680546865" lon="9.38917031431532"><ele>205.0</ele><time>2026-05-03T13:14:11.001Z</time></trkpt><trkpt lat="45.85454422312047" lon="9.389134312522522"><ele>205.0</ele><time>2026-05-03T13:14:24.002Z</time></trkpt><trkpt lat="45.8544484164807" lon="9.389054181231337"><ele>205.0</ele><time>2026-05-03T13:14:26.002Z</time></trkpt><trkpt lat="45.854347040432586" lon="9.388982068666804"><ele>205.0</ele><time>2026-05-03T13:14:28.002Z</time></trkpt><trkpt lat="45.85427825492663" lon="9.38893076748719"><ele>205.0</ele><time>2026-05-03T13:14:29.002Z</time></trkpt><trkpt lat="45.854217564758194" lon="9.388885503966437"><ele>205.0</ele><time>2026-05-03T13:14:30.002Z</time></trkpt><trkpt lat="45.854127508080495" lon="9.388817634111314"><ele>204.0</ele><time>2026-05-03T13:14:32.002Z</time></trkpt><trkpt lat="45.85403879726507" lon="9.3887608889752"><ele>203.0</ele><time>2026-05-03T13:14:34.002Z</time></trkpt><trkpt lat="45.85396189671959" lon="9.38866945775388"><ele>202.0</ele><time>2026-05-03T13:14:36.002Z</time></trkpt><trkpt lat="45.85387344466559" lon="9.388594363083307"><ele>201.0</ele><time>2026-05-03T13:14:38.002Z</time></trkpt><trkpt lat="45.853778282540176" lon="9.388517043407669"><ele>200.0</ele><time>2026-05-03T13:14:40.002Z</time></trkpt><trkpt lat="45.85368031848938" lon="9.388430410361282"><ele>200.0</ele><time>2026-05-03T13:14:42.002Z</time></trkpt><trkpt lat="45.85359342332501" lon="9.38835686225855"><ele>200.0</ele><time>2026-05-03T13:14:44.002Z</time></trkpt><trkpt lat="45.85352647447606" lon="9.388296858833327"><ele>200.0</ele><time>2026-05-03T13:14:46.002Z</time></trkpt><trkpt lat="45.853467678907606" lon="9.388249054528092"><ele>200.0</ele><time>2026-05-03T13:14:47.002Z</time></trkpt><trkpt lat="45.853384479895766" lon="9.388188981585003"><ele>200.0</ele><time>2026-05-03T13:14:48.002Z</time></trkpt><trkpt lat="45.85328122346011" lon="9.388120369065364"><ele>200.0</ele><time>2026-05-03T13:14:49.002Z</time></trkpt><trkpt lat="45.85316160505711" lon="9.388046266886985"><ele>200.0</ele><time>2026-05-03T13:14:50.002Z</time></trkpt><trkpt lat="45.8530368318417" lon="9.387951674090813"><ele>200.0</ele><time>2026-05-03T13:14:51.002Z</time></trkpt><trkpt lat="45.85288166726944" lon="9.387912380700037"><ele>200.0</ele><time>2026-05-03T13:14:52.002Z</time></trkpt><trkpt lat="45.852762756918565" lon="9.387889899963463"><ele>200.00000000000003</ele><time>2026-05-03T13:14:53.002Z</time></trkpt><trkpt lat="45.85267393686817" lon="9.38786416014444"><ele>200.0</ele><time>2026-05-03T13:14:54.002Z</time></trkpt><trkpt lat="45.85260260600172" lon="9.387937354503993"><ele>200.0</ele><time>2026-05-03T13:14:55.003Z</time></trkpt><trkpt lat="45.852556268747186" lon="9.388009532418922"><ele>200.0</ele><time>2026-05-03T13:14:56.003Z</time></trkpt><trkpt lat="45.85253085404684" lon="9.388113691508883"><ele>200.00000000000003</ele><time>2026-05-03T13:14:57.003Z</time></trkpt><trkpt lat="45.85251893515621" lon="9.388213341290625"><ele>200.0</ele><time>2026-05-03T13:14:58.003Z</time></trkpt><trkpt lat="45.852507669509855" lon="9.388317362143956"><ele>201.0</ele><time>2026-05-03T13:14:59.003Z</time></trkpt><trkpt lat="45.85249401924121" lon="9.388421891190658"><ele>202.0</ele><time>2026-05-03T13:15:00.003Z</time></trkpt><trkpt lat="45.85247247635539" lon="9.388528042888696"><ele>203.0</ele><time>2026-05-03T13:15:01.003Z</time></trkpt><trkpt lat="45.8524522802271" lon="9.388618913554007"><ele>204.0</ele><time>2026-05-03T13:15:02.003Z</time></trkpt><trkpt lat="45.852434393261355" lon="9.388705661993583"><ele>205.0</ele><time>2026-05-03T13:15:04.003Z</time></trkpt><trkpt lat="45.852368190252676" lon="9.388955311107264"><ele>205.0</ele><time>2026-05-03T13:15:06.003Z</time></trkpt><trkpt lat="45.8523384550449" lon="9.38917077761097"><ele>205.0</ele><time>2026-05-03T13:15:07.003Z</time></trkpt><trkpt lat="45.85227996211949" lon="9.389405354838152"><ele>205.0</ele><time>2026-05-03T13:15:08.003Z</time></trkpt></trkseg></trk></gpx>